ftp/pub/palmer/observations_modified/2019/July/AR190705_BASE.txt

Download

Sample DateTime	Unit Id	WS Avg 2min	WD Avg 2min	WGS 10min	WGD 10min	Air Temp	Rel Humidity	Dew Point	Pyranometer	Quantum	Air Pressure	Snow Level	Rainfall	PW Current	Visibility	CBase 1	CBase 2	CBase 3	Vert Vis
2019/07/05  00:00:00  BASE  1.87572  8    2.96352  15   -4.7  92    -5.8  0     0     1002.0   NA       0.0000   9999     1740  0     0    
2019/07/05  00:01:00  BASE  2.38728  9    2.96352  15   -4.7  92    -5.8  0     0     1002.0   NA       0.0000   9999     1740  0     0    
2019/07/05  00:02:00  BASE  2.57544  15   3.087    22   -4.7  92    -5.8  0     0     1002.0   NA       0.0000   9999     1710  0     0    
2019/07/05  00:03:00  BASE  2.7048   21   3.087    27   -4.7  92    -5.8  0     0     1002.0   NA       0.0000   9999     1740  0     0    
2019/07/05  00:04:00  BASE  2.79888  25   3.087    27   -4.8  92    -5.9  0     0     1002.0   NA       0.0000   9999     1740  0     0    
2019/07/05  00:05:00  BASE  2.83416  29   3.087    27   -4.8  92    -5.9  0     0     1001.9   NA       0.0000   9999     1670  0     0    
2019/07/05  00:06:00  BASE  2.793    30   3.087    27   -4.8  92    -5.9  0     0     1001.8   NA       0.0000   9999     1670  0     0    
2019/07/05  00:07:00  BASE  2.5872   29   3.087    27   -4.8  92    -5.9  0     0     1001.8   NA       0.0000   9999     1670  0     0    
2019/07/05  00:08:00  BASE  2.29908  29   3.087    27   -4.8  92    -5.9  0     0     1001.8   NA       0.0000   9999     1670  0     0    
2019/07/05  00:09:00  BASE  2.3814   19   3.087    27   -4.8  92    -5.9  0     0     1001.8   NA       0.0000   9999     1710  0     0    
2019/07/05  00:10:00  BASE  2.60484  5    3.087    27   -4.8  92    -5.9  0     0     1001.8   NA       0.0000   9999     1740  0     0    
2019/07/05  00:11:00  BASE  2.60484  4    3.087    27   -4.8  93    -5.9  0     0     1001.8   NA       0.0000   9999     1710  0     0    
2019/07/05  00:12:00  BASE  2.352    3    3.087    27   -4.8  93    -5.8  0     0     1001.8   NA       0.0000   9999     1710  0     0    
2019/07/05  00:13:12  BASE  2.4108   3    3.0576   31   -4.8  93    -5.8  0     0     1001.8   NA       0.0000   9999     1670  0     0    
2019/07/05  00:14:00  BASE  2.65776  4    2.96352  37   -4.8  93    -5.8  0     0     1001.8   NA       0.0000   9999     1710  0     0    
2019/07/05  00:15:00  BASE  2.7048   3    3.1458   2    -4.8  93    -5.8  0     0     1001.8   NA       0.0000   9999     1670  0     0    
2019/07/05  00:16:00  BASE  2.98704  357  3.48096  354  -4.8  93    -5.8  0     0     1001.9   NA       0.0000   9999     1710  0     0    
2019/07/05  00:17:00  BASE  3.13992  356  3.48096  354  -4.8  93    -5.8  0     0     1001.9   NA       0.0000   9999     1710  0     0    
2019/07/05  00:18:00  BASE  3.25164  4    3.69264  13   -4.8  93    -5.8  0     0     1002.0   NA       0.0000   9999     1710  0     0    
2019/07/05  00:19:00  BASE  3.41628  12   3.75144  20   -4.9  93    -5.8  0     0     1002.0   NA       0.0000   9999     1670  0     0    
2019/07/05  00:20:00  BASE  3.2634   19   3.75144  20   -4.9  93    -5.8  0     0     1002.0   NA       0.0000   9999     1670  0     0    
2019/07/05  00:21:00  BASE  3.0282   22   3.75144  20   -4.9  93    -5.9  0     0     1002.0   NA       0.0000   9999     1710  0     0    
2019/07/05  00:22:00  BASE  2.96352  22   3.75144  20   -4.9  93    -5.9  0     0     1002.0   NA       0.0000   9999     1670  0     0    
2019/07/05  00:23:00  BASE  2.9694   18   3.75144  20   -4.9  93    -5.9  0     0     1002.0   NA       0.0000   9999     1670  0     0    
2019/07/05  00:24:00  BASE  2.9106   17   3.75144  20   -4.9  93    -5.9  0     0     1002.0   NA       0.0000   9999     1640  0     0    
2019/07/05  00:25:00  BASE  2.97528  20   3.75144  20   -4.9  93    -5.9  0     0     1002.0   NA       0.0000   9999     1640  0     0    
2019/07/05  00:26:00  BASE  2.60484  23   3.75144  20   -4.9  93    -5.9  0     0     1002.0   NA       0.0000   9999     1640  0     0    
2019/07/05  00:27:00  BASE  1.93452  25   3.75144  20   -4.9  93    -5.9  0     0     1002.0   NA       0.0000   9999     1570  0     0    
2019/07/05  00:28:00  BASE  1.87572  8    3.75144  20   -4.9  93    -5.9  0     0     1002.0   NA       0.0000   9999     1570  0     0    
2019/07/05  00:29:00  BASE  1.8228   341  3.62796  19   -4.9  93    -5.9  0     0     1002.0   NA       0.0000   9999     1610  0     0    
2019/07/05  00:30:00  BASE  1.81692  326  3.59856  34   -4.9  93    -5.8  0     0     1002.0   NA       0.0000   9999     1570  0     0    
2019/07/05  00:31:00  BASE  1.59348  314  3.48096  20   -4.8  93    -5.8  0     0     1002.0   NA       0.0000   9999     1570  0     0    
2019/07/05  00:32:00  BASE  1.2348   313  3.48096  20   -4.8  93    -5.8  0     0     1002.0   NA       0.0000   9999     1610  0     0    
2019/07/05  00:33:00  BASE  1.36416  313  3.48096  20   -4.8  93    -5.8  0     0     1002.0   NA       0.0000   9999     1670  0     0    
2019/07/05  00:34:00  BASE  1.39356  308  3.48096  20   -4.9  93    -5.8  0     0     1002.0   NA       0.0000   9999     1710  0     0    
2019/07/05  00:35:00  BASE  1.09368  305  2.84592  16   -4.9  93    -5.8  0     0     1002.0   NA       0.0000   9999     1670  0     0    
2019/07/05  00:36:00  BASE  0.48216  323  2.35788  354  -4.9  93    -5.9  0     0     1002.0   NA       0.0000   9999     1670  0     0    
2019/07/05  00:37:00  BASE  0.0294   339  2.35788  354  -4.9  93    -5.9  0     0     1002.0   NA       0.0000   9999     1640  0     0    
2019/07/05  00:38:00  BASE  0        323  2.1756   323  -4.9  93    -5.9  0     0     1002.0   NA       0.0000   9999     1640  0     0    
2019/07/05  00:39:00  BASE  0.24696  317  2.1756   323  -4.9  93    -5.9  0     0     1002.0   NA       0.0000   9999     1640  0     0    
2019/07/05  00:40:00  BASE  0.3528   5    1.90512  309  -4.9  93    -5.9  0     0     1002.0   NA       0.0000   9999     1640  0     0    
2019/07/05  00:41:00  BASE  0.36456  70   1.63464  307  -4.9  92    -6.0  0     0     1002.0   NA       0.0000   9999     1640  0     0    
2019/07/05  00:42:00  BASE  1.04076  76   1.93452  55   -5.0  92    -6.0  0     0     1002.0   NA       0.0000   9999     1640  0     0    
2019/07/05  00:43:00  BASE  1.62288  78   1.96392  84   -5.0  92    -6.0  0     0     1002.0   NA       0.0000   9999     1670  0     0    
2019/07/05  00:44:00  BASE  1.48176  85   1.96392  84   -5.0  93    -6.0  0     0     1002.0   NA       0.0000   9999     1640  0     0    
2019/07/05  00:45:00  BASE  1.323    88   1.96392  84   -5.0  93    -6.0  0     0     1001.9   NA       0.0000   9999     1640  0     0    
2019/07/05  00:46:00  BASE  1.45824  69   2.32848  61   -5.0  93    -6.0  0     0     1001.9   NA       0.0000   9999     1640  0     0    
2019/07/05  00:47:00  BASE  2.01096  55   2.72244  60   -5.0  93    -6.0  0     0     1001.8   NA       0.0000   9999     1610  0     0    
2019/07/05  00:48:00  BASE  2.5578   54   2.99292  57   -5.0  93    -6.0  0     0     1001.8   NA       0.0000   9999     1640  0     0    
2019/07/05  00:49:00  BASE  2.69304  55   2.99292  57   -5.0  93    -6.0  0     0     1001.8   NA       0.0000   9999     1640  0     0    
2019/07/05  00:50:00  BASE  2.75772  55   2.99292  57   -5.0  93    -6.0  0     0     1001.8   NA       0.0000   9999     1610  0     0    
2019/07/05  00:51:00  BASE  2.7636   57   3.1164   59   -5.0  93    -6.0  0     0     1001.8   NA       0.0000   9999     1570  0     0    
2019/07/05  00:52:00  BASE  2.61072  57   3.1164   59   -5.1  93    -6.0  0     0     1001.9   NA       0.0000   9999     1570  0     0    
2019/07/05  00:53:00  BASE  2.54016  60   3.1164   59   -5.1  94    -6.0  0     0     1001.9   NA       0.0000   9999     1610  0     0    
2019/07/05  00:54:00  BASE  2.52252  67   3.1164   59   -5.1  94    -5.9  0     0     1002.0   NA       0.0000   9999     1610  0     0    
2019/07/05  00:55:00  BASE  2.352    69   3.1164   59   -5.1  94    -5.9  0     0     1002.0   NA       0.0000   9999     1570  0     0    
2019/07/05  00:56:00  BASE  2.21088  69   3.1164   59   -5.1  94    -5.9  0     0     1002.0   NA       0.0000   9999     1570  0     0    
2019/07/05  00:57:00  BASE  2.21676  69   3.1164   59   -5.1  94    -5.9  0     0     1002.0   NA       0.0000   9999     1610  0     0    
2019/07/05  00:58:00  BASE  2.0874   63   3.1164   59   -5.1  94    -5.9  0     0     1002.0   NA       0.0000   9999     1610  0     0    
2019/07/05  00:59:00  BASE  1.8816   53   3.1164   59   -5.1  94    -5.9  0     0     1002.1   NA       0.0000   9999     1570  0     0    
2019/07/05  01:00:00  BASE  1.8228   52   3.1164   59   -5.1  94    -5.9  0     0     1002.1   NA       0.0000   9999     1540  0     0    
2019/07/05  01:01:00  BASE  1.7346   60   2.75184  65   -5.1  94    -5.9  0     0     1002.1   NA       0.0000   9999     1510  0     0    
2019/07/05  01:02:00  BASE  1.7346   69   2.75184  65   -5.1  94    -5.9  0     0     1002.1   NA       0.0000   9999     1510  0     0    
2019/07/05  01:03:00  BASE  1.88748  76   2.54016  75   -5.1  94    -5.9  0     0     1002.1   NA       0.0000   9999     1540  0     0    
2019/07/05  01:04:00  BASE  1.9404   78   2.54016  75   -5.1  94    -5.9  0     0     1002.1   NA       0.0000   9999     1570  0     0    
2019/07/05  01:05:00  BASE  1.8522   75   2.35788  67   -5.1  94    -5.9  0     0     1002.1   NA       0.0000   9999     1610  0     0    
2019/07/05  01:06:00  BASE  1.79928  67   2.35788  67   -5.1  94    -5.9  0     0     1002.1   NA       0.0000   9999     1610  0     0    
2019/07/05  01:07:00  BASE  1.7934   57   2.32848  59   -5.1  94    -5.9  0     0     1002.1   NA       0.0000   9999     1570  0     0    
2019/07/05  01:08:00  BASE  1.81692  51   2.32848  59   -5.1  94    -5.9  0     0     1002.1   NA       0.0000   9999     1570  0     0    
2019/07/05  01:09:00  BASE  1.9992   47   2.56956  56   -5.1  94    -5.9  0     0     1002.1   NA       0.0000   9999     1610  0     0    
2019/07/05  01:10:00  BASE  2.74596  52   3.65736  61   -5.1  94    -5.9  0     0     1002.2   NA       0.0000   9999     1610  0     0    
2019/07/05  01:11:00  BASE  3.35748  51   3.65736  61   -5.1  94    -5.9  0     0     1002.1   NA       0.0000   9999     1610  0     0    
2019/07/05  01:12:00  BASE  3.59856  43   4.08072  46   -5.1  94    -5.9  0     0     1002.1   NA       0.0000   9999     1610  0     0    
2019/07/05  01:13:00  BASE  3.66912  43   4.08072  46   -5.2  94    -5.9  0     0     1002.2   NA       0.0000   9999     1570  0     0    
2019/07/05  01:14:00  BASE  3.65148  43   4.08072  46   -5.2  94    -6.0  0     0     1002.2   NA       0.0000   9999     1540  0     0    
2019/07/05  01:15:00  BASE  3.7044   42   4.08072  46   -5.3  95    -6.0  0     0     1002.2   NA       0.0000   9999     1610  0     0    
2019/07/05  01:16:00  BASE  3.51624  41   4.08072  46   -5.3  95    -6.0  0     0     1002.2   NA       0.0000   9999     1610  0     0    
2019/07/05  01:17:00  BASE  3.42804  44   4.08072  46   -5.4  95    -6.0  0     0     1002.2   NA       0.0000   9999     1640  0     0    
2019/07/05  01:18:00  BASE  3.42804  49   4.08072  46   -5.4  96    -6.0  0     0     1002.2   NA       0.0000   9999     1570  0     0    
2019/07/05  01:19:00  BASE  3.26928  51   4.08072  46   -5.4  96    -6.0  0     0     1002.2   NA       0.0000   9999     1570  0     0    
2019/07/05  01:20:00  BASE  3.28692  54   4.08072  46   -5.4  96    -5.9  0     0     1002.2   NA       0.0000   9999     1540  0     0    
2019/07/05  01:21:00  BASE  3.30456  57   4.08072  46   -5.4  96    -5.9  0     0     1002.2   NA       0.0000   9999     1570  0     0    
2019/07/05  01:22:00  BASE  3.09288  56   4.05132  49   -5.4  96    -5.9  0     0     1002.2   NA       0.0000   9999     1540  0     0    
2019/07/05  01:23:00  BASE  3.1752   60   4.05132  49   -5.3  96    -5.8  0     0     1002.1   NA       0.0000   9999     1570  0     0    
2019/07/05  01:24:00  BASE  3.43392  59   3.86904  53   -5.3  97    -5.8  0     0     1002.1   NA       0.0000   9999     1610  0     0    
2019/07/05  01:25:00  BASE  3.51036  56   3.86904  53   -5.3  97    -5.7  0     0     1002.2   NA       0.0000   9999     1570  0     0    
2019/07/05  01:26:00  BASE  3.39864  56   3.86904  53   -5.3  97    -5.7  0     0     1002.2   NA       0.0000   9999     1570  0     0    
2019/07/05  01:27:00  BASE  2.85768  54   3.86904  53   -5.3  97    -5.7  0     0     1002.2   NA       0.0000   9999     1610  0     0    
2019/07/05  01:28:00  BASE  2.48724  55   4.263    60   -5.3  97    -5.7  0     0     1002.2   NA       0.0000   9999     1610  0     0    
2019/07/05  01:29:00  BASE  2.499    52   4.263    60   -5.3  97    -5.7  0     0     1002.2   NA       0.0000   9999     1640  0     0    
2019/07/05  01:30:00  BASE  2.3814   46   4.263    60   -5.3  97    -5.7  0     0     1002.2   NA       0.0000   9999     1610  0     0    
2019/07/05  01:31:00  BASE  2.51664  52   4.263    60   -5.3  97    -5.7  0     0     1002.2   NA       0.0000   9999     1640  0     0    
2019/07/05  01:32:00  BASE  2.352    53   4.263    60   -5.3  97    -5.7  0     0     1002.2   NA       0.0000   9999     1610  0     0    
2019/07/05  01:33:00  BASE  1.92276  54   4.263    60   -5.2  97    -5.6  0     0     1002.2   NA       0.0000   9999     1640  0     0    
2019/07/05  01:34:00  BASE  1.66992  52   4.263    60   -5.2  97    -5.6  0     0     1002.2   NA       0.0000   9999     1670  0     0    
2019/07/05  01:35:00  BASE  1.54644  42   4.263    60   -5.2  97    -5.6  0     0     1002.2   NA       0.0000   9999     1670  0     0    
2019/07/05  01:36:00  BASE  1.51704  34   4.263    60   -5.2  97    -5.6  0     0     1002.2   NA       0.0000   9999     1640  0     0    
2019/07/05  01:37:00  BASE  1.5876   27   4.263    60   -5.2  97    -5.6  0     0     1002.2   NA       0.0000   9999     1570  0     0    
2019/07/05  01:38:00  BASE  1.59936  30   3.0576   65   -5.2  97    -5.6  0     0     1002.2   NA       0.0000   9999     1570  0     0    
2019/07/05  01:39:00  BASE  1.5582   32   3.0576   65   -5.2  97    -5.6  0     0     1002.2   NA       0.0000   9999     1800  0     0    
2019/07/05  01:40:00  BASE  1.6464   34   3.0576   65   -5.2  97    -5.6  0     0     1002.2   NA       0.0000   9999     1670  0     0    
2019/07/05  01:41:00  BASE  1.7346   35   2.45196  47   -5.2  97    -5.6  0     0     1002.2   NA       0.0000   9999     1900  0     0    
2019/07/05  01:42:00  BASE  1.99332  35   2.48136  32   -5.2  97    -5.6  0     0     1002.2   NA       0.0000   9999     1840  0     0    
2019/07/05  01:43:00  BASE  2.18736  36   2.54016  33   -5.2  97    -5.6  0     0     1002.2   NA       0.0000   9999     0     0     0    
2019/07/05  01:44:00  BASE  2.21088  40   2.54016  33   -5.2  97    -5.6  0     0     1002.3   NA       0.0000   9999     2070  0     0    
2019/07/05  01:45:00  BASE  2.25792  38   2.75184  22   -5.2  97    -5.6  0     0     1002.3   NA       0.0000   9999     1870  0     0    
2019/07/05  01:46:00  BASE  2.21676  31   2.75184  22   -5.2  97    -5.6  0     0     1002.3   NA       0.0000   9999     1870  0     0    
2019/07/05  01:47:00  BASE  2.15208  31   2.75184  22   -5.2  97    -5.6  0     0     1002.3   NA       0.0000   9999     1740  0     0    
2019/07/05  01:48:00  BASE  2.33436  26   2.75184  22   -5.2  97    -5.5  0     0     1002.3   NA       0.0000   9999     1770  0     0    
2019/07/05  01:49:00  BASE  2.36376  20   2.75184  22   -5.2  98    -5.5  0     0     1002.3   NA       0.0000   9999     1800  0     0    
2019/07/05  01:50:00  BASE  2.28144  24   2.75184  22   -5.2  98    -5.5  0     0     1002.3   NA       0.0000   9999     1740  0     0    
2019/07/05  01:51:00  BASE  2.34024  31   2.75184  22   -5.2  98    -5.5  0     0     1002.4   NA       0.0000   9999     1710  0     0    
2019/07/05  01:52:00  BASE  2.19912  30   2.75184  22   -5.2  98    -5.5  0     0     1002.5   NA       0.0000   9999     1670  2330  0    
2019/07/05  01:53:00  BASE  1.95804  26   2.75184  22   -5.2  98    -5.4  0     0     1002.5   NA       0.0000   9999     1670  0     0    
2019/07/05  01:54:00  BASE  1.63464  21   2.75184  22   -5.2  98    -5.4  0     0     1002.5   NA       0.0000   9999     1710  0     0    
2019/07/05  01:55:00  BASE  1.66992  21   2.66364  24   -5.2  98    -5.4  0     0     1002.5   NA       0.0000   9999     1670  0     0    
2019/07/05  01:56:00  BASE  2.00508  27   2.66364  24   -5.1  98    -5.4  0     0     1002.5   NA       0.0000   9999     1670  0     0    
2019/07/05  01:57:00  BASE  2.15208  34   2.66364  24   -5.1  98    -5.5  0     0     1002.5   NA       0.0000   9999     1670  0     0    
2019/07/05  01:58:00  BASE  2.29908  39   2.66364  24   -5.2  97    -5.5  0     0     1002.5   NA       0.0000   9999     1740  0     0    
2019/07/05  01:59:01  BASE  2.31672  43   2.66364  24   -5.2  97    -5.6  0     0     1002.5   NA       0.0000   9999     1770  0     0    
2019/07/05  02:00:00  BASE  2.18148  40   2.63424  40   -5.2  97    -5.6  0     0     1002.5   NA       0.0000   9999     1840  0     0    
2019/07/05  02:01:00  BASE  2.12856  40   2.63424  40   -5.2  97    -5.6  0     0     1002.5   NA       0.0000   9999     1800  0     0    
2019/07/05  02:02:00  BASE  2.14032  41   2.63424  40   -5.3  97    -5.7  0     0     1002.5   NA       0.0000   9999     1710  0     0    
2019/07/05  02:03:00  BASE  2.06388  39   2.63424  40   -5.3  97    -5.7  0     0     1002.5   NA       0.0000   9999     1670  0     0    
2019/07/05  02:04:00  BASE  1.95804  33   2.63424  40   -5.3  97    -5.7  0     0     1002.5   NA       0.0000   9999     1770  0     0    
2019/07/05  02:05:00  BASE  1.81104  33   2.63424  40   -5.2  97    -5.6  0     0     1002.5   NA       0.0000   9999     1740  0     0    
2019/07/05  02:06:00  BASE  1.72284  31   2.63424  40   -5.2  97    -5.6  0     0     1002.5   NA       0.0000   9999     1670  0     0    
2019/07/05  02:07:00  BASE  1.764    27   2.56956  39   -5.2  97    -5.6  0     0     1002.5   NA       0.0000   9999     1710  0     0    
2019/07/05  02:08:00  BASE  1.79928  25   2.38728  43   -5.2  97    -5.6  0     0     1002.5   NA       0.0000   9999     1740  0     0    
2019/07/05  02:09:00  BASE  1.72872  23   2.35788  39   -5.2  97    -5.6  0     0     1002.5   NA       0.0000   9999     1710  0     0    
2019/07/05  02:10:00  BASE  1.83456  27   2.35788  39   -5.1  97    -5.6  0     0     1002.5   NA       0.0000   9999     1740  0     0    
2019/07/05  02:11:00  BASE  2.1462   29   2.63424  28   -5.1  97    -5.6  0     0     1002.5   NA       0.0000   9999     1740  0     0    
2019/07/05  02:12:00  BASE  2.35788  28   2.63424  28   -5.1  96    -5.6  0     0     1002.5   NA       0.0000   9999     1710  0     0    
2019/07/05  02:13:00  BASE  2.34612  29   2.63424  28   -5.1  96    -5.6  0     0     1002.5   NA       0.0000   9999     1740  0     0    
2019/07/05  02:14:00  BASE  2.34612  31   2.63424  28   -5.2  96    -5.7  0     0     1002.5   NA       0.0000   9999     1710  0     0    
2019/07/05  02:15:00  BASE  2.31672  26   2.63424  28   -5.2  96    -5.7  0     0     1002.5   NA       0.0000   9999     1740  0     0    
2019/07/05  02:16:00  BASE  2.3226   15   2.75184  17   -5.2  96    -5.8  0     0     1002.5   NA       0.0000   9999     1710  0     0    
2019/07/05  02:17:00  BASE  2.62836  12   3.1458   25   -5.2  96    -5.8  0     0     1002.5   NA       0.0000   9999     1670  0     0    
2019/07/05  02:18:00  BASE  2.91648  19   3.2046   25   -5.2  96    -5.8  0     0     1002.5   NA       0.0000   9999     1670  0     0    
2019/07/05  02:19:00  BASE  3.08112  27   3.29868  35   -5.3  96    -5.8  0     0     1002.5   NA       0.0000   9999     1770  0     0    
2019/07/05  02:20:00  BASE  3.06936  33   3.29868  35   -5.3  96    -5.9  0     0     1002.5   NA       0.0000   9999     1740  0     0    
2019/07/05  02:21:00  BASE  2.95176  34   3.29868  32   -5.3  96    -5.9  0     0     1002.5   NA       0.0000   9999     1940  0     0    
2019/07/05  02:22:00  BASE  2.8518   31   3.29868  32   -5.4  96    -6.0  0     0     1002.5   NA       0.0000   9999     1900  0     0    
2019/07/05  02:23:00  BASE  2.89296  33   3.35748  39   -5.4  96    -6.0  0     0     1002.5   NA       0.0000   9999     1840  0     0    
2019/07/05  02:24:00  BASE  2.92236  35   3.35748  39   -5.4  96    -6.0  0     0     1002.5   NA       0.0000   9999     1800  0     0    
2019/07/05  02:25:00  BASE  2.6754   35   3.35748  39   -5.4  96    -6.0  0     0     1002.5   NA       0.0000   9999     1870  0     0    
2019/07/05  02:26:00  BASE  2.45784  38   3.35748  39   -5.4  95    -6.0  0     0     1002.5   NA       0.0000   9999     1900  0     0    
2019/07/05  02:27:00  BASE  2.32848  42   3.35748  39   -5.4  95    -6.1  0     0     1002.5   NA       0.0000   9999     1900  0     0    
2019/07/05  02:28:00  BASE  2.05212  37   3.35748  39   -5.4  95    -6.1  0     0     1002.5   NA       0.0000   9999     1840  0     0    
2019/07/05  02:29:00  BASE  2.07564  35   3.35748  39   -5.4  95    -6.1  0     0     1002.6   NA       0.0000   9999     1840  0     0    
2019/07/05  02:30:00  BASE  2.3814   36   3.35748  39   -5.4  95    -6.1  0     0     1002.6   NA       0.0000   9999     1840  0     0    
2019/07/05  02:31:00  BASE  2.42256  31   3.35748  39   -5.4  95    -6.1  0     0     1002.6   NA       0.0000   9999     1800  0     0    
2019/07/05  02:32:00  BASE  2.48724  30   3.35748  39   -5.4  95    -6.1  0     0     1002.6   NA       0.0000   9999     1800  0     0    
2019/07/05  02:33:00  BASE  2.6166   36   3.087    40   -5.4  95    -6.1  0     0     1002.6   NA       0.0000   9999     1770  0     0    
2019/07/05  02:34:00  BASE  2.52252  39   3.2046   33   -5.4  95    -6.1  0     0     1002.6   NA       0.0000   9999     1770  0     0    
2019/07/05  02:35:00  BASE  2.28732  32   3.2046   33   -5.4  95    -6.1  0     0     1002.6   NA       0.0000   9999     1840  0     0    
2019/07/05  02:36:00  BASE  1.93452  28   3.2046   33   -5.4  95    -6.1  0     0     1002.6   NA       0.0000   9999     1770  0     0    
2019/07/05  02:37:00  BASE  1.8522   29   3.2046   33   -5.4  95    -6.1  0     0     1002.6   NA       0.0000   9999     1900  0     0    
2019/07/05  02:38:00  BASE  1.764    32   3.2046   33   -5.4  95    -6.0  0     0     1002.6   NA       0.0000   9999     1970  0     0    
2019/07/05  02:39:00  BASE  1.52292  35   3.2046   33   -5.4  95    -6.0  0     0     1002.7   NA       0.0000   9999     2030  0     0    
2019/07/05  02:40:00  BASE  1.54644  41   3.2046   33   -5.4  95    -6.0  0     0     1002.7   NA       0.0000   9999     0     0     0    
2019/07/05  02:41:00  BASE  1.56408  45   3.2046   33   -5.4  95    -6.1  0     0     1002.7   NA       0.0000   9999     2260  0     0    
2019/07/05  02:42:00  BASE  1.42884  45   3.2046   33   -5.5  95    -6.1  0     0     1002.7   NA       0.0000   9999     2070  0     0    
2019/07/05  02:43:00  BASE  1.36416  38   3.2046   33   -5.5  95    -6.2  0     0     1002.7   NA       0.0000   9999     1870  0     0    
2019/07/05  02:44:00  BASE  1.34652  32   2.72244  34   -5.5  95    -6.2  0     0     1002.7   NA       0.0000   9999     1800  0     0    
2019/07/05  02:45:00  BASE  1.2936   46   2.24028  24   -5.5  95    -6.2  0     0     1002.7   NA       0.0000   9999     1840  0     0    
2019/07/05  02:46:00  BASE  1.30536  53   2.24028  24   -5.5  95    -6.2  0     0     1002.7   NA       0.0000   9999     1840  0     0    
2019/07/05  02:47:00  BASE  1.5288   46   2.0286   46   -5.5  95    -6.2  0     0     1002.7   NA       0.0000   9999     1840  0     0    
2019/07/05  02:48:00  BASE  1.71108  46   2.0286   46   -5.5  95    -6.2  0     0     1002.7   NA       0.0000   9999     1870  0     0    
2019/07/05  02:49:00  BASE  1.92864  42   2.66364  37   -5.5  95    -6.2  0     0     1002.7   NA       0.0000   9999     1870  0     0    
2019/07/05  02:50:00  BASE  2.15796  42   2.66364  37   -5.5  95    -6.2  0     0     1002.7   NA       0.0000   9999     1870  0     0    
2019/07/05  02:51:00  BASE  1.78752  52   2.66364  37   -5.6  95    -6.3  0     0     1002.7   NA       0.0000   9999     1770  0     0    
2019/07/05  02:52:00  BASE  1.5582   59   2.66364  37   -5.6  95    -6.3  0     0     1002.7   NA       0.0000   9999     1800  0     0    
2019/07/05  02:53:00  BASE  1.44648  60   2.66364  37   -5.6  95    -6.3  0     0     1002.7   NA       0.0000   9999     1840  0     0    
2019/07/05  02:54:00  BASE  1.33476  59   2.66364  37   -5.6  95    -6.2  0     0     1002.7   NA       0.0000   9999     1900  0     0    
2019/07/05  02:55:00  BASE  1.71696  41   2.66364  37   -5.6  95    -6.2  0     0     1002.7   NA       0.0000   9999     1900  0     0    
2019/07/05  02:56:00  BASE  2.06388  26   2.66364  37   -5.5  95    -6.2  0     0     1002.7   NA       0.0000   9999     1900  0     0    
2019/07/05  02:57:00  BASE  2.058    23   2.66364  37   -5.5  95    -6.2  0     0     1002.7   NA       0.0000   9999     1900  0     0    
2019/07/05  02:58:00  BASE  1.89336  20   2.66364  37   -5.5  95    -6.2  0     0     1002.8   NA       0.0000   9999     1840  0     0    
2019/07/05  02:59:00  BASE  1.71696  15   2.42256  29   -5.5  95    -6.2  0     0     1002.8   NA       0.0000   9999     1840  0     0    
2019/07/05  03:00:00  BASE  1.6464   10   2.42256  29   -5.5  95    -6.2  0     0     1002.8   NA       0.0000   9999     1870  0     0    
2019/07/05  03:01:00  BASE  1.58172  7    2.42256  29   -5.5  95    -6.2  0     0     1002.8   NA       0.0000   9999     1800  0     0    
2019/07/05  03:02:00  BASE  1.53468  7    2.42256  29   -5.5  95    -6.2  0     0     1002.8   NA       0.0000   9999     1900  0     0    
2019/07/05  03:03:00  BASE  1.54056  3    2.42256  29   -5.5  95    -6.2  0     0     1002.7   NA       0.0000   9999     0     0     0    
2019/07/05  03:04:00  BASE  1.3818   360  2.42256  29   -5.4  94    -6.2  0     0     1002.8   NA       0.0000   9999     1870  0     0    
2019/07/05  03:05:00  BASE  1.21128  4    2.32848  20   -5.4  94    -6.2  0     0     1002.8   NA       0.0000   9999     1770  0     0    
2019/07/05  03:06:00  BASE  1.31712  0    2.1462   23   -5.4  94    -6.2  0     0     1002.8   NA       0.0000   9999     1770  0     0    
2019/07/05  03:07:00  BASE  1.4406   353  2.058    22   -5.4  94    -6.3  0     0     1002.8   NA       0.0000   9999     1840  0     0    
2019/07/05  03:08:00  BASE  1.4406   349  2.0286   10   -5.4  94    -6.3  0     0     1002.8   NA       0.0000   9999     1840  0     0    
2019/07/05  03:09:00  BASE  1.47588  346  1.87572  19   -5.4  94    -6.3  0     0     1002.8   NA       0.0000   9999     1770  2230  0    
2019/07/05  03:10:00  BASE  1.65816  342  2.058    336  -5.4  94    -6.3  0     0     1002.8   NA       0.0000   9999     1770  0     0    
2019/07/05  03:11:00  BASE  1.51116  338  2.058    336  -5.4  94    -6.3  0     0     1002.8   NA       0.0000   9999     1870  0     0    
2019/07/05  03:12:00  BASE  1.11132  331  2.058    336  -5.4  94    -6.3  0     0     1002.8   NA       0.0000   9999     1870  0     0    
2019/07/05  03:13:00  BASE  1.029    329  2.058    336  -5.4  94    -6.2  0     0     1002.8   NA       0.0000   9999     1900  0     0    
2019/07/05  03:14:00  BASE  1.0584   337  2.058    336  -5.4  93    -6.3  0     0     1002.8   NA       0.0000   9999     1840  0     0    
2019/07/05  03:15:00  BASE  0.62916  3    2.058    336  -5.4  93    -6.3  0     0     1002.8   NA       0.0000   9999     1800  0     0    
2019/07/05  03:16:00  BASE  0.3234   74   2.058    336  -5.4  93    -6.4  0     0     1002.8   NA       0.0000   9999     1840  0     0    
2019/07/05  03:17:00  BASE  0.63504  104  2.058    336  -5.5  93    -6.4  0     0     1002.8   NA       0.0000   9999     1870  0     0    
2019/07/05  03:18:00  BASE  0.48216  91   2.058    336  -5.4  93    -6.4  0     0     1002.8   NA       0.0000   9999     1800  0     0    
2019/07/05  03:19:00  BASE  0.08232  81   2.058    336  -5.4  93    -6.4  0     0     1002.8   NA       0.0000   9999     1870  0     0    
2019/07/05  03:20:00  BASE  0        77   1.72284  333  -5.4  93    -6.3  0     0     1002.8   NA       0.0000   9999     1840  0     0    
2019/07/05  03:21:00  BASE  0        69   1.42296  332  -5.3  93    -6.3  0     0     1002.8   NA       0.0000   9999     1670  0     0    
2019/07/05  03:22:00  BASE  0        50   1.42296  332  -5.3  93    -6.3  0     0     1002.8   NA       0.0000   9999     1770  0     0    
2019/07/05  03:23:00  BASE  0        26   1.42296  332  -5.3  93    -6.3  0     0     1002.8   NA       0.0000   9999     1800  0     0    
2019/07/05  03:24:00  BASE  0        13   0.90552  124  -5.3  92    -6.3  0     0     1002.8   NA       0.0000   9999     1800  0     0    
2019/07/05  03:25:00  BASE  0        0    0.90552  124  -5.2  92    -6.3  0     0     1002.8   NA       0.0000   9999     0     0     0    
2019/07/05  03:26:00  BASE  0.27048  5    0.90552  124  -5.2  92    -6.3  0     0     1002.8   NA       0.0000   9999     1870  0     0    
2019/07/05  03:27:00  BASE  0.64092  12   0.78792  14   -5.2  92    -6.4  0     0     1002.8   NA       0.0000   9999     1840  0     0    
2019/07/05  03:28:00  BASE  0.78204  13   0.93492  13   -5.2  91    -6.4  0     0     1002.8   NA       0.0000   9999     0     0     0    
2019/07/05  03:29:00  BASE  0.84084  13   0.93492  13   -5.2  91    -6.4  0     0     1002.8   NA       0.0000   9999     0     0     0    
2019/07/05  03:30:00  BASE  0.85848  8    0.93492  13   -5.2  91    -6.5  0     0     1002.8   NA       0.0000   9999     1940  0     0    
2019/07/05  03:31:00  BASE  0.8526   4    0.93492  13   -5.2  91    -6.5  0     0     1002.8   NA       0.0000   9999     2000  0     0    
2019/07/05  03:32:00  BASE  0.89964  9    1.0584   11   -5.2  90    -6.5  0     0     1002.8   NA       0.0000   9999     2000  0     0    
2019/07/05  03:33:00  BASE  1.07016  11   1.29948  14   -5.2  90    -6.6  0     0     1002.8   NA       0.0000   9999     2000  0     0    
2019/07/05  03:34:00  BASE  1.24656  10   1.42296  8    -5.2  90    -6.6  0     0     1002.8   NA       0.0000   9999     1970  0     0    
2019/07/05  03:35:00  BASE  1.2936   11   1.42296  9    -5.2  90    -6.6  0     0     1002.8   NA       0.0000   9999     1900  0     0    
2019/07/05  03:36:00  BASE  1.19364  14   1.42296  9    -5.3  90    -6.7  0     0     1002.8   NA       0.0000   9999     1840  0     0    
2019/07/05  03:37:00  BASE  1.31712  17   1.63464  17   -5.3  90    -6.7  0     0     1002.8   NA       0.0000   9999     1900  0     0    
2019/07/05  03:38:00  BASE  1.5288   21   1.66404  23   -5.4  90    -6.7  0     0     1002.8   NA       0.0000   9999     1940  0     0    
2019/07/05  03:39:00  BASE  1.51704  27   1.66404  36   -5.4  91    -6.7  0     0     1002.8   NA       0.0000   9999     0     0     0    
2019/07/05  03:40:00  BASE  1.54644  30   1.75224  33   -5.5  91    -6.7  0     0     1002.8   NA       0.0000   9999     1840  0     0    
2019/07/05  03:41:00  BASE  1.53468  29   1.75224  33   -5.5  92    -6.6  0     0     1002.8   NA       0.0000   9999     1840  0     0    
2019/07/05  03:42:00  BASE  1.56408  32   2.21088  36   -5.5  92    -6.6  0     0     1002.8   NA       0.0000   9999     1870  0     0    
2019/07/05  03:43:00  BASE  1.9698   36   2.38728  36   -5.5  92    -6.6  0     0     1002.8   NA       0.0000   9999     1870  0     0    
2019/07/05  03:44:00  BASE  2.25204  37   2.38728  36   -5.6  92    -6.6  0     0     1002.8   NA       0.0000   9999     1840  0     0    
2019/07/05  03:45:00  BASE  2.19324  39   2.38728  36   -5.7  93    -6.7  0     0     1002.8   NA       0.0000   9999     1800  0     0    
2019/07/05  03:46:00  BASE  2.25792  41   2.42256  41   -5.8  93    -6.8  0     0     1002.8   NA       0.0000   9999     1800  0     0    
2019/07/05  03:47:00  BASE  2.27556  44   2.42256  41   -5.9  93    -6.8  0     0     1002.8   NA       0.0000   9999     1840  0     0    
2019/07/05  03:48:00  BASE  2.09328  49   2.42256  41   -5.9  93    -6.8  0     0     1002.8   NA       0.0000   9999     1800  0     0    
2019/07/05  03:49:00  BASE  1.89336  55   2.42256  41   -6.0  94    -6.8  0     0     1002.8   NA       0.0000   9999     1770  0     0    
2019/07/05  03:50:00  BASE  1.81104  57   2.42256  41   -5.9  94    -6.7  0     0     1002.8   NA       0.0000   9999     0     0     0    
2019/07/05  03:51:00  BASE  1.85808  57   2.42256  41   -5.8  95    -6.6  0     0     1002.8   NA       0.0000   9999     1870  0     0    
2019/07/05  03:52:00  BASE  1.94628  57   2.42256  41   -5.8  95    -6.4  0     0     1002.8   NA       0.0000   9999     1800  0     0    
2019/07/05  03:53:00  BASE  2.0286   59   2.42256  41   -5.7  95    -6.3  0     0     1002.8   NA       0.0000   9999     0     0     0    
2019/07/05  03:54:00  BASE  2.06976  60   2.42256  41   -5.6  95    -6.3  0     0     1002.8   NA       0.0000   9999     1900  0     0    
2019/07/05  03:55:00  BASE  1.93452  59   2.42256  41   -5.6  95    -6.3  0     0     1002.8   NA       0.0000   9999     1870  0     0    
2019/07/05  03:56:00  BASE  1.75224  59   2.35788  43   -5.6  95    -6.3  0     0     1002.9   NA       0.0000   9999     1840  0     0    
2019/07/05  03:57:00  BASE  1.6464   52   2.21088  56   -5.6  95    -6.3  0     0     1002.8   NA       0.0000   9999     1870  0     0    
2019/07/05  03:58:00  BASE  1.49352  45   2.21088  56   -5.6  95    -6.3  0     0     1002.9   NA       0.0000   9999     1970  0     0    
2019/07/05  03:59:00  BASE  1.39944  45   2.21088  56   -5.6  95    -6.3  0     0     1002.9   NA       0.0000   9999     1870  0     0    
2019/07/05  04:00:00  BASE  1.37004  49   2.21088  56   -5.6  95    -6.3  0     0     1002.9   NA       0.0000   9999     1970  0     0    
2019/07/05  04:01:00  BASE  1.2642   55   2.21088  56   -5.6  95    -6.3  0     0     1002.9   NA       0.0000   9999     1900  0     0    
2019/07/05  04:02:00  BASE  1.09368  57   2.21088  56   -5.6  95    -6.3  0     0     1002.9   NA       0.0000   9999     1840  0     0    
2019/07/05  04:03:00  BASE  1.19364  65   2.21088  56   -5.6  95    -6.3  0     0     1002.9   NA       0.0000   9999     1840  0     0    
2019/07/05  04:04:00  BASE  1.4112   72   1.90512  59   -5.6  95    -6.3  0     0     1002.9   NA       0.0000   9999     1770  0     0    
2019/07/05  04:05:00  BASE  1.38768  74   1.84632  62   -5.7  95    -6.4  0     0     1003.0   NA       0.0000   9999     1840  0     0    
2019/07/05  04:06:00  BASE  1.37004  72   1.81692  44   -5.7  94    -6.4  0     0     1002.9   NA       0.0000   9999     1770  0     0    
2019/07/05  04:07:00  BASE  1.50528  70   1.75224  65   -5.7  94    -6.5  0     0     1002.9   NA       0.0000   9999     1740  0     0    
2019/07/05  04:08:00  BASE  1.66992  67   2.0286   65   -5.7  94    -6.5  0     0     1002.9   NA       0.0000   9999     1800  0     0    
2019/07/05  04:09:00  BASE  1.83456  63   2.0874   67   -5.7  94    -6.5  0     0     1003.0   NA       0.0000   9999     0     0     0    
2019/07/05  04:10:00  BASE  1.93452  62   2.1756   62   -5.7  94    -6.5  0     0     1003.0   NA       0.0000   9999     1900  0     0    
2019/07/05  04:11:00  BASE  2.00508  62   2.29908  69   -5.7  94    -6.5  0     0     1003.0   NA       0.0000   9999     1800  0     0    
2019/07/05  04:12:00  BASE  1.89924  61   2.29908  69   -5.7  93    -6.5  0     0     1003.0   NA       0.0000   9999     1770  0     0    
2019/07/05  04:14:00  BASE  1.75812  62   2.29908  69   -5.7  93    -6.6  0     0     1003.0   NA       0.0000   9999     1710  0     0    
2019/07/05  04:15:00  BASE  1.75224  65   2.29908  69   -5.6  93    -6.6  0     0     1003.1   NA       0.0000   9999     0     0     0    
2019/07/05  04:16:00  BASE  1.71696  60   2.29908  69   -5.6  93    -6.6  0     0     1003.1   NA       0.0000   9999     1800  0     0    
2019/07/05  04:17:00  BASE  1.62876  54   2.29908  69   -5.6  93    -6.5  0     0     1003.1   NA       0.0000   9999     0     0     0    
2019/07/05  04:18:00  BASE  1.5288   51   2.29908  69   -5.6  93    -6.5  0     0     1003.2   NA       0.0000   9999     0     0     0    
2019/07/05  04:19:00  BASE  1.55232  49   2.29908  69   -5.5  93    -6.5  0     0     1003.2   NA       0.0000   9999     0     0     0    
2019/07/05  04:20:00  BASE  1.59348  46   2.29908  69   -5.5  93    -6.5  0     0     1003.2   NA       0.0000   9999     0     0     0    
2019/07/05  04:21:00  BASE  1.51704  42   2.0874   61   -5.6  93    -6.5  0     0     1003.2   NA       0.0000   9999     0     0     0    
2019/07/05  04:22:00  BASE  1.47     37   1.90512  63   -5.6  93    -6.5  0     0     1003.2   NA       0.0000   9999     1940  0     0    
2019/07/05  04:23:00  BASE  1.47     35   1.90512  63   -5.6  93    -6.6  0     0     1003.2   NA       0.0000   9999     0     0     0    
2019/07/05  04:24:00  BASE  1.38768  35   1.84632  59   -5.7  93    -6.6  0     0     1003.2   NA       0.0000   9999     1840  0     0    
2019/07/05  04:25:00  BASE  1.19364  37   1.81692  62   -5.7  93    -6.6  0     0     1003.2   NA       0.0000   9999     1840  0     0    
2019/07/05  04:26:00  BASE  1.16424  44   1.72284  45   -5.7  93    -6.6  0     0     1003.2   NA       0.0000   9999     1840  0     0    
2019/07/05  04:27:00  BASE  1.27596  46   1.72284  45   -5.7  94    -6.6  0     0     1003.2   NA       0.0000   9999     0     0     0    
2019/07/05  04:28:00  BASE  1.323    49   1.72284  45   -5.7  94    -6.6  0     0     1003.2   NA       0.0000   9999     1740  0     0    
2019/07/05  04:29:00  BASE  1.35828  51   1.69344  43   -5.7  94    -6.5  0     0     1003.1   NA       0.0000   9999     0     0     0    
2019/07/05  04:30:00  BASE  1.41708  48   1.60524  42   -5.7  94    -6.5  0     0     1003.1   NA       0.0000   9999     0     0     0    
2019/07/05  04:31:00  BASE  1.4994   50   1.63464  53   -5.7  94    -6.5  0     0     1003.1   NA       0.0000   9999     0     0     0    
2019/07/05  04:32:00  BASE  1.617    55   1.87572  57   -5.7  94    -6.5  0     0     1003.1   NA       0.0000   9999     0     0     0    
2019/07/05  04:33:00  BASE  1.79928  57   2.058    58   -5.7  94    -6.6  0     0     1003.1   NA       0.0000   9999     0     0     0    
2019/07/05  04:34:00  BASE  1.8816   58   2.058    58   -5.8  94    -6.6  0     0     1003.2   NA       0.0000   9999     0     0     0    
2019/07/05  04:35:00  BASE  1.84044  58   2.058    58   -5.9  94    -6.7  0     0     1003.2   NA       0.0000   9999     0     0     0    
2019/07/05  04:36:00  BASE  1.97568  60   2.24028  65   -5.9  94    -6.7  0     0     1003.1   NA       0.0000   9999     0     0     0    
2019/07/05  04:37:00  BASE  2.09916  64   2.26968  60   -5.9  94    -6.7  0     0     1003.2   NA       0.0000   9999     0     0     0    
2019/07/05  04:38:00  BASE  2.02272  63   2.35788  54   -5.9  94    -6.7  0     0     1003.2   NA       0.0000   9999     0     0     0    
2019/07/05  04:39:00  BASE  2.03448  61   2.35788  54   -5.9  94    -6.7  0     0     1003.2   NA       0.0000   9999     0     0     0    
2019/07/05  04:40:00  BASE  1.99332  58   2.35788  54   -5.9  94    -6.7  0     0     1003.2   NA       0.0000   9999     0     0     0    
2019/07/05  04:41:00  BASE  1.87572  57   2.35788  54   -5.9  94    -6.7  0     0     1003.2   NA       0.0000   9999     0     0     0    
2019/07/05  04:42:00  BASE  1.94628  60   2.35788  54   -5.9  94    -6.7  0     0     1003.2   NA       0.0000   9999     0     0     0    
2019/07/05  04:43:00  BASE  1.93452  54   2.35788  54   -6.0  94    -6.8  0     0     1003.2   NA       0.0000   9999     1800  0     0    
2019/07/05  04:44:00  BASE  1.85808  50   2.35788  54   -6.0  94    -6.8  0     0     1003.1   NA       0.0000   9999     0     0     0    
2019/07/05  04:45:00  BASE  1.84044  51   2.35788  54   -6.0  94    -6.8  0     0     1003.0   NA       0.0000   9999     0     0     0    
2019/07/05  04:46:00  BASE  1.99332  54   2.45196  48   -6.0  94    -6.8  0     0     1003.0   NA       0.0000   9999     0     0     0    
2019/07/05  04:47:00  BASE  2.22852  56   2.48136  67   -6.1  94    -6.9  0     0     1003.0   NA       0.0000   9999     0     0     0    
2019/07/05  04:48:00  BASE  2.24616  57   2.48136  67   -6.1  94    -6.9  0     0     1003.0   NA       0.0000   9999     0     0     0    
2019/07/05  04:49:00  BASE  2.2344   62   2.54016  73   -6.2  94    -6.9  0     0     1003.0   NA       0.0000   9999     0     0     0    
2019/07/05  04:50:00  BASE  2.4696   67   2.87532  71   -6.2  94    -7.0  0     0     1003.0   NA       0.0000   9999     0     0     0    
2019/07/05  04:51:00  BASE  2.63424  65   2.87532  63   -6.2  95    -7.0  0     0     1003.0   NA       0.0000   9999     0     0     0    
2019/07/05  04:52:00  BASE  2.4108   65   2.87532  63   -6.3  95    -7.0  0     0     1003.0   NA       0.0000   9999     0     0     0    
2019/07/05  04:53:00  BASE  2.12268  68   2.87532  63   -6.3  95    -7.0  0     0     1003.0   NA       0.0000   9999     0     0     0    
2019/07/05  04:54:00  BASE  1.86984  65   2.87532  63   -6.3  95    -7.0  0     0     1003.0   NA       0.0000   9999     0     0     0    
2019/07/05  04:55:00  BASE  1.86396  68   2.87532  63   -6.3  95    -7.0  0     0     1003.0   NA       0.0000   9999     0     0     0    
2019/07/05  04:56:00  BASE  2.10504  68   2.87532  63   -6.3  95    -7.0  0     0     1003.0   NA       0.0000   9999     0     0     0    
2019/07/05  04:57:00  BASE  2.18736  66   2.87532  63   -6.4  95    -7.1  0     0     1003.0   NA       0.0000   9999     0     0     0    
2019/07/05  04:58:00  BASE  2.09328  62   2.87532  63   -6.4  95    -7.1  0     0     1003.0   NA       0.0000   9999     0     0     0    
2019/07/05  04:59:00  BASE  1.9992   61   2.87532  63   -6.5  95    -7.1  0     0     1003.0   NA       0.0000   9999     0     0     0    
2019/07/05  05:00:00  BASE  2.205    63   2.87532  63   -6.5  95    -7.1  0     0     1003.0   NA       0.0000   9999     0     0     0    
2019/07/05  05:01:00  BASE  2.34612  63   2.72244  66   -6.5  95    -7.1  0     0     1003.0   NA       0.0000   9999     0     0     0    
2019/07/05  05:02:00  BASE  2.2932   68   2.75184  64   -6.4  96    -7.0  0     0     1003.0   NA       0.0000   9999     0     0     0    
2019/07/05  05:03:00  BASE  2.352    69   2.75184  64   -6.4  96    -6.9  0     0     1003.0   NA       0.0000   9999     0     0     0    
2019/07/05  05:04:00  BASE  2.47548  67   2.93412  63   -6.4  96    -6.9  0     0     1003.0   NA       0.0000   9999     0     0     0    
2019/07/05  05:05:00  BASE  2.57544  68   2.93412  63   -6.3  96    -6.9  0     0     1002.9   NA       0.0000   9999     0     0     0    
2019/07/05  05:06:00  BASE  2.5872   67   2.96352  61   -6.3  96    -6.9  0     0     1003.0   NA       0.0000   9999     0     0     0    
2019/07/05  05:07:00  BASE  2.56956  65   2.96352  61   -6.4  96    -6.9  0     0     1002.9   NA       0.0000   9999     0     0     0    
2019/07/05  05:08:00  BASE  2.59896  67   2.96352  61   -6.4  96    -6.9  0     0     1002.9   NA       0.0000   9999     0     0     0    
2019/07/05  05:09:00  BASE  2.63424  68   3.234    58   -6.3  96    -6.9  0     0     1002.9   NA       0.0000   9999     0     0     0    
2019/07/05  05:10:00  BASE  2.63424  71   3.234    58   -6.3  96    -6.9  0     0     1002.9   NA       0.0000   9999     0     0     0    
2019/07/05  05:11:00  BASE  2.7342   69   3.234    66   -6.3  96    -6.8  0     0     1003.0   NA       0.0000   9999     0     0     0    
2019/07/05  05:12:00  BASE  2.82828  65   3.234    66   -6.3  96    -6.8  0     0     1003.0   NA       0.0000   9999     0     0     0    
2019/07/05  05:13:00  BASE  2.80476  61   3.234    66   -6.2  96    -6.8  0     0     1003.0   NA       0.0000   9999     0     0     0    
2019/07/05  05:14:00  BASE  2.92236  61   3.29868  62   -6.2  96    -6.8  0     0     1003.0   NA       0.0000   9999     0     0     0    
2019/07/05  05:15:00  BASE  2.98116  62   3.29868  62   -6.2  96    -6.7  0     0     1003.0   NA       0.0000   9999     0     0     0    
2019/07/05  05:16:00  BASE  2.78712  63   3.29868  62   -6.1  96    -6.7  0     0     1003.0   NA       0.0000   9999     0     0     0    
2019/07/05  05:17:00  BASE  2.75772  61   3.29868  62   -6.1  96    -6.6  0     0     1002.9   NA       0.0000   9999     0     0     0    
2019/07/05  05:18:00  BASE  2.8518   60   3.29868  62   -6.1  96    -6.7  0     0     1003.0   NA       0.0000   9999     0     0     0    
2019/07/05  05:19:00  BASE  2.7342   62   3.29868  62   -6.2  96    -6.7  0     0     1003.0   NA       0.0000   9999     0     0     0    
2019/07/05  05:20:00  BASE  2.58132  61   3.29868  62   -6.2  96    -6.8  0     0     1003.0   NA       0.0000   9999     0     0     0    
2019/07/05  05:21:01  BASE  2.6166   61   3.29868  62   -6.2  96    -6.8  0     0     1003.0   NA       0.0000   9999     0     0     0    
2019/07/05  05:22:00  BASE  2.78124  63   3.29868  62   -6.3  96    -6.8  0     0     1003.0   NA       0.0000   9999     0     0     0    
2019/07/05  05:23:00  BASE  2.84004  64   3.29868  62   -6.3  96    -6.8  0     0     1003.0   NA       0.0000   9999     0     0     0    
2019/07/05  05:24:00  BASE  2.74596  63   3.234    63   -6.3  96    -6.8  0     0     1003.0   NA       0.0000   9999     0     0     0    
2019/07/05  05:25:00  BASE  2.7636   64   3.234    63   -6.3  96    -6.8  0     0     1003.0   NA       0.0000   9999     0     0     0    
2019/07/05  05:26:00  BASE  2.86944  67   3.234    63   -6.3  95    -6.9  0     0     1003.0   NA       0.0000   9999     0     0     0    
2019/07/05  05:27:00  BASE  2.93412  65   3.234    63   -6.3  95    -6.9  0     0     1003.0   NA       0.0000   9999     0     0     0    
2019/07/05  05:28:00  BASE  3.03996  65   3.48096  69   -6.3  95    -7.0  0     0     1003.0   NA       0.0000   9999     0     0     0    
2019/07/05  05:29:00  BASE  3.24576  66   3.48096  69   -6.3  95    -7.0  0     0     1003.0   NA       0.0000   9999     0     0     0    
2019/07/05  05:30:00  BASE  3.1164   65   3.48096  69   -6.3  95    -7.0  0     0     1003.0   NA       0.0000   9999     0     0     0    
2019/07/05  05:31:00  BASE  2.96352  66   3.48096  69   -6.4  95    -7.0  0     0     1003.0   NA       0.0000   9999     0     0     0    
2019/07/05  05:32:00  BASE  3.04584  66   3.48096  69   -6.4  95    -7.0  0     0     1003.0   NA       0.0000   9999     0     0     0    
2019/07/05  05:33:00  BASE  2.98704  66   3.48096  69   -6.4  95    -7.1  0     0     1003.0   NA       0.0000   9999     0     0     0    
2019/07/05  05:34:01  BASE  3.12816  64   3.53976  60   -6.4  95    -7.1  0     0     1003.0   NA       0.0000   9999     0     0     0    
2019/07/05  05:35:01  BASE  3.30456  64   3.69264  67   -6.4  95    -7.1  0     0     1003.0   NA       0.0000   9999     0     0     0    
2019/07/05  05:36:00  BASE  3.3222   67   3.69264  67   -6.4  95    -7.1  0     0     1003.0   NA       0.0000   9999     0     0     0    
2019/07/05  05:37:00  BASE  3.22224  69   3.69264  67   -6.4  95    -7.1  0     0     1003.0   NA       0.0000   9999     0     0     0    
2019/07/05  05:38:00  BASE  3.33984  69   3.86904  71   -6.4  95    -7.0  0     0     1003.0   NA       0.0000   9999     0     0     0    
2019/07/05  05:39:00  BASE  3.42804  71   3.86904  71   -6.4  95    -7.0  0     0     1003.0   NA       0.0000   9999     0     0     0    
2019/07/05  05:40:00  BASE  3.19872  71   3.86904  71   -6.4  95    -7.0  0     0     1003.0   NA       0.0000   9999     0     0     0    
2019/07/05  05:41:00  BASE  3.11052  72   3.86904  71   -6.4  95    -7.0  0     0     1003.0   NA       0.0000   9999     0     0     0    
2019/07/05  05:42:01  BASE  3.10464  73   3.86904  71   -6.4  95    -7.0  0     0     1003.0   NA       0.0000   9999     0     0     0    
2019/07/05  05:43:01  BASE  3.26928  70   3.86904  71   -6.3  95    -7.0  0     0     1003.0   NA       0.0000   9999     0     0     0    
2019/07/05  05:44:00  BASE  3.34572  68   3.86904  71   -6.3  95    -7.0  0     0     1003.0   NA       0.0000   9999     0     0     0    
2019/07/05  05:45:00  BASE  3.15168  69   3.86904  71   -6.3  95    -6.9  0     0     1003.0   NA       0.0000   9999     0     0     0    
2019/07/05  05:46:00  BASE  3.11052  69   3.86904  71   -6.3  95    -6.9  0     0     1003.0   NA       0.0000   9999     0     0     0    
2019/07/05  05:47:00  BASE  3.12228  71   3.86904  71   -6.2  95    -6.8  0     0     1003.0   NA       0.0000   9999     0     0     0    
2019/07/05  05:48:00  BASE  3.07524  70   3.59856  59   -6.2  95    -6.9  0     0     1003.0   NA       0.0000   9999     0     0     0    
2019/07/05  05:49:00  BASE  3.10464  68   3.59856  59   -6.2  95    -6.8  0     0     1003.0   NA       0.0000   9999     0     0     0    
2019/07/05  05:50:00  BASE  3.06348  70   3.59856  59   -6.1  95    -6.8  0     0     1002.9   NA       0.0000   9999     0     0     0    
2019/07/05  05:51:00  BASE  2.90472  68   3.59856  59   -6.2  95    -6.8  0     0     1002.9   NA       0.0000   9999     0     0     0    
2019/07/05  05:52:00  BASE  2.84004  69   3.59856  59   -6.2  95    -6.8  0     0     1002.9   NA       0.0000   9999     1610  0     0    
2019/07/05  05:53:00  BASE  2.74596  70   3.48096  72   -6.2  95    -6.8  0     0     1002.9   NA       0.0000   9999     1610  0     0    
2019/07/05  05:54:00  BASE  2.66364  68   3.48096  72   -6.2  95    -6.8  0     0     1002.9   NA       0.0000   9999     1570  0     0    
2019/07/05  05:55:00  BASE  2.80476  66   3.48096  72   -6.2  95    -6.8  0     0     1002.8   NA       0.0000   9999     1540  0     0    
2019/07/05  05:56:00  BASE  2.78124  65   3.29868  71   -6.1  95    -6.8  0     0     1002.8   NA       0.0000   9999     1570  0     0    
2019/07/05  05:57:00  BASE  2.68716  64   3.234    69   -6.1  95    -6.8  0     0     1002.8   NA       0.0000   9999     0     0     0    
2019/07/05  05:58:00  BASE  2.57544  63   3.234    69   -6.0  95    -6.7  0     0     1002.8   NA       0.0000   9999     0     0     0    
2019/07/05  05:59:00  BASE  2.39316  62   3.2046   69   -6.0  95    -6.7  0     0     1002.8   NA       0.0000   9999     0     0     0    
2019/07/05  06:00:00  BASE  2.28144  60   3.2046   69   -6.0  95    -6.6  0     0     1002.8   NA       0.0000   9999     0     0     0    
2019/07/05  06:01:00  BASE  2.32848  60   3.1458   65   -6.0  95    -6.6  0     0     1002.8   NA       0.0000   9999     0     0     0    
2019/07/05  06:02:00  BASE  2.4402   60   3.1458   65   -6.0  95    -6.7  0     0     1002.8   NA       0.0000   9999     0     0     0    
2019/07/05  06:03:00  BASE  2.45784  60   3.1458   65   -6.0  95    -6.7  0     0     1002.8   NA       0.0000   9999     0     0     0    
2019/07/05  06:04:00  BASE  2.60484  61   3.1458   65   -6.0  95    -6.7  0     0     1002.8   NA       0.0000   9999     0     0     0    
2019/07/05  06:05:00  BASE  2.5872   59   3.087    64   -6.1  95    -6.8  0     0     1002.8   NA       0.0000   9999     0     0     0    
2019/07/05  06:06:00  BASE  2.46372  59   3.087    64   -6.1  95    -6.8  0     0     1002.8   NA       0.0000   9999     0     0     0    
2019/07/05  06:07:00  BASE  2.51076  62   3.087    64   -6.1  94    -6.9  0     0     1002.8   NA       0.0000   9999     0     0     0    
2019/07/05  06:08:00  BASE  2.39904  61   3.087    64   -6.1  94    -6.9  0     0     1002.8   NA       0.0000   9999     0     0     0    
2019/07/05  06:09:00  BASE  2.2638   62   3.087    64   -6.2  94    -7.0  0     0     1002.8   NA       0.0000   9999     0     0     0    
2019/07/05  06:10:00  BASE  2.28144  65   3.087    64   -6.2  94    -7.0  0     0     1002.8   NA       0.0000   9999     0     0     0    
2019/07/05  06:11:00  BASE  2.36376  66   3.087    64   -6.2  94    -7.0  0     0     1002.8   NA       0.0000   9999     0     0     0    
2019/07/05  06:12:00  BASE  2.49312  66   3.087    64   -6.2  94    -7.0  0     0     1002.8   NA       0.0000   9999     0     0     0    
2019/07/05  06:13:00  BASE  2.56368  66   3.087    64   -6.2  94    -7.0  0     0     1002.8   NA       0.0000   9999     0     0     0    
2019/07/05  06:14:00  BASE  2.52252  67   2.75184  60   -6.2  94    -6.9  0     0     1002.8   NA       0.0000   9999     0     0     0    
2019/07/05  06:15:00  BASE  2.3814   68   2.75184  60   -6.2  94    -6.9  0     0     1002.8   NA       0.0000   9999     0     0     0    
2019/07/05  06:16:00  BASE  2.24616  67   2.75184  60   -6.1  95    -6.8  0     0     1002.8   NA       0.0000   9999     0     0     0    
2019/07/05  06:17:00  BASE  2.19324  66   2.63424  69   -6.1  95    -6.8  0     0     1002.8   NA       0.0000   9999     0     0     0    
2019/07/05  06:18:00  BASE  2.28732  66   2.63424  69   -6.1  95    -6.8  0     0     1002.8   NA       0.0000   9999     0     0     0    
2019/07/05  06:19:00  BASE  2.31672  65   2.63424  69   -6.0  94    -6.8  0     0     1002.8   NA       0.0000   9999     0     0     0    
2019/07/05  06:20:00  BASE  2.19324  65   2.63424  69   -6.0  94    -6.8  0     0     1002.8   NA       0.0000   9999     0     0     0    
2019/07/05  06:21:00  BASE  2.0286   67   2.63424  69   -6.0  94    -6.8  0     0     1002.9   NA       0.0000   9999     0     0     0    
2019/07/05  06:22:00  BASE  1.8522   69   2.63424  69   -6.1  94    -6.9  0     0     1002.9   NA       0.0000   9999     0     0     0    
2019/07/05  06:23:00  BASE  1.74048  71   2.63424  69   -6.1  94    -6.9  0     0     1002.9   NA       0.0000   9999     0     0     0    
2019/07/05  06:24:00  BASE  1.71696  70   2.54016  67   -6.1  94    -6.9  0     0     1002.9   NA       0.0000   9999     0     0     0    
2019/07/05  06:25:00  BASE  1.83456  67   2.54016  67   -6.1  94    -6.9  0     0     1002.9   NA       0.0000   9999     0     0     0    
2019/07/05  06:26:00  BASE  1.89336  66   2.54016  67   -6.1  94    -6.9  0     0     1002.9   NA       0.0000   9999     0     0     0    
2019/07/05  06:27:00  BASE  1.91688  67   2.54016  67   -6.0  94    -6.8  0     0     1002.9   NA       0.0000   9999     0     0     0    
2019/07/05  06:28:00  BASE  1.96392  69   2.35788  67   -6.0  94    -6.8  0     0     1002.9   NA       0.0000   9999     0     0     0    
2019/07/05  06:29:00  BASE  1.99332  70   2.24028  75   -6.0  94    -6.8  0     0     1002.9   NA       0.0000   9999     0     0     0    
2019/07/05  06:30:00  BASE  2.04036  70   2.29908  65   -6.0  94    -6.8  0     0     1002.8   NA       0.0000   9999     0     0     0    
2019/07/05  06:31:00  BASE  1.90512  72   2.29908  65   -6.0  94    -6.8  0     0     1002.8   NA       0.0000   9999     0     0     0    
2019/07/05  06:32:00  BASE  1.68756  80   2.29908  65   -5.9  94    -6.7  0     0     1002.8   NA       0.0000   9999     0     0     0    
2019/07/05  06:33:00  BASE  1.68168  89   2.29908  65   -5.9  94    -6.8  0     0     1002.8   NA       0.0000   9999     0     0     0    
2019/07/05  06:34:00  BASE  1.68756  93   2.29908  65   -6.0  94    -6.8  0     0     1002.8   NA       0.0000   9999     0     0     0    
2019/07/05  06:35:00  BASE  1.62876  91   2.29908  65   -6.0  94    -6.8  0     0     1002.8   NA       0.0000   9999     0     0     0    
2019/07/05  06:36:00  BASE  1.62288  88   2.29908  65   -5.9  93    -6.8  0     0     1002.8   NA       0.0000   9999     0     0     0    
2019/07/05  06:37:00  BASE  1.71696  86   2.29908  65   -5.9  93    -6.8  0     0     1002.8   NA       0.0000   9999     0     0     0    
2019/07/05  06:38:00  BASE  1.9404   86   2.29908  65   -5.8  93    -6.7  0     0     1002.8   NA       0.0000   9999     0     0     0    
2019/07/05  06:39:00  BASE  2.06388  87   2.29908  65   -5.7  93    -6.7  0     0     1002.8   NA       0.0000   9999     0     0     0    
2019/07/05  06:40:00  BASE  2.03448  85   2.29908  81   -5.7  93    -6.7  0     0     1002.8   NA       0.0000   9999     0     0     0    
2019/07/05  06:41:00  BASE  1.92276  82   2.29908  81   -5.8  93    -6.7  0     0     1002.8   NA       0.0000   9999     0     0     0    
2019/07/05  06:42:00  BASE  1.92276  81   2.29908  81   -5.8  93    -6.7  0     0     1002.8   NA       0.0000   9999     0     0     0    
2019/07/05  06:43:00  BASE  1.94628  82   2.29908  81   -5.8  93    -6.8  0     0     1002.8   NA       0.0000   9999     0     0     0    
2019/07/05  06:44:00  BASE  1.87572  81   2.29908  81   -5.8  93    -6.8  0     0     1002.8   NA       0.0000   9999     0     0     0    
2019/07/05  06:45:00  BASE  1.92276  78   2.29908  81   -5.8  92    -6.9  0     0     1002.8   NA       0.0000   9999     0     0     0    
2019/07/05  06:46:00  BASE  1.96392  79   2.29908  81   -5.8  92    -6.9  0     0     1002.8   NA       0.0000   9999     0     0     0    
2019/07/05  06:47:00  BASE  1.9698   79   2.29908  81   -5.8  92    -6.9  0     0     1002.8   NA       0.0000   9999     0     0     0    
2019/07/05  06:48:00  BASE  1.911    80   2.29908  81   -5.8  92    -6.9  0     0     1002.8   NA       0.0000   9999     0     0     0    
2019/07/05  06:49:00  BASE  1.74048  85   2.29908  81   -5.8  92    -6.9  0     0     1002.8   NA       0.0000   9999     0     0     0    
2019/07/05  06:50:00  BASE  1.66992  92   2.1462   83   -5.8  92    -6.9  0     0     1002.8   NA       0.0000   9999     0     0     0    
2019/07/05  06:51:00  BASE  1.74636  94   2.1462   83   -5.8  92    -6.9  0     0     1002.8   NA       0.0000   9999     0     0     0    
2019/07/05  06:52:00  BASE  1.764    90   2.1168   79   -5.8  92    -6.9  0     0     1002.8   NA       0.0000   9999     0     0     0    
2019/07/05  06:53:00  BASE  1.93452  86   2.69304  77   -5.8  92    -6.9  0     0     1002.8   NA       0.0000   9999     0     0     0    
2019/07/05  06:54:00  BASE  2.30496  82   2.69304  77   -5.8  92    -6.9  0     0     1002.8   NA       0.0000   9999     0     0     0    
2019/07/05  06:55:00  BASE  2.2638   82   2.69304  77   -5.8  92    -6.9  0     0     1002.8   NA       0.0000   9999     0     0     0    
2019/07/05  06:56:00  BASE  2.05212  87   2.69304  77   -5.8  92    -7.0  0     0     1002.8   NA       0.0000   9999     0     0     0    
2019/07/05  06:57:00  BASE  2.01096  89   2.69304  77   -5.9  92    -7.0  0     0     1002.8   NA       0.0000   9999     0     0     0    
2019/07/05  06:58:00  BASE  2.10504  90   2.69304  77   -5.9  91    -7.1  0     0     1002.8   NA       0.0000   9999     0     0     0    
2019/07/05  06:59:00  BASE  2.18736  91   2.69304  77   -5.9  91    -7.1  0     0     1002.8   NA       0.0000   9999     0     0     0    
2019/07/05  07:00:01  BASE  2.19912  92   2.69304  77   -5.9  91    -7.1  0     0     1002.8   NA       0.0000   9999     0     0     0    
2019/07/05  07:01:00  BASE  2.18736  91   2.69304  77   -6.0  91    -7.2  0     0     1002.8   NA       0.0000   9999     0     0     0    
2019/07/05  07:02:00  BASE  2.16972  90   2.69304  77   -6.0  91    -7.3  0     0     1002.8   NA       0.0000   9999     0     0     0    
2019/07/05  07:03:00  BASE  2.48136  88   2.93412  83   -6.1  91    -7.4  0     0     1002.7   NA       0.0000   9999     0     0     0    
2019/07/05  07:04:00  BASE  2.6754   86   2.93412  83   -6.2  90    -7.5  0     0     1002.7   NA       0.0000   9999     0     0     0    
2019/07/05  07:05:00  BASE  2.69892  86   2.99292  91   -6.3  90    -7.6  0     0     1002.7   NA       0.0000   9999     0     0     0    
2019/07/05  07:06:00  BASE  2.86944  87   3.48096  92   -6.3  90    -7.7  0     0     1002.7   NA       0.0000   9999     0     0     0    
2019/07/05  07:07:00  BASE  2.7342   86   3.48096  92   -6.3  90    -7.7  0     0     1002.7   NA       0.0000   9999     0     0     0    
2019/07/05  07:08:00  BASE  2.39904  90   3.48096  92   -6.3  90    -7.7  0     0     1002.7   NA       0.0000   9999     0     0     0    
2019/07/05  07:09:00  BASE  2.21676  93   3.48096  92   -6.3  90    -7.7  0     0     1002.7   NA       0.0000   9999     0     0     0    
2019/07/05  07:10:00  BASE  2.21088  87   3.48096  92   -6.2  90    -7.6  0     0     1002.7   NA       0.0000   9999     0     0     0    
2019/07/05  07:11:00  BASE  2.21088  85   3.48096  92   -6.2  90    -7.5  0     0     1002.7   NA       0.0000   9999     0     0     0    
2019/07/05  07:12:00  BASE  2.1756   87   3.48096  92   -6.1  90    -7.5  0     0     1002.7   NA       0.0000   9999     0     0     0    
2019/07/05  07:13:00  BASE  2.25792  86   3.48096  92   -6.1  90    -7.5  0     0     1002.7   NA       0.0000   9999     0     0     0    
2019/07/05  07:14:00  BASE  2.24616  81   3.48096  92   -6.0  90    -7.4  0     0     1002.7   NA       0.0000   9999     0     0     0    
2019/07/05  07:15:00  BASE  2.21676  81   3.48096  92   -6.0  89    -7.5  0     0     1002.7   NA       0.0000   9999     0     0     0    
2019/07/05  07:16:00  BASE  2.28732  81   2.66364  86   -6.0  89    -7.6  0     0     1002.6   NA       0.0000   9999     0     0     0    
2019/07/05  07:17:00  BASE  2.42844  82   2.81064  83   -6.1  89    -7.6  0     0     1002.6   NA       0.0000   9999     0     0     0    
2019/07/05  07:18:00  BASE  2.39316  86   2.81064  83   -6.1  89    -7.7  0     0     1002.6   NA       0.0000   9999     0     0     0    
2019/07/05  07:19:00  BASE  2.22264  91   2.81064  83   -6.1  89    -7.7  0     0     1002.5   NA       0.0000   9999     0     0     0    
2019/07/05  07:20:00  BASE  2.28144  87   2.81064  83   -6.2  88    -7.8  0     0     1002.5   NA       0.0000   9999     0     0     0    
2019/07/05  07:21:00  BASE  2.5284   81   2.81064  73   -6.2  89    -7.8  0     0     1002.5   NA       0.0000   9999     0     0     0    
2019/07/05  07:22:00  BASE  2.44608  79   2.81064  73   -6.2  89    -7.7  0     0     1002.5   NA       0.0000   9999     0     0     0    
2019/07/05  07:23:00  BASE  2.07564  85   2.81064  73   -6.1  89    -7.7  0     0     1002.5   NA       0.0000   9999     0     0     0    
2019/07/05  07:24:00  BASE  1.79928  89   2.81064  73   -6.1  89    -7.6  0     0     1002.5   NA       0.0000   9999     0     0     0    
2019/07/05  07:25:00  BASE  1.59348  89   2.81064  73   -5.9  89    -7.4  0     0     1002.5   NA       0.0000   9999     0     0     0    
2019/07/05  07:26:00  BASE  1.52292  84   2.81064  73   -5.8  89    -7.4  0     0     1002.6   NA       0.0000   9999     0     0     0    
2019/07/05  07:27:00  BASE  1.4406   80   2.81064  73   -5.8  89    -7.4  0     0     1002.6   NA       0.0000   9999     0     0     0    
2019/07/05  07:28:00  BASE  1.19364  83   2.81064  73   -5.7  88    -7.3  0     0     1002.6   NA       0.0000   9999     0     0     0    
2019/07/05  07:29:00  BASE  1.19364  78   2.81064  73   -5.7  88    -7.3  0     0     1002.6   NA       0.0000   9999     0     0     0    
2019/07/05  07:30:00  BASE  1.3524   69   2.81064  73   -5.7  88    -7.4  0     0     1002.6   NA       0.0000   9999     0     0     0    
2019/07/05  07:31:00  BASE  1.4112   64   2.56956  75   -5.7  88    -7.5  0     0     1002.6   NA       0.0000   9999     0     0     0    
2019/07/05  07:32:00  BASE  1.7052   56   2.26968  88   -5.7  87    -7.5  0     0     1002.6   NA       0.0000   9999     0     0     0    
2019/07/05  07:33:00  BASE  1.86396  51   2.0874   51   -5.8  87    -7.6  0     0     1002.7   NA       0.0000   9999     0     0     0    
2019/07/05  07:34:00  BASE  1.80516  51   2.0874   51   -5.8  87    -7.6  0     0     1002.7   NA       0.0000   9999     0     0     0    
2019/07/05  07:35:00  BASE  1.78752  52   2.0874   51   -5.9  87    -7.7  0     0     1002.7   NA       0.0000   9999     0     0     0    
2019/07/05  07:36:00  BASE  1.81104  53   2.0874   51   -5.9  87    -7.7  0     0     1002.7   NA       0.0000   9999     0     0     0    
2019/07/05  07:37:00  BASE  1.911    54   2.0874   52   -6.0  87    -7.8  0     0     1002.7   NA       0.0000   9999     0     0     0    
2019/07/05  07:38:00  BASE  1.911    55   2.0874   52   -6.0  87    -7.8  0     0     1002.7   NA       0.0000   9999     0     0     0    
2019/07/05  07:39:00  BASE  1.78752  57   2.0874   52   -6.0  87    -7.8  0     0     1002.7   NA       0.0000   9999     0     0     0    
2019/07/05  07:40:00  BASE  1.71108  57   2.0874   52   -6.0  87    -7.8  0     0     1002.8   NA       0.0000   9999     0     0     0    
2019/07/05  07:41:00  BASE  1.68756  55   2.0874   52   -6.0  87    -7.8  0     0     1002.8   NA       0.0000   9999     0     0     0    
2019/07/05  07:42:00  BASE  1.58172  54   2.0874   52   -6.0  87    -7.8  0     0     1002.8   NA       0.0000   9999     0     0     0    
2019/07/05  07:43:00  BASE  1.42296  53   2.0874   52   -6.0  87    -7.8  0     0     1002.8   NA       0.0000   9999     0     0     0    
2019/07/05  07:44:00  BASE  1.21716  58   2.0874   52   -5.9  87    -7.8  0     0     1002.8   NA       0.0000   9999     0     0     0    
2019/07/05  07:45:00  BASE  0.97608  64   2.0874   52   -5.9  87    -7.7  0     0     1002.8   NA       0.0000   9999     0     0     0    
2019/07/05  07:46:00  BASE  0.89964  63   2.0874   52   -5.9  87    -7.7  0     0     1002.8   NA       0.0000   9999     0     0     0    
2019/07/05  07:47:00  BASE  0.84672  57   1.93452  54   -5.8  87    -7.6  0     0     1002.8   NA       0.0000   9999     0     0     0    
2019/07/05  07:48:00  BASE  0.8526   46   1.90512  62   -5.7  87    -7.6  0     0     1002.8   NA       0.0000   9999     0     0     0    
2019/07/05  07:49:00  BASE  0.87612  36   1.81692  53   -5.7  87    -7.6  0     0     1002.8   NA       0.0000   9999     0     0     0    
2019/07/05  07:50:00  BASE  0.84672  27   1.81692  53   -5.7  86    -7.6  0     0     1002.8   NA       0.0000   9999     0     0     0    
2019/07/05  07:51:00  BASE  0.89376  17   1.63464  52   -5.7  86    -7.7  0     0     1002.8   NA       0.0000   9999     0     0     0    
2019/07/05  07:52:00  BASE  0.90552  13   1.42296  49   -5.8  86    -7.8  0     0     1002.9   NA       0.0000   9999     0     0     0    
2019/07/05  07:53:00  BASE  0.98196  17   1.29948  64   -5.8  86    -7.8  0     0     1002.9   NA       0.0000   9999     0     0     0    
2019/07/05  07:54:00  BASE  1.07016  26   1.1466   12   -5.9  86    -7.8  0     0     1002.9   NA       0.0000   9999     0     0     0    
2019/07/05  07:55:00  BASE  1.13484  35   1.29948  39   -5.9  86    -7.9  0     0     1002.9   NA       0.0000   9999     0     0     0    
2019/07/05  07:56:00  BASE  1.21716  38   1.35828  41   -5.9  86    -7.9  0     0     1002.8   NA       0.0000   9999     0     0     0    
2019/07/05  07:57:00  BASE  1.19952  39   1.35828  41   -5.9  86    -7.8  0     0     1002.8   NA       0.0000   9999     0     0     0    
2019/07/05  07:58:00  BASE  1.11132  41   1.35828  41   -5.8  86    -7.8  0     0     1002.8   NA       0.0000   9999     0     0     0    
2019/07/05  07:59:00  BASE  1.01136  36   1.35828  41   -5.8  86    -7.8  0     0     1002.8   NA       0.0000   9999     0     0     0    
2019/07/05  08:00:00  BASE  0.9702   24   1.35828  41   -5.8  86    -7.8  0     0     1002.8   NA       0.0000   9999     0     0     0    
2019/07/05  08:01:00  BASE  0.9702   16   1.35828  41   -5.8  86    -7.8  0     0     1002.8   NA       0.0000   9999     0     0     0    
2019/07/05  08:02:00  BASE  0.94668  16   1.35828  41   -5.8  86    -7.8  0     0     1002.8   NA       0.0000   9999     0     0     0    
2019/07/05  08:03:00  BASE  0.9408   21   1.35828  41   -5.9  86    -7.8  0     0     1002.8   NA       0.0000   9999     0     0     0    
2019/07/05  08:04:00  BASE  0.99372  22   1.35828  41   -5.9  86    -7.8  0     0     1002.8   NA       0.0000   9999     0     0     0    
2019/07/05  08:05:00  BASE  1.0878   19   1.35828  41   -5.9  86    -7.8  0     0     1002.8   NA       0.0000   9999     0     0     0    
2019/07/05  08:06:00  BASE  1.24068  22   1.45236  27   -5.9  86    -7.8  0     0     1002.8   NA       0.0000   9999     0     0     0    
2019/07/05  08:07:00  BASE  1.38768  27   1.51116  27   -5.9  87    -7.8  0     0     1002.8   NA       0.0000   9999     0     0     0    
2019/07/05  08:08:00  BASE  1.48764  30   1.69344  33   -5.9  87    -7.8  0     0     1002.8   NA       0.0000   9999     0     0     0    
2019/07/05  08:09:00  BASE  1.62288  32   1.84632  36   -5.9  87    -7.7  0     0     1002.8   NA       0.0000   9999     0     0     0    
2019/07/05  08:10:00  BASE  1.72284  33   1.84632  36   -6.0  87    -7.7  0     0     1002.8   NA       0.0000   9999     0     0     0    
2019/07/05  08:11:00  BASE  1.78752  36   1.84632  41   -6.0  87    -7.7  0     0     1002.8   NA       0.0000   9999     0     0     0    
2019/07/05  08:12:00  BASE  1.84632  39   1.90512  39   -6.0  88    -7.8  0     0     1002.8   NA       0.0000   9999     0     0     0    
2019/07/05  08:13:00  BASE  1.83456  40   1.93452  43   -6.1  88    -7.8  0     0     1002.8   NA       0.0000   9999     0     0     0    
2019/07/05  08:14:00  BASE  1.78752  40   1.93452  43   -6.1  88    -7.7  0     0     1002.8   NA       0.0000   9999     0     0     0    
2019/07/05  08:15:00  BASE  1.77576  38   1.93452  43   -6.1  88    -7.7  0     0     1002.8   NA       0.0000   9999     0     0     0    
2019/07/05  08:16:00  BASE  1.77576  36   1.93452  43   -6.1  89    -7.7  0     0     1002.8   NA       0.0000   9999     0     0     0    
2019/07/05  08:17:00  BASE  1.71108  34   1.93452  43   -6.1  89    -7.7  0     0     1002.8   NA       0.0000   9999     0     0     0    
2019/07/05  08:18:00  BASE  1.57584  32   1.93452  43   -6.1  89    -7.6  0     0     1002.8   NA       0.0000   9999     0     0     0    
2019/07/05  08:19:00  BASE  1.5582   30   1.93452  43   -6.1  90    -7.5  0     0     1002.8   NA       0.0000   9999     0     0     0    
2019/07/05  08:20:00  BASE  1.617    29   1.93452  43   -6.1  90    -7.5  0     0     1002.8   NA       0.0000   9999     0     0     0    
2019/07/05  08:21:00  BASE  1.72284  30   1.93452  43   -6.1  91    -7.4  0     0     1002.8   NA       0.0000   9999     0     0     0    
2019/07/05  08:22:00  BASE  1.81104  30   2.058    32   -6.1  91    -7.3  0     0     1002.8   NA       0.0000   9999     0     0     0    
2019/07/05  08:23:00  BASE  1.764    34   2.058    32   -6.1  91    -7.3  0     0     1002.8   NA       0.0000   9999     0     0     0    
2019/07/05  08:24:00  BASE  1.7346   39   2.058    32   -6.1  92    -7.2  0     0     1002.8   NA       0.0000   9999     0     0     0    
2019/07/05  08:25:00  BASE  1.81692  42   2.058    32   -6.1  92    -7.2  0     0     1002.8   NA       0.0000   9999     0     0     0    
2019/07/05  08:26:00  BASE  1.90512  43   2.058    32   -6.1  92    -7.2  0     0     1002.8   NA       0.0000   9999     0     0     0    
2019/07/05  08:27:00  BASE  1.9698   43   2.1462   47   -6.2  92    -7.3  0     0     1002.8   NA       0.0000   9999     0     0     0    
2019/07/05  08:28:00  BASE  1.9698   44   2.1462   47   -6.2  92    -7.3  0     0     1002.8   NA       0.0000   9999     0     0     0    
2019/07/05  08:29:00  BASE  1.92864  43   2.1462   47   -6.2  92    -7.3  0     0     1002.8   NA       0.0000   9999     0     0     0    
2019/07/05  08:30:00  BASE  1.87572  41   2.1462   47   -6.2  92    -7.3  0     0     1002.8   NA       0.0000   9999     0     0     0    
2019/07/05  08:31:00  BASE  1.84632  44   2.1462   47   -6.2  92    -7.3  0     0     1002.8   NA       0.0000   9999     0     0     0    
2019/07/05  08:32:00  BASE  1.95804  49   2.1462   47   -6.2  92    -7.3  0     0     1002.8   NA       0.0000   9999     0     0     0    
2019/07/05  08:33:00  BASE  2.058    50   2.24028  51   -6.2  92    -7.3  0     0     1002.8   NA       0.0000   9999     0     0     0    
2019/07/05  08:34:00  BASE  2.13444  53   2.29908  50   -6.3  92    -7.3  0     0     1002.8   NA       0.0000   9999     0     0     0    
2019/07/05  08:35:00  BASE  2.16972  53   2.29908  50   -6.3  92    -7.4  0     0     1002.8   NA       0.0000   9999     0     0     0    
2019/07/05  08:36:00  BASE  2.13444  53   2.29908  50   -6.3  92    -7.4  0     0     1002.8   NA       0.0000   9999     0     0     0    
2019/07/05  08:37:00  BASE  2.16384  54   2.29908  49   -6.3  92    -7.4  0     0     1002.8   NA       0.0000   9999     0     0     0    
2019/07/05  08:38:00  BASE  2.24616  52   2.42256  52   -6.3  91    -7.4  0     0     1002.8   NA       0.0000   9999     0     0     0    
2019/07/05  08:39:00  BASE  2.21676  54   2.42256  52   -6.2  91    -7.4  0     0     1002.8   NA       0.0000   9999     0     0     0    
2019/07/05  08:40:00  BASE  2.16384  56   2.42256  52   -6.2  91    -7.4  0     0     1002.8   NA       0.0000   9999     0     0     0    
2019/07/05  08:41:00  BASE  2.205    57   2.42256  52   -6.2  91    -7.4  0     0     1002.8   NA       0.0000   9999     0     0     0    
2019/07/05  08:42:00  BASE  2.25792  57   2.42256  52   -6.1  91    -7.3  0     0     1002.8   NA       0.0000   9999     0     0     0    
2019/07/05  08:43:00  BASE  2.25792  55   2.42256  52   -6.0  91    -7.3  0     0     1002.8   NA       0.0000   9999     0     0     0    
2019/07/05  08:44:00  BASE  2.15208  54   2.42256  52   -6.0  91    -7.3  0     0     1002.8   NA       0.0000   9999     0     0     0    
2019/07/05  08:45:00  BASE  2.02272  56   2.42256  52   -5.9  90    -7.3  0     0     1002.8   NA       0.0000   9999     0     0     0    
2019/07/05  08:46:00  BASE  1.81692  58   2.42256  52   -5.9  90    -7.2  0     0     1002.8   NA       0.0000   9999     0     0     0    
2019/07/05  08:47:00  BASE  1.63464  60   2.42256  52   -5.9  90    -7.3  0     0     1002.8   NA       0.0000   9999     0     0     0    
2019/07/05  08:48:00  BASE  1.60524  61   2.35788  57   -5.8  90    -7.3  0     0     1002.8   NA       0.0000   9999     0     0     0    
2019/07/05  08:49:00  BASE  1.51116  59   2.35788  57   -5.8  89    -7.3  0     0     1002.8   NA       0.0000   9999     0     0     0    
2019/07/05  08:50:00  BASE  1.37592  56   2.35788  57   -5.7  89    -7.3  0     0     1002.8   NA       0.0000   9999     0     0     0    
2019/07/05  08:51:00  BASE  1.35828  55   2.32848  56   -5.7  89    -7.3  0     0     1002.8   NA       0.0000   9999     0     0     0    
2019/07/05  08:52:00  BASE  1.47     53   2.29908  55   -5.7  88    -7.3  0     0     1002.8   NA       0.0000   9999     0     0     0    
2019/07/05  08:53:00  BASE  1.71696  51   2.1756   56   -5.7  88    -7.3  0     0     1002.8   NA       0.0000   9999     0     0     0    
2019/07/05  08:54:00  BASE  1.9992   50   2.24028  45   -5.7  88    -7.4  0     0     1002.8   NA       0.0000   9999     0     0     0    
2019/07/05  08:55:00  BASE  2.12856  50   2.29908  53   -5.7  87    -7.5  0     0     1002.8   NA       0.0000   9999     0     0     0    
2019/07/05  08:56:00  BASE  2.14032  54   2.29908  53   -5.7  87    -7.6  0     0     1002.8   NA       0.0000   9999     0     0     0    
2019/07/05  08:57:00  BASE  2.05212  60   2.29908  53   -5.8  86    -7.7  0     0     1002.8   NA       0.0000   9999     0     0     0    
2019/07/05  08:58:00  BASE  1.86984  65   2.29908  53   -5.8  86    -7.7  0     0     1002.8   NA       0.0000   9999     0     0     0    
2019/07/05  08:59:00  BASE  1.66404  69   2.29908  53   -5.9  86    -7.8  0     0     1002.9   NA       0.0000   9999     0     0     0    
2019/07/05  09:00:00  BASE  1.5288   78   2.29908  53   -5.9  86    -7.9  0     0     1002.9   NA       0.0000   9999     0     0     0    
2019/07/05  09:01:00  BASE  1.5876   91   2.29908  53   -5.9  86    -7.9  0     0     1002.9   NA       0.0000   9999     0     0     0    
2019/07/05  09:02:00  BASE  1.81104  103  2.29908  53   -5.9  85    -8.0  0     0     1002.9   NA       0.0000   9999     0     0     0    
2019/07/05  09:03:00  BASE  1.8522   108  2.29908  53   -5.8  85    -7.9  0     0     1002.9   NA       0.0000   9999     0     0     0    
2019/07/05  09:04:00  BASE  1.66404  106  2.29908  53   -5.7  85    -7.8  0     0     1002.9   NA       0.0000   9999     0     0     0    
2019/07/05  09:05:00  BASE  1.54644  105  2.21088  54   -5.6  85    -7.7  0     0     1003.0   NA       0.0000   9999     0     0     0    
2019/07/05  09:06:00  BASE  1.59348  104  2.058    64   -5.5  85    -7.6  0     0     1003.0   NA       0.0000   9999     0     0     0    
2019/07/05  09:07:00  BASE  1.49352  109  2.0286   106  -5.4  85    -7.5  0     0     1003.0   NA       0.0000   9999     0     0     0    
2019/07/05  09:08:00  BASE  1.37004  118  2.0286   106  -5.3  84    -7.5  0     0     1003.0   NA       0.0000   9999     0     0     0    
2019/07/05  09:09:00  BASE  1.39356  127  2.0286   106  -5.3  84    -7.6  0     0     1003.0   NA       0.0000   9999     0     0     0    
2019/07/05  09:10:00  BASE  1.34652  140  2.0286   106  -5.4  84    -7.7  0     0     1003.0   NA       0.0000   9999     0     0     0    
2019/07/05  09:11:00  BASE  1.24656  141  2.0286   106  -5.5  83    -7.9  0     0     1003.0   NA       0.0000   9999     0     0     0    
2019/07/05  09:12:00  BASE  1.2054   143  1.90512  106  -5.6  83    -7.9  0     0     1003.0   NA       0.0000   9999     0     0     0    
2019/07/05  09:13:00  BASE  1.08192  146  1.72284  100  -5.6  83    -8.0  0     0     1003.0   NA       0.0000   9999     0     0     0    
2019/07/05  09:14:00  BASE  0.91728  144  1.72284  100  -5.7  84    -8.0  0     0     1003.0   NA       0.0000   9999     0     0     0    
2019/07/05  09:15:00  BASE  0.89964  141  1.72284  100  -5.7  84    -8.0  0     0     1003.0   NA       0.0000   9999     0     0     0    
2019/07/05  09:16:00  BASE  0.88788  130  1.54056  134  -5.6  84    -7.9  0     0     1003.0   NA       0.0000   9999     0     0     0    
2019/07/05  09:17:00  BASE  0.82908  121  1.54056  134  -5.6  84    -7.8  0     0     1003.0   NA       0.0000   9999     0     0     0    
2019/07/05  09:18:00  BASE  0.80556  119  1.54056  134  -5.5  85    -7.7  0     0     1003.0   NA       0.0000   9999     0     0     0    
2019/07/05  09:19:00  BASE  0.81144  116  1.45236  138  -5.5  85    -7.6  0     0     1003.0   NA       0.0000   9999     0     0     0    
2019/07/05  09:20:00  BASE  0.77028  109  1.45236  138  -5.3  85    -7.5  0     0     1003.0   NA       0.0000   9999     0     0     0    
2019/07/05  09:21:00  BASE  0.77028  104  1.35828  143  -5.3  85    -7.4  0     0     1002.9   NA       0.0000   9999     0     0     0    
2019/07/05  09:22:00  BASE  0.8526   102  1.0584   135  -5.2  85    -7.4  0     0     1002.9   NA       0.0000   9999     0     0     0    
2019/07/05  09:23:00  BASE  0.91728  105  1.1172   102  -5.2  85    -7.3  0     0     1002.9   NA       0.0000   9999     0     0     0    
2019/07/05  09:24:00  BASE  0.96432  105  1.1172   102  -5.2  85    -7.3  0     0     1002.9   NA       0.0000   9999     0     0     0    
2019/07/05  09:25:00  BASE  1.05252  97   1.18188  91   -5.2  85    -7.3  0     0     1002.9   NA       0.0000   9999     0     0     0    
2019/07/05  09:26:00  BASE  1.24656  88   1.57584  83   -5.2  85    -7.3  0     0     1002.8   NA       0.0000   9999     0     0     0    
2019/07/05  09:27:00  BASE  1.34064  92   1.57584  83   -5.2  85    -7.3  0     0     1002.8   NA       0.0000   9999     0     0     0    
2019/07/05  09:28:00  BASE  1.10544  97   1.57584  83   -5.1  85    -7.3  0     0     1002.8   NA       0.0000   9999     0     0     0    
2019/07/05  09:29:00  BASE  0.87024  83   1.57584  83   -5.1  85    -7.3  0     0     1002.8   NA       0.0000   9999     0     0     0    
2019/07/05  09:30:00  BASE  0.89964  71   1.57584  83   -5.1  85    -7.2  0     0     1002.8   NA       0.0000   9999     0     0     0    
2019/07/05  09:31:00  BASE  1.0584   67   1.57584  83   -5.1  85    -7.2  0     0     1002.8   NA       0.0000   9999     0     0     0    
2019/07/05  09:32:00  BASE  1.15248  67   1.57584  83   -5.0  85    -7.2  0     0     1002.8   NA       0.0000   9999     0     0     0    
2019/07/05  09:33:00  BASE  1.00548  71   1.57584  83   -5.0  85    -7.2  0     0     1002.8   NA       0.0000   9999     0     0     0    
2019/07/05  09:34:00  BASE  1.13484  62   1.57584  53   -5.0  85    -7.2  0     0     1002.8   NA       0.0000   9999     0     0     0    
2019/07/05  09:35:00  BASE  1.44648  52   1.63464  47   -5.1  84    -7.3  0     0     1002.8   NA       0.0000   9999     0     0     0    
2019/07/05  09:36:00  BASE  1.54056  50   1.72284  54   -5.1  84    -7.4  0     0     1002.8   NA       0.0000   9999     0     0     0    
2019/07/05  09:37:00  BASE  1.54056  48   1.72284  54   -5.2  84    -7.5  0     0     1002.8   NA       0.0000   9999     0     0     0    
2019/07/05  09:38:00  BASE  1.52292  46   1.72284  54   -5.3  84    -7.5  0     0     1002.8   NA       0.0000   9999     0     0     0    
2019/07/05  09:39:00  BASE  1.56408  45   1.72284  54   -5.4  84    -7.6  0     0     1002.8   NA       0.0000   9999     0     0     0    
2019/07/05  09:40:00  BASE  1.49352  43   1.72284  54   -5.4  85    -7.6  0     0     1002.8   NA       0.0000   9999     0     0     0    
2019/07/05  09:41:00  BASE  1.32888  41   1.72284  54   -5.4  85    -7.6  0     0     1002.8   NA       0.0000   9999     0     0     0    
2019/07/05  09:42:00  BASE  1.33476  44   1.72284  54   -5.4  85    -7.5  0     0     1002.8   NA       0.0000   9999     0     0     0    
2019/07/05  09:43:00  BASE  1.47588  48   1.72284  54   -5.4  86    -7.5  0     0     1002.7   NA       0.0000   9999     0     0     0    
2019/07/05  09:44:00  BASE  1.56408  49   1.72284  54   -5.4  86    -7.4  0     0     1002.7   NA       0.0000   9999     0     0     0    
2019/07/05  09:45:00  BASE  1.50528  51   1.72284  54   -5.4  86    -7.4  0     0     1002.7   NA       0.0000   9999     0     0     0    
2019/07/05  09:46:00  BASE  1.48764  53   1.69344  54   -5.4  86    -7.4  0     0     1002.7   NA       0.0000   9999     0     0     0    
2019/07/05  09:47:00  BASE  1.5288   53   1.75224  52   -5.5  86    -7.4  0     0     1002.7   NA       0.0000   9999     0     0     0    
2019/07/05  09:48:00  BASE  1.72872  49   2.058    46   -5.5  86    -7.4  0     0     1002.7   NA       0.0000   9999     0     0     0    
2019/07/05  09:49:00  BASE  1.92276  49   2.0874   47   -5.5  87    -7.4  0     0     1002.7   NA       0.0000   9999     0     0     0    
2019/07/05  09:50:00  BASE  1.85808  51   2.0874   47   -5.5  87    -7.3  0     0     1002.7   NA       0.0000   9999     0     0     0    
2019/07/05  09:51:00  BASE  1.87572  51   2.1168   58   -5.5  87    -7.3  0     0     1002.7   NA       0.0000   9999     0     0     0    
2019/07/05  09:52:00  BASE  1.97568  48   2.1756   48   -5.5  87    -7.3  0     0     1002.7   NA       0.0000   9999     0     0     0    
2019/07/05  09:53:00  BASE  1.97568  47   2.1756   48   -5.5  87    -7.4  0     0     1002.7   NA       0.0000   9999     0     0     0    
2019/07/05  09:54:00  BASE  1.94628  48   2.1756   44   -5.6  87    -7.3  0     0     1002.7   NA       0.0000   9999     0     0     0    
2019/07/05  09:55:00  BASE  1.9698   49   2.1756   44   -5.6  87    -7.3  0     0     1002.6   NA       0.0000   9999     0     0     0    
2019/07/05  09:56:00  BASE  1.99332  48   2.1756   44   -5.6  88    -7.3  0     0     1002.6   NA       0.0000   9999     0     0     0    
2019/07/05  09:57:00  BASE  1.97568  46   2.1756   44   -5.6  88    -7.3  0     0     1002.6   NA       0.0000   9999     0     0     0    
2019/07/05  09:58:00  BASE  2.00508  46   2.1756   44   -5.6  88    -7.3  0     0     1002.6   NA       0.0000   9999     0     0     0    
2019/07/05  09:59:00  BASE  2.01096  48   2.1756   44   -5.7  88    -7.3  0     0     1002.5   NA       0.0000   9999     0     0     0    
2019/07/05  10:00:00  BASE  1.97568  51   2.1756   44   -5.7  88    -7.3  0     0     1002.6   NA       0.0000   9999     0     0     0    
2019/07/05  10:01:00  BASE  1.92864  52   2.1756   44   -5.7  88    -7.3  0     0     1002.6   NA       0.0000   9999     0     0     0    
2019/07/05  10:02:00  BASE  1.91688  52   2.21088  47   -5.7  89    -7.3  0     0     1002.6   NA       0.0000   9999     0     0     0    
2019/07/05  10:03:00  BASE  2.01684  48   2.45196  47   -5.8  89    -7.3  0     0     1002.6   NA       0.0000   9999     0     0     0    
2019/07/05  10:04:00  BASE  1.93452  43   2.45196  47   -5.8  89    -7.3  0     0     1002.6   NA       0.0000   9999     0     0     0    
2019/07/05  10:05:00  BASE  1.78752  45   2.45196  47   -5.8  89    -7.3  0     0     1002.6   NA       0.0000   9999     0     0     0    
2019/07/05  10:06:00  BASE  1.85808  47   2.45196  47   -5.8  89    -7.3  0     0     1002.6   NA       0.0000   9999     0     0     0    
2019/07/05  10:07:00  BASE  1.94628  44   2.45196  47   -5.9  90    -7.3  0     0     1002.6   NA       0.0000   9999     0     0     0    
2019/07/05  10:08:00  BASE  1.91688  43   2.45196  47   -5.9  90    -7.3  0     0     1002.6   NA       0.0000   9999     0     0     0    
2019/07/05  10:09:00  BASE  1.84632  41   2.45196  47   -5.9  90    -7.3  0     0     1002.6   NA       0.0000   9999     0     0     0    
2019/07/05  10:10:00  BASE  1.74636  39   2.45196  47   -5.9  90    -7.3  0     0     1002.6   NA       0.0000   9999     0     0     0    
2019/07/05  10:11:00  BASE  1.68168  33   2.45196  47   -5.9  90    -7.3  0     0     1002.6   NA       0.0000   9999     0     0     0    
2019/07/05  10:12:00  BASE  1.51116  26   2.45196  47   -5.9  90    -7.3  0     0     1002.5   NA       0.0000   9999     0     0     0    
2019/07/05  10:13:00  BASE  1.3524   26   2.21088  48   -6.0  90    -7.3  0     0     1002.5   NA       0.0000   9999     0     0     0    
2019/07/05  10:14:00  BASE  1.33476  26   2.21088  48   -6.0  91    -7.3  0     0     1002.6   NA       0.0000   9999     0     0     0    
2019/07/05  10:15:00  BASE  1.36416  28   2.21088  48   -6.0  91    -7.2  0     0     1002.5   NA       0.0000   9999     0     0     0    
2019/07/05  10:16:00  BASE  1.42296  34   2.1168   40   -6.0  91    -7.2  0     0     1002.5   NA       0.0000   9999     0     0     0    
2019/07/05  10:17:00  BASE  1.43472  41   1.96392  41   -5.9  91    -7.2  0     0     1002.5   NA       0.0000   9999     0     0     0    
2019/07/05  10:18:00  BASE  1.50528  45   1.96392  41   -5.9  91    -7.2  0     0     1002.5   NA       0.0000   9999     0     0     0    
2019/07/05  10:19:00  BASE  1.77576  40   2.29908  40   -6.0  91    -7.2  0     0     1002.5   NA       0.0000   9999     0     0     0    
2019/07/05  10:20:00  BASE  1.90512  37   2.29908  40   -6.1  91    -7.3  0     0     1002.5   NA       0.0000   9999     0     0     0    
2019/07/05  10:21:00  BASE  1.72872  36   2.29908  40   -6.1  91    -7.4  0     0     1002.5   NA       0.0000   9999     0     0     0    
2019/07/05  10:22:00  BASE  1.65228  35   2.29908  40   -6.2  91    -7.4  0     0     1002.5   NA       0.0000   9999     0     0     0    
2019/07/05  10:23:00  BASE  1.84044  38   2.29908  40   -6.2  91    -7.4  0     0     1002.5   NA       0.0000   9999     0     0     0    
2019/07/05  10:24:00  BASE  1.85808  41   2.29908  40   -6.2  91    -7.3  0     0     1002.5   NA       0.0000   9999     0     0     0    
2019/07/05  10:25:00  BASE  1.62288  44   2.29908  40   -6.1  92    -7.3  0     0     1002.6   NA       0.0000   9999     0     0     0    
2019/07/05  10:26:00  BASE  1.52292  42   2.29908  40   -6.1  92    -7.2  0     0     1002.6   NA       0.0000   9999     0     0     0    
2019/07/05  10:27:00  BASE  1.54056  38   2.29908  40   -6.1  92    -7.2  0     0     1002.6   NA       0.0000   9999     0     0     0    
2019/07/05  10:28:00  BASE  1.65816  34   2.29908  40   -6.1  92    -7.2  0     0     1002.6   NA       0.0000   9999     0     0     0    
2019/07/05  10:29:00  BASE  1.74048  34   2.21088  38   -6.1  92    -7.2  0     0     1002.6   NA       0.0000   9999     0     0     0    
2019/07/05  10:30:00  BASE  1.69932  35   2.21088  38   -6.1  91    -7.3  0     0     1002.6   NA       0.0000   9999     0     0     0    
2019/07/05  10:31:00  BASE  1.58172  34   2.21088  38   -6.2  91    -7.4  0     0     1002.7   NA       0.0000   9999     0     0     0    
2019/07/05  10:32:00  BASE  1.55232  37   2.21088  38   -6.2  91    -7.4  0     0     1002.7   NA       0.0000   9999     0     0     0    
2019/07/05  10:33:00  BASE  1.56996  42   1.84632  43   -6.2  91    -7.4  0     0     1002.7   NA       0.0000   9999     0     0     0    
2019/07/05  10:34:00  BASE  1.44648  43   1.81692  35   -6.1  91    -7.4  0     0     1002.7   NA       0.0000   9999     0     0     0    
2019/07/05  10:35:00  BASE  1.44648  43   1.81692  35   -6.1  91    -7.4  0     0     1002.7   NA       0.0000   9999     0     0     0    
2019/07/05  10:36:00  BASE  1.61112  42   1.90512  44   -6.1  91    -7.3  0     0     1002.7   NA       0.0000   9999     0     0     0    
2019/07/05  10:37:00  BASE  1.72284  44   1.90512  44   -6.1  91    -7.3  0     0     1002.8   NA       0.0000   9999     0     0     0    
2019/07/05  10:38:00  BASE  1.75224  47   1.93452  48   -6.1  91    -7.3  0     0     1002.7   NA       0.0000   9999     0     0     0    
2019/07/05  10:39:00  BASE  1.80516  49   1.9992   53   -6.1  91    -7.3  0     0     1002.7   NA       0.0000   9999     0     0     0    
2019/07/05  10:40:00  BASE  1.9404   47   2.0874   48   -6.0  91    -7.3  0     0     1002.8   NA       0.0000   9999     0     0     0    
2019/07/05  10:41:00  BASE  2.00508  45   2.1462   49   -6.0  91    -7.2  0     0     1002.8   NA       0.0000   9999     0     0     0    
2019/07/05  10:42:00  BASE  1.79928  46   2.1462   49   -6.0  91    -7.2  0     0     1002.7   NA       0.0000   9999     0     0     0    
2019/07/05  10:43:00  BASE  1.66992  44   2.1462   49   -6.0  91    -7.3  0     0     1002.7   NA       0.0000   9999     0     0     0    
2019/07/05  10:44:00  BASE  1.76988  42   2.1462   49   -6.0  91    -7.3  0     0     1002.7   NA       0.0000   9999     0     0     0    
2019/07/05  10:45:00  BASE  1.78752  40   2.1462   49   -6.0  90    -7.4  0     0     1002.7   NA       0.0000   9999     0     0     0    
2019/07/05  10:46:00  BASE  1.68756  38   2.1462   49   -6.1  90    -7.4  0     0     1002.7   NA       0.0000   9999     0     0     0    
2019/07/05  10:47:00  BASE  1.54644  38   2.1462   49   -6.1  90    -7.4  0     0     1002.7   NA       0.0000   9999     0     0     0    
2019/07/05  10:48:00  BASE  1.48764  37   2.1462   49   -6.1  91    -7.4  0     0     1002.7   NA       0.0000   9999     0     0     0    
2019/07/05  10:49:00  BASE  1.50528  38   2.1462   49   -6.1  91    -7.3  0     0     1002.7   NA       0.0000   9999     0     0     0    
2019/07/05  10:50:00  BASE  1.48176  41   2.1462   49   -6.0  91    -7.3  0     0     1002.7   NA       0.0000   9999     0     0     0    
2019/07/05  10:51:00  BASE  1.42296  44   1.90512  36   -6.0  91    -7.2  0     0     1002.7   NA       0.0000   9999     0     0     0    
2019/07/05  10:52:00  BASE  1.52292  44   1.90512  36   -5.9  91    -7.2  0     0     1002.7   NA       0.0000   9999     0     0     0    
2019/07/05  10:53:00  BASE  1.69344  40   1.87572  42   -5.9  91    -7.1  0     0     1002.7   NA       0.0000   9999     0     0     0    
2019/07/05  10:54:00  BASE  1.72284  37   1.87572  42   -5.9  91    -7.1  0     0     1002.7   NA       0.0000   9999     0     0     0    
2019/07/05  10:55:00  BASE  1.69344  37   1.87572  42   -5.9  91    -7.2  0     0     1002.7   NA       0.0000   9999     0     0     0    
2019/07/05  10:56:00  BASE  1.62876  39   1.87572  42   -5.9  91    -7.2  0     0     1002.7   NA       0.0000   9999     0     0     0    
2019/07/05  10:57:00  BASE  1.4994   37   1.87572  42   -6.0  91    -7.2  0     0     1002.7   NA       0.0000   9999     0     0     0    
2019/07/05  10:58:00  BASE  1.39356  36   1.87572  42   -6.0  91    -7.2  0     0     1002.7   NA       0.0000   9999     0     0     0    
2019/07/05  10:59:00  BASE  1.39944  32   1.87572  42   -5.9  91    -7.2  0     0     1002.7   NA       0.0000   9999     0     0     0    
2019/07/05  11:00:00  BASE  1.38768  24   1.87572  42   -5.9  91    -7.2  0     0     1002.7   NA       0.0000   9999     0     0     0    
2019/07/05  11:01:00  BASE  1.3524   18   1.87572  42   -6.0  91    -7.2  0     0     1002.7   NA       0.0000   9999     0     0     0    
2019/07/05  11:02:00  BASE  1.3524   12   1.87572  42   -6.0  91    -7.2  0     0     1002.7   NA       0.0000   9999     0     0     0    
2019/07/05  11:03:00  BASE  1.31712  11   1.81692  35   -5.9  91    -7.2  0     0     1002.7   NA       0.0000   9999     0     0     0    
2019/07/05  11:04:00  BASE  1.27008  10   1.81692  35   -5.9  91    -7.1  0     0     1002.6   NA       0.0000   9999     0     0     0    
2019/07/05  11:05:00  BASE  1.31712  9    1.69344  38   -5.9  91    -7.1  0     0     1002.6   NA       0.0000   9999     0     0     0    
2019/07/05  11:06:00  BASE  1.47588  15   1.69344  16   -5.9  91    -7.1  0     0     1002.6   NA       0.0000   9999     0     0     0    
2019/07/05  11:07:00  BASE  1.69932  21   2.0874   23   -5.9  91    -7.2  0     0     1002.7   NA       0.0000   9999     0     0     0    
2019/07/05  11:08:00  BASE  1.7934   25   2.0874   23   -6.0  91    -7.2  0     0     1002.7   NA       0.0000   9999     0     0     0    
2019/07/05  11:09:00  BASE  1.75812  25   2.0874   23   -6.1  91    -7.3  0     0     1002.7   NA       0.0000   9999     0     0     0    
2019/07/05  11:10:00  BASE  1.81104  25   2.0874   23   -6.1  91    -7.3  0     0     1002.7   NA       0.0000   9999     0     0     0    
2019/07/05  11:11:00  BASE  1.7052   25   2.0874   23   -6.1  91    -7.3  0     0     1002.7   NA       0.0000   9999     0     0     0    
2019/07/05  11:12:00  BASE  1.54056  28   2.0874   23   -6.1  92    -7.3  0     0     1002.7   NA       0.0000   9999     0     0     0    
2019/07/05  11:13:00  BASE  1.59348  34   2.0874   23   -6.1  92    -7.2  0     0     1002.8   NA       0.0000   9999     1380  0     0    
2019/07/05  11:14:00  BASE  1.74048  37   2.0874   23   -6.1  92    -7.1  0     0     1002.8   NA       0.0000   9999     1380  0     0    
2019/07/05  11:15:00  BASE  1.86984  40   2.1756   40   -6.1  93    -7.1  0     0     1002.8   NA       0.0000   9999     1380  0     0    
2019/07/05  11:16:00  BASE  2.058    41   2.35788  47   -6.1  93    -7.0  0     0     1002.8   NA       0.0000   9999     1350  0     0    
2019/07/05  11:17:00  BASE  2.21088  44   2.35788  47   -6.1  93    -7.0  0     0     1002.8   NA       0.0000   9999     1380  0     0    
2019/07/05  11:18:00  BASE  2.26968  50   2.35788  54   -6.1  94    -6.9  0     0     1002.8   NA       0.0000   9999     1380  0     0    
2019/07/05  11:19:00  BASE  2.39316  52   2.66364  46   -6.0  94    -6.9  0     0     1002.8   NA       0.0000   9999     1380  0     0    
2019/07/05  11:20:00  BASE  2.40492  48   2.66364  46   -6.0  94    -6.8  0     0     1002.8   NA       0.0000   9999     1350  0     0    
2019/07/05  11:21:00  BASE  2.21676  49   2.66364  46   -6.1  94    -6.9  0     0     1002.8   NA       0.0000   9999     1350  0     0    
2019/07/05  11:22:00  BASE  2.1168   52   2.66364  46   -6.1  94    -6.8  0     0     1002.8   NA       0.0000   9999     1310  0     0    
2019/07/05  11:23:00  BASE  2.14032  54   2.66364  46   -6.1  94    -6.8  0     0     1002.8   NA       0.0000   9999     1310  0     0    
2019/07/05  11:24:00  BASE  2.16972  56   2.66364  46   -6.1  95    -6.8  0     0     1002.8   NA       0.0000   9999     1210  0     0    
2019/07/05  11:25:00  BASE  2.25204  58   2.66364  46   -6.1  95    -6.8  0     0     1002.8   NA       0.0000   9999     1280  0     0    
2019/07/05  11:26:00  BASE  2.28732  57   2.66364  46   -6.1  95    -6.7  0     0     1002.8   NA       0.0000   9999     1310  0     0    
2019/07/05  11:27:00  BASE  2.36376  58   2.66364  46   -6.1  95    -6.7  0     0     1002.8   NA       0.0000   9999     1280  0     0    
2019/07/05  11:28:00  BASE  2.47548  62   2.66364  46   -6.0  95    -6.7  0     0     1002.9   NA       0.0000   9999     1280  0     0    
2019/07/05  11:29:00  BASE  2.5284   64   2.63424  67   -6.0  95    -6.7  0     0     1002.9   NA       0.0000   9999     1250  0     0    
2019/07/05  11:30:00  BASE  2.63424  65   2.87532  62   -6.0  95    -6.6  0     0     1002.9   NA       0.0000   9999     1280  0     0    
2019/07/05  11:31:00  BASE  2.65776  65   2.87532  62   -5.9  95    -6.6  0     0     1002.9   NA       0.0000   9999     1250  0     0    
2019/07/05  11:32:00  BASE  2.66364  64   2.93412  61   -5.9  95    -6.6  0     0     1002.9   NA       0.0000   9999     1310  0     0    
2019/07/05  11:33:00  BASE  2.68716  62   2.93412  61   -5.9  95    -6.6  0     0     1003.0   NA       0.0000   9999     1310  0     0    
2019/07/05  11:34:00  BASE  2.60484  60   2.93412  61   -5.9  95    -6.5  0     0     1002.9   NA       0.0000   9999     1250  0     0    
2019/07/05  11:35:00  BASE  2.57544  60   2.93412  61   -5.9  95    -6.5  0     0     1002.9   NA       0.0000   9999     1180  0     0    
2019/07/05  11:36:00  BASE  2.54016  61   2.93412  61   -5.8  95    -6.5  0     0     1002.9   NA       0.0000   9999     1250  0     0    
2019/07/05  11:37:00  BASE  2.57544  58   2.93412  61   -5.8  95    -6.5  0     0     1002.9   NA       0.0000   9999     1210  0     0    
2019/07/05  11:38:00  BASE  2.69304  55   2.93412  61   -5.8  95    -6.4  0     0     1002.9   NA       0.0000   9999     1210  0     0    
2019/07/05  11:39:00  BASE  2.63424  53   2.93412  61   -5.7  95    -6.4  0     0     1002.1   NA       0.0000   9999     1150  0     0    
2019/07/05  11:40:00  BASE  2.42844  49   2.93412  61   -5.7  95    -6.4  0     0     1002.8   NA       0.0000   9999     1250  0     0    
2019/07/05  11:41:00  BASE  2.30496  45   2.93412  61   -5.7  95    -6.4  0     0     1002.8   NA       0.0000   9999     1280  0     0    
2019/07/05  11:42:00  BASE  2.22264  49   2.84592  55   -5.7  95    -6.4  0     0     1002.8   NA       0.0000   9999     1180  0     0    
2019/07/05  11:43:00  BASE  1.94628  50   2.84592  55   -5.7  95    -6.4  0     0     1002.8   NA       0.0000   9999     1210  0     0    
2019/07/05  11:44:00  BASE  1.86984  41   2.84592  55   -5.8  95    -6.4  0     0     1002.8   NA       0.0000   9999     1250  0     0    
2019/07/05  11:45:00  BASE  2.0874   37   2.84592  55   -5.8  95    -6.4  0     0     1002.8   NA       0.0000   9999     1250  0     0    
2019/07/05  11:46:00  BASE  2.13444  36   2.84592  55   -5.7  95    -6.4  0     0     1002.8   NA       0.0000   9999     1250  0     0    
2019/07/05  11:47:00  BASE  1.9698   39   2.84592  55   -5.7  96    -6.3  0     0     1002.8   NA       0.0000   9999     1250  0     0    
2019/07/05  11:48:00  BASE  1.92864  45   2.66364  56   -5.7  96    -6.3  0     0     1002.8   NA       0.0000   9999     1280  0     0    
2019/07/05  11:49:00  BASE  1.95804  52   2.54016  46   -5.7  96    -6.2  0     0     1002.8   NA       0.0000   9999     1280  0     0    
2019/07/05  11:50:00  BASE  1.94628  59   2.54016  46   -5.6  96    -6.2  0     0     1002.8   NA       0.0000   9999     1280  0     0    
2019/07/05  11:51:00  BASE  1.95216  62   2.42256  39   -5.6  96    -6.1  0     0     1002.8   NA       0.0000   9999     1280  0     0    
2019/07/05  11:52:00  BASE  1.89924  67   2.42256  39   -5.5  96    -6.0  0     0     1002.8   NA       0.0000   9999     1280  0     0    
2019/07/05  11:53:00  BASE  1.7934   68   2.42256  39   -5.5  97    -5.9  0     0     1002.8   NA       0.0000   9999     1280  0     0    
2019/07/05  11:54:00  BASE  1.76988  66   2.42256  39   -5.4  97    -5.8  0     0     1002.9   NA       0.0000   9999     1280  0     0    
2019/07/05  11:55:00  BASE  1.72872  69   2.29908  46   -5.3  97    -5.8  0     0     1002.9   NA       0.0000   9999     1280  0     0    
2019/07/05  11:56:00  BASE  1.68168  72   2.29908  46   -5.3  97    -5.7  0     0     1002.9   NA       0.0000   9999     1250  0     0    
2019/07/05  11:57:00  BASE  1.96392  78   2.38728  86   -5.3  97    -5.7  0     0     1002.9   NA       0.0000   9999     1310  0     0    
2019/07/05  11:58:00  BASE  2.0874   83   2.38728  86   -5.2  97    -5.6  0     0     1002.9   NA       0.0000   9999     1150  0     0    
2019/07/05  11:59:00  BASE  1.66992  88   2.38728  86   -5.2  97    -5.6  0     0     1002.9   NA       0.0000   9999     1280  0     0    
2019/07/05  12:00:00  BASE  1.37004  98   2.38728  86   -5.1  97    -5.5  0     0     1002.9   NA       0.0000   9999     1250  0     0    
2019/07/05  12:01:00  BASE  1.69932  97   2.38728  86   -5.1  97    -5.5  0     0     1002.9   NA       0.0000   9999     1250  0     0    
2019/07/05  12:02:00  BASE  1.95216  98   2.38728  86   -5.1  97    -5.4  0     0     1002.9   NA       0.0000   9999     1250  0     0    
2019/07/05  12:03:00  BASE  1.74636  102  2.38728  86   -5.0  98    -5.3  0     0     1002.9   NA       0.0000   9999     1150  0     0    
2019/07/05  12:04:00  BASE  1.4112   103  2.38728  86   -4.9  98    -5.3  0     0     1002.9   NA       0.0000   9999     1210  0     0    
2019/07/05  12:05:00  BASE  1.4994   105  2.38728  86   -4.9  98    -5.2  0     0     1002.9   NA       0.0000   9999     1120  0     0    
2019/07/05  12:06:00  BASE  2.16384  99   2.75184  96   -4.9  98    -5.2  0     0     1002.9   NA       0.0000   9999     1150  0     0    
2019/07/05  12:07:00  BASE  2.48136  88   2.75184  90   -4.9  98    -5.2  0     0     1002.9   NA       0.0000   9999     1250  0     0    
2019/07/05  12:08:00  BASE  2.27556  90   2.75184  90   -4.9  98    -5.2  0     0     1002.9   NA       0.0000   9999     1210  0     0    
2019/07/05  12:09:00  BASE  1.89924  97   2.75184  90   -4.9  98    -5.3  0     0     1002.9   NA       0.0000   9999     1310  0     0    
2019/07/05  12:10:00  BASE  1.9698   98   2.78124  87   -5.0  98    -5.3  0     0     1002.9   NA       0.0000   9999     1310  0     0    
2019/07/05  12:11:00  BASE  2.30496  95   2.78124  87   -5.0  98    -5.3  0     0     1002.9   NA       0.0000   9999     1280  0     0    
2019/07/05  12:12:00  BASE  2.21088  93   2.78124  87   -5.0  98    -5.3  0     0     1002.9   NA       0.0000   9999     1310  0     0    
2019/07/05  12:13:00  BASE  2.12268  95   2.78124  87   -5.1  98    -5.3  0     0     1002.9   NA       0.0000   9999     1280  0     0    
2019/07/05  12:14:00  BASE  2.352    94   2.78124  87   -5.1  98    -5.4  0     0     1003.0   NA       0.0000   9999     1210  0     0    
2019/07/05  12:15:00  BASE  2.55192  93   2.78124  87   -5.2  98    -5.4  0     0     1003.0   NA       0.0000   9999     1280  0     0    
2019/07/05  12:16:00  BASE  2.32848  92   2.78124  87   -5.1  98    -5.4  0     0     1003.0   NA       0.0000   9999     1210  0     0    
2019/07/05  12:17:00  BASE  2.34024  91   2.87532  90   -5.1  98    -5.4  0     0     1003.0   NA       0.0000   9999     1310  0     0    
2019/07/05  12:18:00  BASE  2.71068  90   3.1458   89   -5.1  98    -5.4  0     0     1003.0   NA       0.0000   9999     1310  0     0    
2019/07/05  12:19:00  BASE  2.9694   88   3.38688  91   -5.2  98    -5.4  0     0     1003.0   NA       0.0000   9999     1310  0     0    
2019/07/05  12:20:00  BASE  3.03996  92   3.59856  101  -5.2  98    -5.4  0     0     1002.9   NA       0.0000   9999     1280  0     0    
2019/07/05  12:21:00  BASE  2.98704  95   3.59856  101  -5.3  98    -5.5  0     0     1002.9   NA       0.0000   9999     1350  0     0    
2019/07/05  12:22:00  BASE  2.94     87   3.59856  101  -5.3  98    -5.5  0     0     1002.9   NA       0.0000   9999     1350  0     0    
2019/07/05  12:23:00  BASE  3.27516  91   4.35708  113  -5.3  99    -5.5  0     0     1002.9   NA       0.0000   9999     1280  0     0    
2019/07/05  12:24:00  BASE  3.4692   109  4.56876  110  -5.2  99    -5.4  0     0     1002.9   NA       0.0000   9999     1250  0     0    
2019/07/05  12:25:00  BASE  2.37552  113  4.56876  110  -5.1  99    -5.2  0     0     1002.9   NA       0.0000   9999     1250  0     0    
2019/07/05  12:26:00  BASE  1.78164  103  4.56876  110  -5.0  100   -5.0  0     0     1002.9   NA       0.0000   9999     1350  0     0    
2019/07/05  12:27:00  BASE  2.28144  97   4.56876  110  -5.0  100   -5.0  0     0     1002.6   NA       0.0000   9999     1310  0     0    
2019/07/05  12:28:00  BASE  2.53428  87   4.56876  110  -5.0  100   -5.0  0     0     1002.8   NA       0.0000   9999     1280  0     0    
2019/07/05  12:29:00  BASE  2.65188  83   4.56876  110  -5.0  99    -5.1  0     0     1002.9   NA       0.0000   9999     1280  0     0    
2019/07/05  12:30:00  BASE  2.69304  87   4.56876  110  -5.1  99    -5.2  0     0     1002.9   NA       0.0000   9999     1280  0     0    
2019/07/05  12:31:00  BASE  2.69304  82   4.56876  110  -5.1  99    -5.2  0     0     1002.8   NA       0.0000   9999     1350  0     0    
2019/07/05  12:32:00  BASE  2.66952  73   4.56876  110  -5.1  99    -5.2  0     0     1002.8   NA       0.0000   9999     1350  0     0    
2019/07/05  12:33:00  BASE  2.50488  74   4.56876  110  -5.0  100   -5.1  0     0     1002.8   NA       0.0000   9999     1350  0     0    
2019/07/05  12:34:00  BASE  2.5578   80   3.234    87   -5.0  100   -5.1  0     0     1002.8   NA       0.0000   9999     1350  0     0    
2019/07/05  12:35:00  BASE  3.19284  80   3.81024  82   -5.0  100   -5.1  0     0     1002.8   NA       0.0000   9999     1210  0     0    
2019/07/05  12:36:00  BASE  3.81024  75   4.2336   73   -5.0  100   -5.1  0     0     1002.8   NA       0.0000   9999     1280  0     0    
2019/07/05  12:37:00  BASE  3.96312  76   4.44528  76   -5.0  100   -5.1  0     0     1002.8   NA       0.0000   9999     1310  0     0    
2019/07/05  12:38:00  BASE  3.39276  90   4.44528  76   -5.0  100   -5.1  0     0     1002.9   NA       0.0000   9999     1280  0     0    
2019/07/05  12:39:00  BASE  2.48724  105  4.44528  76   -5.0  100   -5.0  0     0     1002.9   NA       0.0000   9999     1150  0     0    
2019/07/05  12:40:00  BASE  2.25792  108  4.44528  76   -4.9  100   -4.9  0     0     1002.9   NA       0.0000   9999     1180  0     0    
2019/07/05  12:41:00  BASE  2.5872   95   4.44528  76   -4.8  100   -4.8  0     0     1002.9   NA       0.0000   9999     1250  0     0    
2019/07/05  12:42:00  BASE  2.76948  94   4.44528  76   -4.8  100   -4.8  0     0     1002.9   NA       0.0000   9999     1250  0     0    
2019/07/05  12:43:00  BASE  2.96352  103  4.44528  76   -4.8  100   -4.8  0     0     1002.9   NA       0.0000   9999     1250  0     0    
2019/07/05  12:44:00  BASE  2.95764  99   4.44528  76   -4.8  100   -4.8  0     0     1002.9   NA       0.0000   9999     1280  0     0    
2019/07/05  12:45:00  BASE  2.66364  90   4.44528  76   -4.9  100   -5.0  0     0     1002.9   NA       0.0000   9999     1210  0     0    
2019/07/05  12:46:00  BASE  2.3814   90   4.44528  76   -5.0  100   -5.0  0     0     1003.0   NA       0.0000   9999     1250  0     0    
2019/07/05  12:47:00  BASE  2.3226   99   3.83964  96   -5.0  100   -5.0  0     0     1003.0   NA       0.0000   9999     1280  0     0    
2019/07/05  12:48:00  BASE  2.37552  102  3.83964  96   -5.0  100   -5.1  0     0     1003.0   NA       0.0000   9999     1310  0     0    
2019/07/05  12:49:00  BASE  2.30496  100  3.83964  96   -5.0  100   -5.1  0     0     1003.0   NA       0.0000   9999     1310  0     0    
2019/07/05  12:50:00  BASE  2.42844  101  3.83964  96   -5.0  100   -5.0  0     0     1003.0   NA       0.0000   9999     1310  0     0    
2019/07/05  12:51:00  BASE  2.57544  104  3.83964  96   -5.0  100   -5.0  0     0     1003.0   NA       0.0000   9999     1250  0     0    
2019/07/05  12:52:00  BASE  2.18736  108  3.83964  96   -5.0  100   -5.0  0     0     1003.0   NA       0.0000   9999     1250  0     0    
2019/07/05  12:53:00  BASE  1.68168  101  3.29868  93   -5.1  100   -5.1  0     0     1003.0   NA       0.0000   9999     1210  0     0    
2019/07/05  12:54:00  BASE  1.60524  93   3.087    103  -5.1  100   -5.1  0     0     1003.0   NA       0.0000   9999     1250  0     0    
2019/07/05  12:55:00  BASE  1.55232  101  3.087    103  -5.1  100   -5.1  0     0     1003.0   NA       0.0000   9999     1250  0     0    
2019/07/05  12:56:00  BASE  1.54644  110  3.087    103  -5.0  100   -5.0  0     0     1003.0   NA       0.0000   9999     1210  0     0    
2019/07/05  12:57:00  BASE  1.49352  120  3.087    103  -4.9  100   -4.9  0     0     1003.0   NA       0.0000   9999     1210  0     0    
2019/07/05  12:58:00  BASE  1.32888  123  3.087    103  -4.8  100   -4.8  0     0     1003.0   NA       0.0000   9999     1280  0     0    
2019/07/05  12:59:00  BASE  1.06428  118  3.087    103  -4.8  100   -4.8  0     0     1003.0   NA       0.0000   9999     1310  0     0    
2019/07/05  13:00:00  BASE  0.7644   111  2.81064  100  -4.7  100   -4.7  0     0     1003.0   NA       0.0000   9999     1310  0     0    
2019/07/05  13:01:00  BASE  0.84672  111  2.0286   105  -4.7  100   -4.7  0     0     1003.0   NA       0.0000   9999     1280  0     0    
2019/07/05  13:02:00  BASE  1.24068  114  2.0286   107  -4.7  100   -4.7  0     0     1003.0   NA       0.0000   9999     1310  0     0    
2019/07/05  13:03:00  BASE  1.7934   112  2.29908  109  -4.7  100   -4.7  0     0     1003.0   NA       0.0000   9999     1310  0     0    
2019/07/05  13:04:00  BASE  2.05212  109  2.63424  109  -4.7  100   -4.7  0     0     1003.0   NA       0.0000   9999     1280  0     0    
2019/07/05  13:05:00  BASE  2.29908  107  3.087    96   -4.8  100   -4.8  0     0     1003.0   NA       0.0000   9999     1250  0     0    
2019/07/05  13:06:00  BASE  2.36376  116  3.087    96   -4.9  100   -4.9  0     0     1003.0   NA       0.0000   9999     1180  0     0    
2019/07/05  13:07:00  BASE  2.16972  131  3.087    96   -4.9  100   -4.9  0     0     1003.0   NA       0.0000   9999     1350  0     0    
2019/07/05  13:08:00  BASE  2.05212  134  3.087    96   -4.9  100   -4.9  0     0     1003.0   NA       0.0000   9999     1310  0     0    
2019/07/05  13:09:00  BASE  2.24028  121  3.087    96   -4.9  100   -4.9  0     0     1002.9   NA       0.0000   9999     1250  0     0    
2019/07/05  13:10:00  BASE  2.54016  114  3.087    96   -4.8  100   -4.8  0     0     1003.0   NA       0.0000   9999     1350  0     0    
2019/07/05  13:11:00  BASE  2.43432  115  3.087    96   -4.8  100   -4.8  0     0     1003.0   NA       0.0000   9999     1280  0     0    
2019/07/05  13:12:00  BASE  2.205    111  3.087    96   -4.7  100   -4.7  0     0     1003.0   NA       0.0000   9999     1310  0     0    
2019/07/05  13:13:00  BASE  2.31084  100  3.087    96   -4.7  100   -4.7  0     0     1003.0   NA       0.0000   9999     1310  0     0    
2019/07/05  13:14:00  BASE  2.72832  93   3.35748  98   -4.8  100   -4.8  0     0     1003.0   NA       0.0000   9999     1280  0     0    
2019/07/05  13:15:00  BASE  3.13404  95   3.69264  92   -4.8  100   -4.8  0     0     1003.0   NA       0.0000   9999     1350  0     0    
2019/07/05  13:16:00  BASE  3.43392  93   3.81024  91   -4.9  100   -4.9  0     0     1003.1   NA       0.0000   9999     0     0     0    
2019/07/05  13:17:00  BASE  3.42804  84   3.81024  91   -5.0  100   -5.0  0     0     1003.1   NA       0.0000   9999     1280  0     0    
2019/07/05  13:18:00  BASE  3.16932  73   3.81024  91   -5.1  100   -5.1  0     0     1003.2   NA       0.0000   9999     0     0     0    
2019/07/05  13:19:00  BASE  2.85768  72   3.81024  91   -5.1  100   -5.1  0     0     1003.2   NA       0.0000   9999     1250  0     0    
2019/07/05  13:20:00  BASE  2.59308  76   3.81024  91   -5.2  100   -5.2  0     0     1003.2   NA       0.0000   9999     1210  0     0    
2019/07/05  13:21:00  BASE  2.37552  76   3.81024  91   -5.2  100   -5.2  1     0     1003.2   NA       0.0000   9999     0     0     0    
2019/07/05  13:22:00  BASE  2.15208  75   3.81024  91   -5.2  100   -5.2  1     0     1003.2   NA       0.0000   9999     0     0     0    
2019/07/05  13:23:00  BASE  1.75812  74   3.81024  91   -5.2  100   -5.2  1     0     1003.2   NA       0.0000   9999     0     0     0    
2019/07/05  13:24:00  BASE  1.38768  69   3.81024  91   -5.1  100   -5.1  1     0     1003.2   NA       0.0000   9999     0     0     0    
2019/07/05  13:25:00  BASE  1.14072  68   3.81024  91   -5.0  100   -5.0  1     0     1003.2   NA       0.0000   9999     0     0     0    
2019/07/05  13:26:00  BASE  1.45824  67   3.48096  84   -5.0  100   -5.0  1     0     1003.2   NA       0.0000   9999     0     0     0    
2019/07/05  13:27:00  BASE  1.84632  57   3.35748  65   -5.0  100   -5.0  1     0     1003.2   NA       0.0000   9999     0     0     0    
2019/07/05  13:28:00  BASE  1.77576  52   3.0576   76   -5.0  100   -5.0  1     0     1003.2   NA       0.0000   9999     0     0     0    
2019/07/05  13:29:00  BASE  1.57584  53   2.56956  73   -5.1  100   -5.1  1     0     1003.2   NA       0.0000   9999     0     0     0    
2019/07/05  13:30:00  BASE  1.47     59   2.54016  77   -5.2  100   -5.2  1     0     1003.2   NA       0.0000   9999     0     0     0    
2019/07/05  13:31:00  BASE  1.54644  61   2.35788  74   -5.2  100   -5.2  2     0     1003.1   NA       0.0000   9999     0     0     0    
2019/07/05  13:32:00  BASE  1.5582   59   1.96392  57   -5.2  100   -5.2  2     0     1003.0   NA       0.0000   9999     0     0     0    
2019/07/05  13:33:00  BASE  1.69932  57   2.0286   56   -5.1  100   -5.1  2     0     1003.0   NA       0.0000   9999     0     0     0    
2019/07/05  13:34:00  BASE  1.8816   52   2.0286   56   -5.1  100   -5.1  2     0     1003.0   NA       0.0000   9999     0     0     0    
2019/07/05  13:35:00  BASE  1.84632  52   2.0286   56   -5.1  100   -5.1  2     0     1003.0   NA       0.0000   9999     0     0     0    
2019/07/05  13:36:00  BASE  1.84632  56   2.1462   57   -5.1  100   -5.1  2     0     1003.0   NA       0.0000   9999     0     0     0    
2019/07/05  13:37:00  BASE  1.98156  59   2.32848  68   -5.2  100   -5.2  2     0     1003.0   NA       0.0000   9999     0     0     0    
2019/07/05  13:38:00  BASE  2.16384  63   2.42256  64   -5.3  100   -5.3  2     0     1003.0   NA       0.0000   9999     0     0     0    
2019/07/05  13:39:00  BASE  2.16384  64   2.42256  64   -5.3  100   -5.3  2     0     1003.1   NA       0.0000   9999     0     0     0    
2019/07/05  13:40:00  BASE  2.0286   58   2.42256  64   -5.4  100   -5.4  2     0     1003.2   NA       0.0000   9999     0     0     0    
2019/07/05  13:41:00  BASE  2.0874   50   2.45196  51   -5.4  100   -5.4  3     0     1003.2   NA       0.0000   9999     0     0     0    
2019/07/05  13:42:00  BASE  2.21088  45   2.51076  43   -5.5  100   -5.5  3     0     1003.2   NA       0.0000   9999     0     0     0    
2019/07/05  13:43:00  BASE  2.31084  44   2.51076  43   -5.6  100   -5.6  3     0     1003.2   NA       0.0000   9999     0     0     0    
2019/07/05  13:44:00  BASE  2.34612  49   2.51076  43   -5.7  100   -5.7  3     0     1003.2   NA       0.0000   9999     0     0     0    
2019/07/05  13:45:00  BASE  2.18736  52   2.51076  43   -5.7  100   -5.7  3     0     1003.2   NA       0.0000   9999     0     0     0    
2019/07/05  13:46:00  BASE  2.00508  55   2.51076  43   -5.8  100   -5.8  3     0     1003.2   NA       0.0000   9999     0     0     0    
2019/07/05  13:47:00  BASE  2.00508  57   2.51076  43   -5.8  100   -5.8  3     0     1003.2   NA       0.0000   9999     0     0     0    
2019/07/05  13:48:00  BASE  2.31672  59   2.87532  64   -5.8  100   -5.8  3     0     1003.2   NA       0.0000   9999     0     0     0    
2019/07/05  13:49:00  BASE  2.41668  61   2.87532  64   -5.8  100   -5.8  3     0     1003.2   NA       0.0000   9999     0     0     0    
2019/07/05  13:50:00  BASE  2.09916  60   2.87532  64   -5.8  100   -5.8  3     0     1003.3   NA       0.0000   9999     0     0     0    
2019/07/05  13:51:00  BASE  1.93452  59   2.87532  64   -5.8  100   -5.8  3     0     1003.3   NA       0.0000   9999     0     0     0    
2019/07/05  13:52:00  BASE  1.96392  61   2.87532  64   -5.7  100   -5.7  3     0     1003.3   NA       0.0000   9999     0     0     0    
2019/07/05  13:53:00  BASE  1.92276  61   2.87532  64   -5.7  100   -5.7  3     0     1003.3   NA       0.0000   9999     0     0     0    
2019/07/05  13:54:00  BASE  1.78164  59   2.87532  64   -5.6  100   -5.6  3     0     1003.3   NA       0.0000   9999     0     0     0    
2019/07/05  13:55:00  BASE  1.7052   59   2.87532  64   -5.5  100   -5.5  3     0     1003.3   NA       0.0000   9999     0     0     0    
2019/07/05  13:56:00  BASE  1.66404  62   2.87532  64   -5.5  100   -5.5  3     0     1003.3   NA       0.0000   9999     0     0     0    
2019/07/05  13:57:00  BASE  1.58172  61   2.87532  64   -5.5  100   -5.5  4     0     1003.3   NA       0.0000   9999     0     0     0    
2019/07/05  13:58:00  BASE  1.58172  58   2.42256  56   -5.5  100   -5.5  4     0     1003.3   NA       0.0000   9999     0     0     0    
2019/07/05  13:59:00  BASE  1.71696  55   2.29908  59   -5.5  100   -5.5  4     0     1003.4   NA       0.0000   9999     0     0     0    
2019/07/05  14:00:00  BASE  1.81692  54   2.29908  59   -5.5  100   -5.5  4     0     1003.4   NA       0.0000   9999     0     0     0    
2019/07/05  14:01:00  BASE  1.92864  56   2.35788  57   -5.5  100   -5.5  4     0     1003.4   NA       0.0000   9999     0     0     0    
2019/07/05  14:02:00  BASE  2.15208  56   2.45196  56   -5.5  100   -5.5  4     0     1003.4   NA       0.0000   9999     0     0     0    
2019/07/05  14:03:00  BASE  2.21088  57   2.48136  60   -5.4  100   -5.4  4     0     1003.4   NA       0.0000   9999     0     0     0    
2019/07/05  14:04:00  BASE  2.1168   57   2.48136  60   -5.4  100   -5.4  4     0     1003.4   NA       0.0000   9999     0     0     0    
2019/07/05  14:05:00  BASE  2.15208  58   2.48136  57   -5.4  100   -5.4  4     0     1003.4   NA       0.0000   9999     0     0     0    
2019/07/05  14:06:00  BASE  2.06388  61   2.48136  57   -5.4  100   -5.4  5     0     1003.4   NA       0.0000   9999     0     0     0    
2019/07/05  14:07:00  BASE  2.058    62   2.48136  57   -5.4  100   -5.4  5     0     1003.4   NA       0.0000   9999     0     0     0    
2019/07/05  14:08:00  BASE  2.22264  60   2.48136  57   -5.4  100   -5.4  5     0     1003.4   NA       0.0000   9999     0     0     0    
2019/07/05  14:09:00  BASE  2.2932   62   2.56956  67   -5.4  100   -5.4  5     0     1003.4   NA       0.0000   9999     0     0     0    
2019/07/05  14:10:00  BASE  2.352    61   2.56956  63   -5.4  100   -5.4  5     0     1003.4   NA       0.0000   9999     0     0     0    
2019/07/05  14:11:00  BASE  2.2932   58   2.56956  63   -5.4  100   -5.4  5     0     1003.4   NA       0.0000   9999     0     0     0    
2019/07/05  14:12:00  BASE  2.15796  58   2.56956  63   -5.4  100   -5.4  5     0     1003.5   NA       0.0000   9999     0     0     0    
2019/07/05  14:13:00  BASE  2.1168   60   2.56956  63   -5.4  100   -5.4  6     0     1003.5   NA       0.0000   9999     0     0     0    
2019/07/05  14:14:00  BASE  2.058    61   2.56956  63   -5.3  100   -5.3  6     0     1003.5   NA       0.0000   9999     0     0     0    
2019/07/05  14:15:00  BASE  1.911    59   2.56956  63   -5.3  100   -5.3  6     0     1003.5   NA       0.0000   9999     0     0     0    
2019/07/05  14:16:00  BASE  1.72872  59   2.56956  63   -5.3  100   -5.3  6     0     1003.5   NA       0.0000   9999     0     0     0    
2019/07/05  14:17:00  BASE  1.68756  60   2.56956  63   -5.3  100   -5.3  6     0     1003.5   NA       0.0000   9999     0     0     0    
2019/07/05  14:18:00  BASE  1.84632  56   2.56956  63   -5.3  100   -5.3  6     0     1003.5   NA       0.0000   9999     0     0     0    
2019/07/05  14:19:00  BASE  1.90512  55   2.56956  63   -5.3  100   -5.3  6     0     1003.5   NA       0.0000   9999     0     0     0    
2019/07/05  14:20:00  BASE  1.78164  55   2.32848  62   -5.3  100   -5.3  6     0     1003.5   NA       0.0000   9999     0     0     0    
2019/07/05  14:21:00  BASE  1.81692  53   2.32848  62   -5.3  100   -5.3  6     0     1003.5   NA       0.0000   9999     0     0     0    
2019/07/05  14:22:00  BASE  1.98156  55   2.32848  62   -5.4  100   -5.4  6     0     1003.4   NA       0.0000   9999     0     0     0    
2019/07/05  14:23:00  BASE  2.13444  57   2.32848  58   -5.4  100   -5.4  7     0     1003.4   NA       0.0000   9999     0     0     0    
2019/07/05  14:24:00  BASE  2.18148  57   2.32848  58   -5.5  100   -5.5  7     0     1003.4   NA       0.0000   9999     0     0     0    
2019/07/05  14:25:00  BASE  2.1462   58   2.32848  58   -5.5  100   -5.5  7     0     1003.4   NA       0.0000   9999     0     0     0    
2019/07/05  14:26:00  BASE  2.06976  59   2.32848  58   -5.5  100   -5.5  7     0     1003.4   NA       0.0000   9999     0     0     0    
2019/07/05  14:27:00  BASE  2.11092  58   2.35788  58   -5.5  100   -5.5  7     0     1003.4   NA       0.0000   9999     0     0     0    
2019/07/05  14:28:00  BASE  2.18148  54   2.35788  58   -5.6  100   -5.6  7     0     1003.4   NA       0.0000   9999     0     0     0    
2019/07/05  14:29:00  BASE  2.13444  51   2.35788  58   -5.6  100   -5.6  7     0     1003.4   NA       0.0000   9999     0     0     0    
2019/07/05  14:30:00  BASE  2.06388  54   2.35788  58   -5.5  100   -5.5  7     0     1003.5   NA       0.0000   9999     0     0     0    
2019/07/05  14:31:00  BASE  2.06388  55   2.35788  58   -5.5  100   -5.5  8     0     1003.4   NA       0.0000   9999     0     0     0    
2019/07/05  14:32:00  BASE  2.06388  51   2.35788  58   -5.5  100   -5.5  8     0     1003.4   NA       0.0000   9999     0     0     0    
2019/07/05  14:33:00  BASE  2.05212  51   2.35788  58   -5.5  100   -5.5  8     0     1003.4   NA       0.0000   9999     0     0     0    
2019/07/05  14:34:00  BASE  2.09916  53   2.35788  58   -5.5  100   -5.5  8     0     1003.5   NA       0.0000   9999     0     0     0    
2019/07/05  14:35:00  BASE  2.09916  56   2.35788  58   -5.5  100   -5.5  8     0     1003.5   NA       0.0000   9999     0     0     0    
2019/07/05  14:36:00  BASE  2.0286   58   2.35788  58   -5.5  100   -5.5  8     0     1003.4   NA       0.0000   9999     0     0     0    
2019/07/05  14:37:00  BASE  2.06388  58   2.35788  57   -5.5  100   -5.5  9     0     1003.4   NA       0.0000   9999     0     0     0    
2019/07/05  14:38:00  BASE  2.2344   59   2.48136  67   -5.5  100   -5.5  9     0     1003.4   NA       0.0000   9999     0     0     0    
2019/07/05  14:39:00  BASE  2.30496  60   2.56956  63   -5.5  100   -5.5  9     0     1003.4   NA       0.0000   9999     0     0     0    
2019/07/05  14:40:01  BASE  2.25204  59   2.56956  63   -5.5  100   -5.5  9     0     1003.4   NA       0.0000   9999     0     0     0    
2019/07/05  14:41:00  BASE  2.06388  59   2.56956  63   -5.5  100   -5.5  9     0     1003.4   NA       0.0000   9999     0     0     0    
2019/07/05  14:42:00  BASE  2.03448  61   2.56956  63   -5.4  100   -5.4  9     0     1003.4   NA       0.0000   9999     0     0     0    
2019/07/05  14:43:00  BASE  2.25204  59   2.56956  63   -5.4  100   -5.4  9     0     1003.4   NA       0.0000   9999     0     0     0    
2019/07/05  14:44:00  BASE  2.41668  58   2.56956  61   -5.4  100   -5.4  10    0     1003.4   NA       0.0000   9999     0     0     0    
2019/07/05  14:45:00  BASE  2.48136  57   2.59896  56   -5.4  100   -5.4  10    0     1003.0   NA       0.0000   9999     0     0     0    
2019/07/05  14:46:00  BASE  2.52252  56   2.59896  56   -5.5  100   -5.5  10    0     1003.4   NA       0.0000   9999     0     0     0    
2019/07/05  14:47:00  BASE  2.39904  56   2.59896  56   -5.5  100   -5.5  10    0     1003.4   NA       0.0000   9999     0     0     0    
2019/07/05  14:48:00  BASE  2.24028  56   2.59896  56   -5.6  100   -5.6  10    0     1003.4   NA       0.0000   9999     0     0     0    
2019/07/05  14:49:00  BASE  2.25792  55   2.59896  56   -5.6  100   -5.6  10    0     1003.4   NA       0.0000   9999     0     0     0    
2019/07/05  14:50:00  BASE  2.12268  53   2.59896  56   -5.6  100   -5.6  10    0     1003.4   NA       0.0000   9999     0     0     0    
2019/07/05  14:51:00  BASE  1.96392  52   2.59896  56   -5.6  100   -5.6  11    0     1003.4   NA       0.0000   9999     0     0     0    
2019/07/05  14:52:00  BASE  1.80516  50   2.59896  56   -5.6  100   -5.6  11    0     1003.4   NA       0.0000   9999     0     0     0    
2019/07/05  14:53:00  BASE  1.5582   48   2.59896  56   -5.5  100   -5.5  11    0     1003.4   NA       0.0000   9999     0     0     0    
2019/07/05  14:54:00  BASE  1.53468  47   2.59896  56   -5.5  100   -5.5  11    0     1003.4   NA       0.0000   9999     0     0     0    
2019/07/05  14:55:00  BASE  1.60524  47   2.56956  51   -5.4  100   -5.4  11    0     1003.4   NA       0.0000   9999     0     0     0    
2019/07/05  14:56:00  BASE  1.69344  47   2.45196  52   -5.5  100   -5.5  11    0     1003.4   NA       0.0000   9999     0     0     0    
2019/07/05  14:57:00  BASE  1.72284  48   2.42256  52   -5.5  100   -5.5  11    0     1003.4   NA       0.0000   9999     0     0     0    
2019/07/05  14:58:00  BASE  1.65816  49   2.42256  52   -5.5  100   -5.5  11    0     1003.4   NA       0.0000   9999     0     0     0    
2019/07/05  14:59:00  BASE  1.617    47   2.1462   50   -5.5  100   -5.5  12    0     1003.4   NA       0.0000   9999     0     0     0    
2019/07/05  15:00:00  BASE  1.50528  45   2.0874   51   -5.4  100   -5.4  12    0     1003.4   NA       0.0000   9999     0     0     0    
2019/07/05  15:01:00  BASE  1.42884  52   1.87572  56   -5.4  100   -5.4  12    0     1003.4   NA       0.0000   9999     0     0     0    
2019/07/05  15:02:00  BASE  1.40532  55   1.87572  56   -5.4  100   -5.4  12    0     1003.4   NA       0.0000   9999     0     0     0    
2019/07/05  15:03:00  BASE  1.2936   52   1.87572  56   -5.4  100   -5.4  12    0     1003.4   NA       0.0000   9999     0     0     0    
2019/07/05  15:04:00  BASE  1.08192  48   1.87572  56   -5.3  100   -5.4  12    0     1003.4   NA       0.0000   9999     0     0     0    
2019/07/05  15:05:00  BASE  0.9702   48   1.87572  56   -5.3  99    -5.4  12    0     1003.4   NA       0.0000   9999     0     0     0    
2019/07/05  15:06:00  BASE  1.01724  53   1.81692  47   -5.3  99    -5.4  12    0     1003.4   NA       0.0000   9999     0     0     0    
2019/07/05  15:07:00  BASE  1.08192  49   1.72284  51   -5.2  99    -5.4  12    0     1003.4   NA       0.0000   9999     0     0     0    
2019/07/05  15:08:00  BASE  1.1466   48   1.69344  43   -5.2  99    -5.4  12    0     1003.4   NA       0.0000   9999     0     0     0    
2019/07/05  15:09:00  BASE  1.1466   52   1.57584  58   -5.2  99    -5.4  13    0     1003.4   NA       0.0000   9999     0     0     0    
2019/07/05  15:10:00  BASE  1.24068  52   1.57584  58   -5.2  98    -5.4  13    0     1003.4   NA       0.0000   9999     0     0     0    
2019/07/05  15:11:00  BASE  1.48764  51   1.69344  49   -5.2  98    -5.4  13    0     1003.4   NA       0.0000   9999     0     0     0    
2019/07/05  15:12:00  BASE  1.68756  50   1.84632  48   -5.2  98    -5.5  13    0     1003.5   NA       0.0000   9999     0     0     0    
2019/07/05  15:13:00  BASE  1.8522   49   2.0286   49   -5.2  98    -5.6  13    0     1003.5   NA       0.0000   9999     0     0     0    
2019/07/05  15:14:00  BASE  2.01684  51   2.1462   53   -5.3  97    -5.6  13    0     1003.5   NA       0.0000   9999     0     0     0    
2019/07/05  15:15:00  BASE  2.12268  51   2.24028  48   -5.3  97    -5.7  13    0     1003.5   NA       0.0000   9999     0     0     0    
2019/07/05  15:16:00  BASE  2.22264  49   2.42256  45   -5.3  97    -5.8  13    0     1003.5   NA       0.0000   9999     0     0     0    
2019/07/05  15:17:00  BASE  2.2344   46   2.42256  45   -5.4  97    -5.8  13    0     1003.5   NA       0.0000   9999     0     0     0    
2019/07/05  15:18:00  BASE  2.058    44   2.42256  45   -5.4  96    -5.9  13    0     1003.6   NA       0.0000   9999     0     0     0    
2019/07/05  15:19:00  BASE  1.83456  43   2.42256  45   -5.4  96    -5.9  13    0     1003.6   NA       0.0000   9999     0     0     0    
2019/07/05  15:20:00  BASE  1.78164  44   2.42256  45   -5.4  96    -5.9  13    0     1003.6   NA       0.0000   9999     0     0     0    
2019/07/05  15:21:00  BASE  1.75812  42   2.42256  45   -5.4  96    -6.0  13    0     1003.6   NA       0.0000   9999     0     0     0    
2019/07/05  15:22:00  BASE  1.61112  34   2.42256  45   -5.5  96    -6.0  13    0     1003.6   NA       0.0000   9999     0     0     0    
2019/07/05  15:23:00  BASE  1.47588  29   2.42256  45   -5.5  96    -6.1  13    0     1003.6   NA       0.0000   9999     0     0     0    
2019/07/05  15:24:00  BASE  1.39944  31   2.42256  45   -5.6  96    -6.2  13    0     1003.6   NA       0.0000   9999     0     0     0    
2019/07/05  15:25:00  BASE  1.27008  36   2.42256  45   -5.6  96    -6.2  13    0     1003.6   NA       0.0000   9999     0     0     0    
2019/07/05  15:26:00  BASE  1.1172   37   2.29908  49   -5.6  96    -6.2  13    0     1003.6   NA       0.0000   9999     0     0     0    
2019/07/05  15:27:00  BASE  1.1172   30   2.0286   52   -5.6  96    -6.2  13    0     1003.6   NA       0.0000   9999     0     0     0    
2019/07/05  15:28:00  BASE  1.2348   21   1.96392  47   -5.6  96    -6.1  13    0     1003.6   NA       0.0000   9999     0     0     0    
2019/07/05  15:29:00  BASE  1.323    15   1.96392  47   -5.5  96    -6.1  13    0     1003.6   NA       0.0000   9999     0     0     0    
2019/07/05  15:30:00  BASE  1.45236  14   1.81692  43   -5.5  96    -6.1  13    0     1003.6   NA       0.0000   9999     0     0     0    
2019/07/05  15:31:00  BASE  1.51704  11   1.75224  17   -5.5  95    -6.1  14    0     1003.6   NA       0.0000   9999     0     0     0    
2019/07/05  15:32:00  BASE  1.50528  12   1.75224  17   -5.5  95    -6.2  13    0     1003.6   NA       0.0000   9999     0     0     0    
2019/07/05  15:33:00  BASE  1.54056  14   1.75224  17   -5.5  95    -6.2  14    0     1003.6   NA       0.0000   9999     0     0     0    
2019/07/05  15:34:00  BASE  1.63464  16   1.78752  26   -5.5  95    -6.1  14    0     1003.6   NA       0.0000   9999     0     0     0    
2019/07/05  15:35:00  BASE  1.77576  22   1.90512  26   -5.5  95    -6.1  14    0     1003.6   NA       0.0000   9999     0     0     0    
2019/07/05  15:36:00  BASE  1.911    26   2.0874   29   -5.5  95    -6.1  14    0     1003.7   NA       0.0000   9999     0     0     0    
2019/07/05  15:37:00  BASE  1.97568  27   2.0874   29   -5.4  95    -6.1  14    0     1003.7   NA       0.0000   9999     0     0     0    
2019/07/05  15:38:00  BASE  2.07564  28   2.26968  31   -5.4  95    -6.1  14    0     1003.8   NA       0.0000   9999     0     0     0    
2019/07/05  15:39:00  BASE  2.15796  30   2.26968  31   -5.4  95    -6.1  14    0     1003.8   NA       0.0000   9999     0     0     0    
2019/07/05  15:40:00  BASE  2.06976  33   2.26968  31   -5.5  95    -6.1  14    0     1003.8   NA       0.0000   9999     0     0     0    
2019/07/05  15:41:00  BASE  1.97568  36   2.26968  31   -5.5  95    -6.2  14    0     1003.8   NA       0.0000   9999     0     0     0    
2019/07/05  15:42:00  BASE  1.99332  36   2.26968  31   -5.5  95    -6.2  14    0     1003.8   NA       0.0000   9999     0     0     0    
2019/07/05  15:43:00  BASE  2.00508  36   2.26968  31   -5.5  95    -6.2  14    0     1003.8   NA       0.0000   9999     0     0     0    
2019/07/05  15:44:00  BASE  2.0286   37   2.29908  41   -5.5  95    -6.2  14    0     1003.8   NA       0.0000   9999     0     0     0    
2019/07/05  15:45:00  BASE  2.01096  40   2.29908  41   -5.5  95    -6.2  14    0     1003.8   NA       0.0000   9999     0     0     0    
2019/07/05  15:46:00  BASE  1.95216  40   2.29908  41   -5.6  95    -6.2  14    0     1003.8   NA       0.0000   9999     0     0     0    
2019/07/05  15:47:00  BASE  1.8522   38   2.29908  41   -5.6  95    -6.2  14    0     1003.9   NA       0.0000   9999     0     0     0    
2019/07/05  15:48:00  BASE  1.72284  35   2.29908  41   -5.6  95    -6.3  14    0     1003.9   NA       0.0000   9999     0     0     0    
2019/07/05  15:49:00  BASE  1.74636  34   2.29908  41   -5.7  95    -6.3  14    0     1003.8   NA       0.0000   9999     0     0     0    
2019/07/05  15:50:00  BASE  1.81104  34   2.29908  41   -5.7  95    -6.3  14    0     1003.9   NA       0.0000   9999     0     0     0    
2019/07/05  15:51:00  BASE  1.75224  30   2.29908  41   -5.7  95    -6.3  14    0     1003.8   NA       0.0000   9999     0     0     0    
2019/07/05  15:52:00  BASE  1.77576  27   2.29908  41   -5.6  95    -6.3  14    0     1003.9   NA       0.0000   9999     0     0     0    
2019/07/05  15:53:00  BASE  1.8816   27   2.29908  41   -5.7  95    -6.3  15    0     1003.9   NA       0.0000   9999     0     0     0    
2019/07/05  15:54:00  BASE  1.84044  25   2.1168   28   -5.7  95    -6.4  15    0     1003.9   NA       0.0000   9999     0     0     0    
2019/07/05  15:55:00  BASE  1.78752  25   2.1168   28   -5.7  95    -6.4  15    0     1004.0   NA       0.0000   9999     0     0     0    
2019/07/05  15:56:00  BASE  1.74048  26   2.1168   28   -5.8  95    -6.4  15    0     1004.0   NA       0.0000   9999     0     0     0    
2019/07/05  15:57:00  BASE  1.75224  29   2.1168   28   -5.8  95    -6.5  15    0     1003.9   NA       0.0000   9999     0     0     0    
2019/07/05  15:58:00  BASE  1.87572  33   2.1168   28   -5.8  95    -6.5  15    0     1004.0   NA       0.0000   9999     0     0     0    
2019/07/05  15:59:00  BASE  1.98156  36   2.21088  33   -5.8  95    -6.5  15    0     1004.0   NA       0.0000   9999     0     0     0    
2019/07/05  16:00:00  BASE  2.01684  39   2.21088  33   -5.8  95    -6.5  15    0     1004.0   NA       0.0000   9999     0     0     0    
2019/07/05  16:01:00  BASE  2.01096  42   2.21088  33   -5.8  95    -6.5  15    0     1003.9   NA       0.0000   9999     0     0     0    
2019/07/05  16:02:00  BASE  1.89336  44   2.21088  33   -5.8  95    -6.5  15    0     1003.9   NA       0.0000   9999     0     0     0    
2019/07/05  16:03:00  BASE  1.74048  45   2.21088  33   -5.8  96    -6.4  15    0     1003.9   NA       0.0000   9999     0     0     0    
2019/07/05  16:04:00  BASE  1.75812  49   2.21088  33   -5.8  96    -6.4  15    0     1003.9   NA       0.0000   9999     0     0     0    
2019/07/05  16:05:00  BASE  1.94628  52   2.26968  48   -5.8  96    -6.4  15    0     1003.9   NA       0.0000   9999     0     0     0    
2019/07/05  16:06:00  BASE  2.13444  51   2.48136  51   -5.8  96    -6.4  16    0     1002.6   NA       0.0000   9999     0     0     0    
2019/07/05  16:07:00  BASE  2.16384  52   2.48136  51   -5.8  96    -6.4  16    0     1003.9   NA       0.0000   9999     0     0     0    
2019/07/05  16:08:00  BASE  2.07564  53   2.48136  51   -5.8  96    -6.3  16    0     1003.9   NA       0.0000   9999     0     0     0    
2019/07/05  16:09:00  BASE  1.97568  51   2.48136  51   -5.8  96    -6.3  16    0     1003.9   NA       0.0000   9999     0     0     0    
2019/07/05  16:10:00  BASE  1.96392  46   2.48136  51   -5.8  96    -6.3  16    0     1003.9   NA       0.0000   9999     0     0     0    
2019/07/05  16:11:00  BASE  1.97568  46   2.48136  51   -5.7  96    -6.3  16    0     1003.9   NA       0.0000   9999     0     0     0    
2019/07/05  16:12:00  BASE  2.06388  47   2.48136  51   -5.7  96    -6.3  16    0     1003.9   NA       0.0000   9999     0     0     0    
2019/07/05  16:13:00  BASE  2.1462   43   2.48136  51   -5.7  96    -6.3  16    0     1003.9   NA       0.0000   9999     0     0     0    
2019/07/05  16:14:00  BASE  2.18148  41   2.48136  51   -5.7  96    -6.3  16    0     1003.9   NA       0.0000   9999     0     0     0    
2019/07/05  16:15:00  BASE  2.205    39   2.48136  51   -5.7  96    -6.3  16    0     1003.9   NA       0.0000   9999     0     0     0    
2019/07/05  16:16:00  BASE  2.058    36   2.35788  40   -5.7  96    -6.3  16    0     1003.9   NA       0.0000   9999     0     0     0    
2019/07/05  16:17:00  BASE  1.96392  34   2.35788  40   -5.7  95    -6.3  16    0     1003.9   NA       0.0000   9999     0     0     0    
2019/07/05  16:18:00  BASE  1.92276  36   2.35788  40   -5.7  95    -6.4  16    0     1003.9   NA       0.0000   9999     0     0     0    
2019/07/05  16:19:00  BASE  1.84044  39   2.35788  40   -5.7  95    -6.4  16    0     1003.9   NA       0.0000   9999     0     0     0    
2019/07/05  16:20:00  BASE  1.76988  42   2.35788  40   -5.7  95    -6.4  16    0     1003.9   NA       0.0000   9999     0     0     0    
2019/07/05  16:21:00  BASE  1.72284  43   2.35788  40   -5.7  95    -6.3  16    0     1003.6   NA       0.0000   9999     0     0     0    
2019/07/05  16:22:00  BASE  1.81692  46   2.35788  40   -5.7  95    -6.3  16    0     1003.3   NA       0.0000   9999     0     0     0    
2019/07/05  16:23:00  BASE  1.77576  45   2.35788  40   -5.6  95    -6.3  16    0     1004.0   NA       0.0000   9999     0     0     0    
2019/07/05  16:24:00  BASE  1.56996  40   2.26968  43   -5.6  96    -6.2  16    0     1004.0   NA       0.0000   9999     0     0     0    
2019/07/05  16:25:00  BASE  1.53468  40   2.1462   35   -5.5  96    -6.1  16    0     1003.8   NA       0.0000   9999     0     0     0    
2019/07/05  16:26:00  BASE  1.46412  38   2.1462   35   -5.5  96    -6.0  16    0     1003.6   NA       0.0000   9999     0     0     0    
2019/07/05  16:27:00  BASE  1.4112   37   2.058    51   -5.4  96    -6.0  16    0     1004.0   NA       0.0000   9999     0     0     0    
2019/07/05  16:28:00  BASE  1.42884  41   2.058    51   -5.4  96    -6.0  16    0     1004.1   NA       0.0000   9999     0     0     0    
2019/07/05  16:29:00  BASE  1.32888  40   2.058    51   -5.3  95    -6.0  16    0     1004.1   NA       0.0000   9999     0     0     0    
2019/07/05  16:30:00  BASE  1.3818   35   2.058    51   -5.3  95    -6.0  16    0     1004.1   NA       0.0000   9999     0     0     0    
2019/07/05  16:31:00  BASE  1.53468  34   2.058    51   -5.4  95    -6.0  16    0     1004.1   NA       0.0000   9999     0     0     0    
2019/07/05  16:32:00  BASE  1.63464  38   1.96392  43   -5.4  95    -6.1  16    0     1004.1   NA       0.0000   9999     0     0     0    
2019/07/05  16:33:00  BASE  1.71696  41   1.90512  41   -5.5  95    -6.2  16    0     1004.1   NA       0.0000   9999     0     0     0    
2019/07/05  16:34:00  BASE  1.89924  41   2.24028  35   -5.5  95    -6.2  16    0     1004.1   NA       0.0000   9999     0     0     0    
2019/07/05  16:35:00  BASE  1.9992   43   2.24028  35   -5.6  95    -6.3  16    0     1004.1   NA       0.0000   9999     0     0     0    
2019/07/05  16:36:00  BASE  2.19324  44   2.69304  42   -5.7  95    -6.3  16    0     1004.1   NA       0.0000   9999     0     0     0    
2019/07/05  16:37:00  BASE  2.31084  44   2.69304  42   -5.7  95    -6.4  16    0     1004.1   NA       0.0000   9999     0     0     0    
2019/07/05  16:38:00  BASE  2.19912  48   2.69304  42   -5.7  95    -6.4  16    0     1004.1   NA       0.0000   9999     0     0     0    
2019/07/05  16:39:00  BASE  2.06388  51   2.69304  42   -5.8  95    -6.4  16    0     1004.1   NA       0.0000   9999     0     0     0    
2019/07/05  16:40:00  BASE  1.96392  56   2.69304  42   -5.8  95    -6.4  16    0     1004.1   NA       0.0000   9999     0     0     0    
2019/07/05  16:41:00  BASE  1.97568  59   2.69304  42   -5.7  95    -6.3  16    0     1004.1   NA       0.0000   9999     0     0     0    
2019/07/05  16:42:00  BASE  2.0286   58   2.69304  42   -5.7  96    -6.3  16    0     1004.1   NA       0.0000   9999     0     0     0    
2019/07/05  16:43:00  BASE  2.0874   57   2.69304  42   -5.6  96    -6.2  16    0     1004.0   NA       0.0000   9999     0     0     0    
2019/07/05  16:44:00  BASE  1.9992   55   2.69304  42   -5.6  96    -6.1  16    0     1003.9   NA       0.0000   9999     0     0     0    
2019/07/05  16:45:00  BASE  1.85808  53   2.69304  42   -5.5  96    -6.1  16    0     1003.6   NA       0.0000   9999     0     0     0    
2019/07/05  16:46:00  BASE  1.74048  54   2.45196  50   -5.5  96    -6.0  16    0     1004.1   NA       0.0000   9999     0     0     0    
2019/07/05  16:47:00  BASE  1.65228  55   2.45196  50   -5.4  96    -6.0  16    0     1004.1   NA       0.0000   9999     0     0     0    
2019/07/05  16:48:00  BASE  1.62876  54   2.21088  57   -5.4  96    -5.9  16    0     1004.1   NA       0.0000   9999     0     0     0    
2019/07/05  16:49:00  BASE  1.617    55   2.21088  57   -5.4  96    -5.9  16    0     1004.1   NA       0.0000   9999     0     0     0    
2019/07/05  16:50:00  BASE  1.53468  57   2.21088  57   -5.3  96    -5.9  16    0     1004.1   NA       0.0000   9999     0     0     0    
2019/07/05  16:51:00  BASE  1.42884  55   2.21088  57   -5.3  96    -5.9  16    0     1004.1   NA       0.0000   9999     0     0     0    
2019/07/05  16:52:00  BASE  1.43472  53   2.21088  57   -5.2  95    -5.9  16    0     1004.1   NA       0.0000   9999     0     0     0    
2019/07/05  16:53:00  BASE  1.46412  53   2.0874   56   -5.2  95    -5.8  16    0     1004.1   NA       0.0000   9999     0     0     0    
2019/07/05  16:54:00  BASE  1.51704  53   1.87572  54   -5.2  95    -5.8  16    0     1004.1   NA       0.0000   9999     0     0     0    
2019/07/05  16:55:00  BASE  1.65816  53   1.87572  54   -5.1  95    -5.8  16    0     1004.1   NA       0.0000   9999     0     0     0    
2019/07/05  16:56:00  BASE  1.75812  52   1.81692  50   -5.1  95    -5.8  16    0     1004.1   NA       0.0000   9999     0     0     0    
2019/07/05  16:57:00  BASE  1.8228   50   2.0286   51   -5.2  95    -5.9  16    0     1004.1   NA       0.0000   9999     0     0     0    
2019/07/05  16:58:00  BASE  1.9992   51   2.21088  52   -5.2  95    -5.9  16    0     1004.1   NA       0.0000   9999     0     0     0    
2019/07/05  16:59:00  BASE  2.21088  52   2.42256  50   -5.2  94    -6.0  16    0     1004.1   NA       0.0000   9999     0     0     0    
2019/07/05  17:00:00  BASE  2.27556  51   2.42256  53   -5.2  94    -6.0  16    0     1004.1   NA       0.0000   9999     0     0     0    
2019/07/05  17:01:00  BASE  2.29908  54   2.45196  55   -5.2  94    -6.1  16    0     1003.5   NA       0.0000   9999     0     0     0    
2019/07/05  17:02:00  BASE  2.3814   57   2.48136  60   -5.3  94    -6.1  17    0     1004.1   NA       0.0000   9999     0     0     0    
2019/07/05  17:03:00  BASE  2.36376  60   2.48136  60   -5.3  94    -6.1  18    0     1004.1   NA       0.0000   9999     0     0     0    
2019/07/05  17:04:00  BASE  2.29908  60   2.48136  60   -5.3  94    -6.1  19    0     1004.1   NA       0.0000   9999     1310  0     0    
2019/07/05  17:05:00  BASE  2.1168   61   2.48136  60   -5.3  94    -6.1  20    0     1004.1   NA       0.0000   9999     1280  0     0    
2019/07/05  17:06:00  BASE  2.01096  59   2.48136  60   -5.3  94    -6.1  22    0     1004.1   NA       0.0000   9999     1250  0     0    
2019/07/05  17:07:00  BASE  2.05212  56   2.48136  60   -5.3  95    -6.0  23    0     1004.1   NA       0.0000   9999     1250  0     0    
2019/07/05  17:08:00  BASE  1.9698   56   2.48136  60   -5.3  95    -6.0  23    0     1004.1   NA       0.0000   9999     1210  0     0    
2019/07/05  17:09:00  BASE  1.86984  60   2.48136  60   -5.2  95    -5.9  24    0     1004.1   NA       0.0000   9999     1210  0     0    
2019/07/05  17:10:00  BASE  1.82868  63   2.48136  60   -5.2  95    -5.9  24    0     1004.1   NA       0.0000   9999     1250  0     0    
2019/07/05  17:11:00  BASE  1.86984  63   2.48136  60   -5.2  95    -5.8  24    0     1004.1   NA       0.0000   9999     1250  0     0    
2019/07/05  17:12:00  BASE  1.90512  62   2.45196  62   -5.1  95    -5.8  24    0     1004.1   NA       0.0000   9999     1250  0     0    
2019/07/05  17:13:00  BASE  1.86396  62   2.38728  59   -5.1  95    -5.7  24    0     1004.1   NA       0.0000   9999     1280  0     0    
2019/07/05  17:14:00  BASE  1.84632  61   2.21088  61   -5.0  95    -5.7  23    0     1004.0   NA       0.0000   9999     0     0     0    
2019/07/05  17:15:00  BASE  1.76988  62   2.21088  61   -5.0  95    -5.6  21    0     1004.0   NA       0.0000   9999     0     0     0    
2019/07/05  17:16:00  BASE  1.6464   70   2.0874   65   -4.9  95    -5.6  20    0     1004.0   NA       0.0000   9999     1350  0     0    
2019/07/05  17:17:00  BASE  1.51704  77   2.0874   65   -4.8  95    -5.5  20    0     1004.1   NA       0.0000   9999     1250  0     0    
2019/07/05  17:18:00  BASE  1.48176  76   2.0874   65   -4.8  95    -5.4  20    0     1004.1   NA       0.0000   9999     1250  0     0    
2019/07/05  17:19:00  BASE  1.49352  72   2.0874   65   -4.7  95    -5.4  20    0     1004.0   NA       0.0000   9999     1210  0     0    
2019/07/05  17:20:00  BASE  1.48176  70   2.0874   65   -4.7  95    -5.4  19    0     1004.0   NA       0.0000   9999     0     0     0    
2019/07/05  17:21:00  BASE  1.4406   69   1.96392  58   -4.7  95    -5.4  18    0     1004.0   NA       0.0000   9999     1210  0     0    
2019/07/05  17:22:00  BASE  1.41708  68   1.93452  57   -4.7  95    -5.4  18    0     1004.0   NA       0.0000   9999     1180  0     0    
2019/07/05  17:23:00  BASE  1.51116  66   1.93452  57   -4.7  95    -5.4  18    0     1003.9   NA       0.0000   9999     1150  0     0    
2019/07/05  17:24:00  BASE  1.50528  63   1.72284  68   -4.7  95    -5.4  18    0     1003.8   NA       0.0000   9999     1250  0     0    
2019/07/05  17:25:00  BASE  1.4994   67   1.72284  67   -4.7  95    -5.4  18    0     1004.0   NA       0.0000   9999     1250  0     0    
2019/07/05  17:26:00  BASE  1.44648  72   1.72284  67   -4.8  95    -5.5  18    0     1004.0   NA       0.0000   9999     1210  0     0    
2019/07/05  17:27:00  BASE  1.44648  70   1.72284  73   -4.8  95    -5.5  18    0     1003.9   NA       0.0000   9999     1150  0     0    
2019/07/05  17:28:00  BASE  1.65228  71   1.90512  71   -4.8  95    -5.5  19    0     1003.9   NA       0.0000   9999     1180  0     0    
2019/07/05  17:29:00  BASE  1.90512  73   2.1462   73   -4.8  95    -5.5  19    0     1003.9   NA       0.0000   9999     1180  0     0    
2019/07/05  17:30:00  BASE  2.08152  73   2.21088  73   -4.8  95    -5.4  19    0     1004.0   NA       0.0000   9999     1210  0     0    
2019/07/05  17:31:00  BASE  2.01684  70   2.21088  73   -4.8  95    -5.4  19    0     1004.0   NA       0.0000   9999     1180  0     0    
2019/07/05  17:32:00  BASE  1.81692  68   2.21088  73   -4.8  96    -5.3  18    0     1004.0   NA       0.0000   9999     1050  0     0    
2019/07/05  17:33:00  BASE  1.59348  79   2.21088  73   -4.8  96    -5.3  18    0     1004.0   NA       0.0000   9999     1180  0     0    
2019/07/05  17:34:00  BASE  1.54056  90   2.21088  73   -4.8  96    -5.3  17    0     1004.0   NA       0.0000   9999     1120  0     0    
2019/07/05  17:35:00  BASE  1.77576  90   2.21088  73   -4.8  96    -5.3  16    0     1004.0   NA       0.0000   9999     1150  0     0    
2019/07/05  17:36:00  BASE  1.81692  93   2.21088  73   -4.8  96    -5.4  16    0     1004.0   NA       0.0000   9999     1080  0     0    
2019/07/05  17:37:00  BASE  1.71108  92   2.38728  82   -4.8  96    -5.3  16    0     1004.0   NA       0.0000   9999     1080  0     0    
2019/07/05  17:38:00  BASE  1.89924  84   2.38728  82   -4.9  96    -5.3  16    0     1004.0   NA       0.0000   9999     1050  0     0    
2019/07/05  17:39:00  BASE  2.19912  83   2.48136  87   -4.9  97    -5.3  16    0     1004.0   NA       0.0000   9999     1080  0     0    
2019/07/05  17:40:00  BASE  2.34612  86   2.81064  87   -4.9  97    -5.3  16    0     1004.0   NA       0.0000   9999     1050  0     0    
2019/07/05  17:41:00  BASE  2.18736  88   2.81064  87   -4.9  97    -5.2  16    0     1004.0   NA       0.0000   9999     1120  0     0    
2019/07/05  17:42:00  BASE  1.9698   89   2.81064  87   -4.8  97    -5.2  16    0     1004.0   NA       0.0000   9999     1180  0     0    
2019/07/05  17:43:00  BASE  1.81104  87   2.81064  87   -4.8  98    -5.1  16    0     1004.0   NA       0.0000   9999     1150  0     0    
2019/07/05  17:44:00  BASE  1.72284  90   2.81064  87   -4.7  98    -5.0  15    0     1004.0   NA       0.0000   9999     1150  0     0    
2019/07/05  17:45:00  BASE  2.01096  93   2.81064  87   -4.8  98    -5.1  13    0     1004.0   NA       0.0000   9999     1080  0     0    
2019/07/05  17:46:00  BASE  2.39316  93   2.81064  87   -4.9  98    -5.2  13    0     1004.0   NA       0.0000   9999     1050  0     0    
2019/07/05  17:47:00  BASE  2.64012  90   2.96352  86   -5.0  98    -5.4  14    0     1004.0   NA       0.0000   9999     1050  0     0    
2019/07/05  17:48:00  BASE  2.65188  88   2.96352  86   -5.2  98    -5.5  14    0     1004.0   NA       0.0000   9999     1080  0     0    
2019/07/05  17:49:00  BASE  2.56368  94   3.02232  100  -5.3  98    -5.6  14    0     1004.0   NA       0.0000   9999     980   0     0    
2019/07/05  17:50:00  BASE  2.6166   96   3.02232  100  -5.3  98    -5.6  14    0     1003.9   NA       0.0000   9999     1080  0     0    
2019/07/05  17:51:00  BASE  2.59896  92   3.02232  100  -5.2  98    -5.5  13    0     1003.9   NA       0.0000   9999     1020  0     0    
2019/07/05  17:52:00  BASE  2.37552  88   3.02232  100  -5.2  99    -5.4  12    0     1003.9   NA       0.0000   9999     1120  0     0    
2019/07/05  17:53:00  BASE  2.28144  83   3.02232  100  -5.2  99    -5.4  12    0     1004.0   NA       0.0000   9999     1180  0     0    
2019/07/05  17:54:00  BASE  2.31672  78   3.02232  100  -5.2  99    -5.3  12    0     1004.0   NA       0.0000   9999     1250  0     0    
2019/07/05  17:55:00  BASE  2.12856  78   3.02232  100  -5.1  99    -5.3  11    0     1004.0   NA       0.0000   9999     1210  0     0    
2019/07/05  17:56:00  BASE  1.9992   84   3.02232  100  -5.1  99    -5.3  12    0     1004.0   NA       0.0000   9999     1180  0     0    
2019/07/05  17:57:00  BASE  2.09916  85   3.02232  100  -5.2  99    -5.3  12    0     1004.0   NA       0.0000   9999     1120  0     0    
2019/07/05  17:58:00  BASE  2.22264  79   3.02232  100  -5.2  99    -5.2  12    0     1004.0   NA       0.0000   9999     1080  0     0    
2019/07/05  17:59:00  BASE  2.13444  71   2.93412  98   -5.1  100   -5.2  12    0     1004.0   NA       0.0000   9999     1150  0     0    
2019/07/05  18:00:00  BASE  2.06976  67   2.63424  87   -5.1  100   -5.1  12    0     1004.0   NA       0.0000   9999     950   0     0    
2019/07/05  18:01:00  BASE  2.1756   68   2.84592  77   -5.0  100   -5.0  12    0     1004.0   NA       0.0000   9999     1020  0     0    
2019/07/05  18:02:00  BASE  2.2932   70   2.84592  77   -4.9  100   -4.9  12    0     1004.0   NA       0.0000   9999     1180  0     0    
2019/07/05  18:03:00  BASE  2.3226   70   2.84592  77   -4.8  100   -4.8  11    0     1004.0   NA       0.0000   9999     1120  0     0    
2019/07/05  18:04:00  BASE  2.36376  70   2.84592  77   -4.8  100   -4.8  10    0     1004.1   NA       0.0000   9999     1180  0     0    
2019/07/05  18:05:00  BASE  2.35788  72   2.84592  77   -4.8  100   -4.8  10    0     1004.0   NA       0.0000   9999     1150  0     0    
2019/07/05  18:06:00  BASE  1.95804  76   2.84592  77   -4.9  100   -4.9  10    0     1004.0   NA       0.0000   9999     1050  0     0    
2019/07/05  18:07:00  BASE  1.65228  77   2.84592  77   -4.9  100   -4.9  10    0     1004.0   NA       0.0000   9999     1080  0     0    
2019/07/05  18:08:00  BASE  1.77576  67   2.84592  77   -4.9  100   -4.9  9     0     1004.0   NA       0.0000   9999     1020  0     0    
2019/07/05  18:09:00  BASE  1.62876  59   2.84592  77   -4.9  100   -4.9  9     0     1004.0   NA       0.0000   9999     980   0     0    
2019/07/05  18:10:00  BASE  1.33476  66   2.84592  77   -4.8  100   -4.8  9     0     1004.0   NA       0.0000   9999     1020  0     0    
2019/07/05  18:11:00  BASE  1.10544  84   2.63424  66   -4.7  100   -4.7  8     0     1004.1   NA       0.0000   9999     1080  0     0    
2019/07/05  18:12:00  BASE  0.9996   86   2.63424  66   -4.6  100   -4.6  8     0     1004.1   NA       0.0000   9999     1080  0     0    
2019/07/05  18:13:00  BASE  1.25832  72   2.63424  66   -4.6  100   -4.6  7     0     1004.1   NA       0.0000   9999     1120  0     0    
2019/07/05  18:14:00  BASE  1.4406   68   2.35788  79   -4.6  100   -4.6  7     0     1004.1   NA       0.0000   9999     1120  0     0    
2019/07/05  18:15:00  BASE  1.25832  67   2.26968  61   -4.6  100   -4.6  7     0     1004.1   NA       0.0000   9999     950   0     0    
2019/07/05  18:16:00  BASE  1.09956  60   2.26968  61   -4.6  100   -4.6  7     0     1004.1   NA       0.0000   9999     980   0     0    
2019/07/05  18:17:00  BASE  1.15836  57   2.26968  61   -4.6  100   -4.6  7     0     1004.1   NA       0.0000   9999     1080  0     0    
2019/07/05  18:18:00  BASE  1.21716  67   1.84632  65   -4.6  100   -4.6  7     0     1004.1   NA       0.0000   9999     1120  0     0    
2019/07/05  18:19:00  BASE  1.39944  70   1.84632  65   -4.6  100   -4.6  6     0     1004.1   NA       0.0000   9999     1120  0     0    
2019/07/05  18:20:00  BASE  1.45824  65   1.81692  69   -4.6  100   -4.6  6     0     1004.1   NA       0.0000   9999     1150  0     0    
2019/07/05  18:21:00  BASE  1.28772  75   1.81692  69   -4.6  100   -4.6  6     0     1004.1   NA       0.0000   9999     1050  0     0    
2019/07/05  18:22:00  BASE  1.29948  77   1.81692  69   -4.6  100   -4.6  6     0     1004.1   NA       0.0000   9999     980   0     0    
2019/07/05  18:23:00  BASE  1.53468  71   1.9992   75   -4.7  100   -4.7  6     0     1004.1   NA       0.0000   9999     1080  0     0    
2019/07/05  18:24:00  BASE  1.60524  76   1.9992   75   -4.7  100   -4.7  6     0     1004.1   NA       0.0000   9999     1020  0     0    
2019/07/05  18:25:00  BASE  1.63464  78   2.29908  66   -4.7  100   -4.7  6     0     1004.1   NA       0.0000   9999     1050  0     0    
2019/07/05  18:26:00  BASE  1.81692  80   2.42256  73   -4.6  100   -4.6  5     0     1004.2   NA       0.0000   9999     1120  0     0    
2019/07/05  18:27:00  BASE  2.02272  79   2.42256  73   -4.6  100   -4.6  5     0     1004.2   NA       0.0000   9999     1120  0     0    
2019/07/05  18:28:00  BASE  2.15796  77   2.42256  73   -4.7  100   -4.7  5     0     1004.1   NA       0.0000   9999     1120  0     0    
2019/07/05  18:29:00  BASE  2.52252  77   3.62796  70   -4.7  100   -4.7  5     0     1004.2   NA       0.0000   9999     1120  0     0    
2019/07/05  18:30:00  BASE  2.89884  75   3.62796  70   -4.7  100   -4.7  5     0     1004.2   NA       0.0000   9999     1150  0     0    
2019/07/05  18:31:00  BASE  3.09288  74   3.62796  70   -4.8  100   -4.8  5     0     1004.2   NA       0.0000   9999     1080  0     0    
2019/07/05  18:32:00  BASE  3.16932  73   3.62796  70   -4.8  100   -4.8  5     0     1004.2   NA       0.0000   9999     1080  0     0    
2019/07/05  18:33:00  BASE  2.85768  76   3.62796  70   -4.8  100   -4.8  5     0     1004.2   NA       0.0000   9999     1050  0     0    
2019/07/05  18:34:00  BASE  2.60484  78   3.62796  70   -4.8  100   -4.8  5     0     1004.2   NA       0.0000   9999     950   0     0    
2019/07/05  18:35:01  BASE  2.37552  75   3.62796  70   -4.8  100   -4.8  4     0     1004.2   NA       0.0000   9999     950   0     0    
2019/07/05  18:36:00  BASE  2.18736  78   3.62796  70   -4.7  100   -4.7  4     0     1004.2   NA       0.0000   9999     1150  0     0    
2019/07/05  18:37:00  BASE  2.0874   84   3.62796  70   -4.7  100   -4.7  4     0     1004.2   NA       0.0000   9999     1080  0     0    
2019/07/05  18:38:00  BASE  1.88748  85   3.62796  70   -4.7  100   -4.7  4     0     1004.2   NA       0.0000   9999     1080  0     0    
2019/07/05  18:39:00  BASE  2.32848  72   3.59856  73   -4.7  100   -4.7  4     0     1004.2   NA       0.0000   9999     1050  0     0    
2019/07/05  18:40:00  BASE  2.98704  63   3.59856  73   -4.8  100   -4.8  4     0     1004.2   NA       0.0000   9999     950   0     0    
2019/07/05  18:41:00  BASE  2.91648  65   3.48096  56   -4.8  100   -4.8  4     0     1004.1   NA       0.0000   9999     950   0     0    
2019/07/05  18:42:00  BASE  2.71068  65   3.48096  56   -4.9  100   -4.9  4     0     1004.1   NA       0.0000   9999     950   0     0    
2019/07/05  18:43:00  BASE  2.68128  63   3.48096  56   -4.9  100   -4.9  3     0     1004.1   NA       0.0000   9999     1020  0     0    
2019/07/05  18:44:00  BASE  2.59896  67   3.48096  56   -4.9  100   -4.9  3     0     1004.1   NA       0.0000   9999     1020  0     0    
2019/07/05  18:45:00  BASE  2.71068  69   3.48096  56   -4.9  100   -4.9  3     0     1004.1   NA       0.0000   9999     1050  0     0    
2019/07/05  18:46:00  BASE  2.82828  63   3.48096  56   -4.9  100   -4.9  3     0     1004.1   NA       0.0000   9999     950   0     0    
2019/07/05  18:47:00  BASE  2.793    60   3.48096  56   -4.9  100   -4.9  3     0     1004.1   NA       0.0000   9999     950   0     0    
2019/07/05  18:48:00  BASE  2.7342   66   3.48096  56   -4.9  100   -4.9  3     0     1004.1   NA       0.0000   9999     1050  0     0    
2019/07/05  18:49:00  BASE  2.78712  71   3.48096  56   -4.9  100   -4.9  3     0     1004.1   NA       0.0000   9999     1080  0     0    
2019/07/05  18:50:00  BASE  3.06936  73   3.62796  79   -4.9  100   -4.9  3     0     1004.1   NA       0.0000   9999     1020  0     0    
2019/07/05  18:51:00  BASE  3.28692  74   3.62796  79   -4.9  100   -4.9  3     0     1004.1   NA       0.0000   9999     920   0     0    
2019/07/05  18:52:00  BASE  3.35748  73   3.78084  71   -5.0  100   -5.0  2     0     1004.1   NA       0.0000   9999     920   0     0    
2019/07/05  18:53:00  BASE  3.4398   70   3.86904  63   -5.0  100   -5.0  2     0     1004.1   NA       0.0000   9999     950   0     0    
2019/07/05  18:54:00  BASE  3.33396  71   3.86904  63   -5.0  100   -5.1  2     0     1004.1   NA       0.0000   9999     980   0     0    
2019/07/05  18:55:00  BASE  2.94588  80   3.86904  63   -5.1  100   -5.1  2     0     1004.1   NA       0.0000   9999     980   0     0    
2019/07/05  18:56:00  BASE  2.63424  82   3.86904  63   -5.1  100   -5.1  2     0     1004.1   NA       0.0000   9999     950   0     0    
2019/07/05  18:57:00  BASE  2.59308  76   3.86904  63   -5.1  100   -5.1  2     0     1004.1   NA       0.0000   9999     950   0     0    
2019/07/05  18:58:00  BASE  2.7048   62   3.86904  63   -5.1  100   -5.1  2     0     1004.1   NA       0.0000   9999     950   0     0    
2019/07/05  18:59:00  BASE  2.86944  52   3.86904  63   -5.1  100   -5.1  2     0     1004.1   NA       0.0000   9999     890   0     0    
2019/07/05  19:00:00  BASE  2.65776  58   3.86904  63   -5.1  100   -5.1  2     0     1004.1   NA       0.0000   9999     920   0     0    
2019/07/05  19:01:00  BASE  2.10504  72   3.86904  63   -5.1  100   -5.1  2     0     1004.1   NA       0.0000   9999     980   0     0    
2019/07/05  19:02:00  BASE  1.78752  83   3.86904  63   -5.1  100   -5.1  2     0     1004.1   NA       0.0000   9999     980   0     0    
2019/07/05  19:03:00  BASE  1.8816   79   3.53976  53   -5.1  100   -5.1  2     0     1004.1   NA       0.0000   9999     0     0     0    
2019/07/05  19:04:00  BASE  2.04036  79   3.53976  53   -5.2  100   -5.2  2     0     1004.1   NA       0.0000   9999     0     0     0    
2019/07/05  19:05:00  BASE  2.058    76   3.53976  53   -5.2  100   -5.2  2     0     1004.1   NA       0.0000   9999     0     0     0    
2019/07/05  19:06:00  BASE  1.8816   63   3.53976  53   -5.1  100   -5.1  1     0     1004.1   NA       0.0000   9999     0     0     0    
2019/07/05  19:07:00  BASE  1.64052  58   3.53976  53   -5.1  100   -5.1  1     0     1004.1   NA       0.0000   9999     0     0     0    
2019/07/05  19:08:00  BASE  1.86396  64   3.1164   50   -5.0  100   -5.0  1     0     1004.0   NA       0.0000   9999     0     0     0    
2019/07/05  19:09:00  BASE  2.15208  66   2.81064  49   -4.9  100   -4.9  1     0     1004.0   NA       0.0000   9999     0     0     0    
2019/07/05  19:10:00  BASE  1.97568  61   2.42256  62   -4.9  100   -4.9  1     0     1004.0   NA       0.0000   9999     0     0     0    
2019/07/05  19:11:00  BASE  1.9992   66   2.48136  70   -4.9  100   -4.9  1     0     1004.0   NA       0.0000   9999     0     0     0    
2019/07/05  19:12:00  BASE  2.08152  68   2.48136  70   -4.9  100   -4.9  1     0     1004.0   NA       0.0000   9999     0     0     0    
2019/07/05  19:13:00  BASE  1.9992   60   2.48136  70   -4.9  100   -4.9  1     0     1004.0   NA       0.0000   9999     0     0     0    
2019/07/05  19:14:00  BASE  1.87572  54   2.48136  70   -4.9  100   -4.9  1     0     1004.0   NA       0.0000   9999     0     0     0    
2019/07/05  19:15:00  BASE  1.89336  54   2.48136  70   -4.9  100   -4.9  1     0     1004.0   NA       0.0000   9999     0     0     0    
2019/07/05  19:16:00  BASE  1.9992   55   2.48136  70   -4.9  100   -4.9  1     0     1004.0   NA       0.0000   9999     0     0     0    
2019/07/05  19:17:00  BASE  1.83456  54   2.48136  70   -4.8  100   -4.8  1     0     1004.1   NA       0.0000   9999     0     0     0    
2019/07/05  19:18:00  BASE  1.72872  53   2.48136  70   -4.8  100   -4.8  1     0     1004.1   NA       0.0000   9999     0     0     0    
2019/07/05  19:19:00  BASE  1.91688  54   2.54016  63   -4.8  100   -4.8  1     0     1004.1   NA       0.0000   9999     0     0     0    
2019/07/05  19:20:00  BASE  2.19912  56   2.54016  63   -4.8  100   -4.8  1     0     1004.1   NA       0.0000   9999     0     0     0    
2019/07/05  19:21:00  BASE  2.36376  58   2.54016  57   -4.8  100   -4.8  0     0     1004.1   NA       0.0000   9999     0     0     0    
2019/07/05  19:22:00  BASE  2.3226   63   2.54016  57   -4.8  100   -4.8  0     0     1004.1   NA       0.0000   9999     0     0     0    
2019/07/05  19:23:00  BASE  2.12268  63   2.54016  57   -4.8  100   -4.8  0     0     1004.1   NA       0.0000   9999     0     0     0    
2019/07/05  19:24:00  BASE  1.98156  58   2.54016  57   -4.8  100   -4.8  0     0     1004.1   NA       0.0000   9999     0     0     0    
2019/07/05  19:25:00  BASE  1.91688  56   2.54016  57   -4.8  100   -4.8  0     0     1004.1   NA       0.0000   9999     0     0     0    
2019/07/05  19:26:00  BASE  1.81692  58   2.54016  57   -4.8  100   -4.8  0     0     1004.1   NA       0.0000   9999     0     0     0    
2019/07/05  19:27:00  BASE  1.63464  62   2.54016  57   -4.7  100   -4.7  0     0     1004.1   NA       0.0000   9999     0     0     0    
2019/07/05  19:28:00  BASE  1.5582   58   2.54016  57   -4.7  100   -4.7  0     0     1004.0   NA       0.0000   9999     0     0     0    
2019/07/05  19:29:00  BASE  1.44648  57   2.54016  57   -4.7  100   -4.7  0     0     1004.0   NA       0.0000   9999     0     0     0    
2019/07/05  19:30:00  BASE  1.44648  58   2.54016  57   -4.6  100   -4.6  0     0     1004.0   NA       0.0000   9999     0     0     0    
2019/07/05  19:31:00  BASE  1.59348  59   2.42256  60   -4.6  100   -4.6  0     0     1004.0   NA       0.0000   9999     0     0     0    
2019/07/05  19:32:00  BASE  1.45236  61   2.1462   48   -4.6  100   -4.6  0     0     1004.0   NA       0.0000   9999     0     0     0    
2019/07/05  19:33:00  BASE  1.39356  60   2.1462   48   -4.6  100   -4.6  0     0     1004.0   NA       0.0000   9999     0     0     0    
2019/07/05  19:34:00  BASE  1.68168  63   2.21088  60   -4.6  100   -4.6  0     0     1004.0   NA       0.0000   9999     0     0     0    
2019/07/05  19:35:00  BASE  2.09328  62   2.48136  65   -4.6  100   -4.6  0     0     1004.0   NA       0.0000   9999     0     0     0    
2019/07/05  19:36:00  BASE  2.42256  60   2.69304  60   -4.7  100   -4.7  0     0     1004.0   NA       0.0000   9999     0     0     0    
2019/07/05  19:37:00  BASE  2.59308  62   2.75184  62   -4.7  100   -4.7  0     0     1004.0   NA       0.0000   9999     0     0     0    
2019/07/05  19:38:00  BASE  2.61072  63   2.75184  62   -4.8  100   -4.8  0     0     1004.0   NA       0.0000   9999     0     0     0    
2019/07/05  19:39:00  BASE  2.59896  64   2.81064  68   -4.8  100   -4.8  0     0     1004.0   NA       0.0000   9999     0     0     0    
2019/07/05  19:40:00  BASE  2.75184  65   3.1164   65   -4.8  100   -4.8  0     0     1004.0   NA       0.0000   9999     0     0     0    
2019/07/05  19:41:00  BASE  2.94     62   3.1752   62   -4.8  100   -4.8  0     0     1004.0   NA       0.0000   9999     0     0     0    
2019/07/05  19:42:00  BASE  2.7342   62   3.1752   62   -4.9  100   -4.9  0     0     1004.1   NA       0.0000   9999     0     0     0    
2019/07/05  19:43:00  BASE  2.26968  70   3.1752   62   -4.8  100   -4.8  0     0     1004.1   NA       0.0000   9999     0     0     0    
2019/07/05  19:44:00  BASE  2.15208  81   3.1752   62   -4.8  100   -4.8  0     0     1004.1   NA       0.0000   9999     0     0     0    
2019/07/05  19:45:00  BASE  2.03448  83   3.1752   62   -4.8  100   -4.8  0     0     1004.1   NA       0.0000   9999     0     0     0    
2019/07/05  19:46:00  BASE  1.90512  83   3.1752   62   -4.7  100   -4.7  0     0     1004.0   NA       0.0000   9999     0     0     0    
2019/07/05  19:47:00  BASE  1.77576  79   3.1752   62   -4.6  100   -4.6  0     0     1004.0   NA       0.0000   9999     0     0     0    
2019/07/05  19:48:00  BASE  1.764    75   3.1752   62   -4.6  100   -4.6  0     0     1004.0   NA       0.0000   9999     0     0     0    
2019/07/05  19:49:00  BASE  1.93452  75   3.1752   62   -4.6  100   -4.6  0     0     1004.0   NA       0.0000   9999     0     0     0    
2019/07/05  19:50:00  BASE  1.75812  73   3.1752   62   -4.5  100   -4.5  0     0     1004.1   NA       0.0000   9999     0     0     0    
2019/07/05  19:51:00  BASE  1.47588  79   2.75184  61   -4.5  100   -4.5  0     0     1004.1   NA       0.0000   9999     0     0     0    
2019/07/05  19:52:00  BASE  1.24656  93   2.42256  78   -4.5  100   -4.5  0     0     1004.1   NA       0.0000   9999     0     0     0    
2019/07/05  19:53:00  BASE  1.176    97   2.42256  78   -4.4  100   -4.4  0     0     1004.1   NA       0.0000   9999     0     0     0    
2019/07/05  19:54:00  BASE  1.22304  84   2.35788  78   -4.4  100   -4.4  0     0     1004.1   NA       0.0000   9999     0     0     0    
2019/07/05  19:55:00  BASE  1.04664  71   2.35788  78   -4.4  100   -4.4  0     0     1004.1   NA       0.0000   9999     0     0     0    
2019/07/05  19:56:00  BASE  0.8526   64   2.32848  78   -4.4  100   -4.4  0     0     1004.1   NA       0.0000   9999     0     0     0    
2019/07/05  19:57:00  BASE  0.882    55   2.32848  78   -4.4  100   -4.4  0     0     1004.1   NA       0.0000   9999     0     0     0    
2019/07/05  19:58:00  BASE  1.04076  46   2.32848  78   -4.4  100   -4.4  0     0     1004.1   NA       0.0000   9999     0     0     0    
2019/07/05  19:59:00  BASE  0.95256  38   1.78752  75   -4.3  100   -4.3  0     0     1004.1   NA       0.0000   9999     0     0     0    
2019/07/05  20:00:01  BASE  0.49392  29   1.72284  83   -4.3  100   -4.3  0     0     1004.1   NA       0.0000   9999     0     0     0    
2019/07/05  20:01:00  BASE  0.11172  26   1.72284  83   -4.2  100   -4.2  0     0     1004.1   NA       0.0000   9999     0     0     0    
2019/07/05  20:02:00  BASE  0        34   1.72284  83   -4.2  100   -4.2  0     0     1004.1   NA       0.0000   9999     0     0     0    
2019/07/05  20:03:00  BASE  0        53   1.48176  67   -4.2  100   -4.2  0     0     1004.1   NA       0.0000   9999     0     0     0    
2019/07/05  20:04:00  BASE  0        68   1.29948  28   -4.1  100   -4.1  0     0     1004.1   NA       0.0000   9999     0     0     0    
2019/07/05  20:05:00  BASE  0.19404  78   1.29948  28   -4.1  100   -4.1  0     0     1004.1   NA       0.0000   9999     0     0     0    
2019/07/05  20:06:00  BASE  0.19404  77   1.29948  28   -4.1  100   -4.1  0     0     1004.1   NA       0.0000   9999     0     0     0    
2019/07/05  20:07:00  BASE  0        65   1.29948  28   -4.1  100   -4.1  0     0     1004.1   NA       0.0000   9999     0     0     0    
2019/07/05  20:08:00  BASE  0        53   1.0584   33   -4.2  100   -4.2  0     0     1004.1   NA       0.0000   9999     0     0     0    
2019/07/05  20:09:00  BASE  0.05292  29   0.72324  85   -4.2  100   -4.2  0     0     1004.1   NA       0.0000   9999     0     0     0    
2019/07/05  20:10:00  BASE  0.51744  20   1.029    26   -4.2  100   -4.2  0     0     1004.1   NA       0.0000   9999     0     0     0    
2019/07/05  20:11:00  BASE  0.95844  30   1.0878   41   -4.2  100   -4.2  0     0     1004.1   NA       0.0000   9999     0     0     0    
2019/07/05  20:12:00  BASE  0.97608  34   1.0878   37   -4.3  100   -4.3  0     0     1004.1   NA       0.0000   9999     0     0     0    
2019/07/05  20:13:00  BASE  1.01136  32   1.1172   31   -4.3  100   -4.3  0     0     1004.1   NA       0.0000   9999     0     0     0    
2019/07/05  20:14:00  BASE  1.03488  28   1.1172   31   -4.3  100   -4.3  0     0     1004.1   NA       0.0000   9999     0     0     0    
2019/07/05  20:15:00  BASE  1.12308  27   1.42296  30   -4.4  100   -4.4  0     0     1004.1   NA       0.0000   9999     0     0     0    
2019/07/05  20:16:00  BASE  1.27008  35   1.93452  45   -4.4  100   -4.4  0     0     1004.1   NA       0.0000   9999     0     0     0    
2019/07/05  20:17:00  BASE  1.59348  43   1.96392  49   -4.5  100   -4.5  0     0     1004.1   NA       0.0000   9999     0     0     0    
2019/07/05  20:18:00  BASE  1.84044  45   1.96392  49   -4.5  100   -4.5  0     0     1004.1   NA       0.0000   9999     0     0     0    
2019/07/05  20:19:00  BASE  1.71108  44   1.96392  49   -4.6  100   -4.6  0     0     1004.1   NA       0.0000   9999     0     0     0    
2019/07/05  20:20:00  BASE  1.48764  49   1.96392  49   -4.6  100   -4.6  0     0     1004.1   NA       0.0000   9999     0     0     0    
2019/07/05  20:21:00  BASE  1.3524   55   1.96392  49   -4.6  100   -4.6  0     0     1004.1   NA       0.0000   9999     0     0     0    
2019/07/05  20:22:00  BASE  1.4406   55   1.96392  49   -4.5  100   -4.5  0     0     1004.1   NA       0.0000   9999     0     0     0    
2019/07/05  20:23:00  BASE  1.54644  52   1.96392  49   -4.5  100   -4.5  0     0     1004.1   NA       0.0000   9999     0     0     0    
2019/07/05  20:24:00  BASE  1.45824  51   1.96392  49   -4.4  100   -4.5  0     0     1004.1   NA       0.0000   9999     0     0     0    
2019/07/05  20:25:00  BASE  1.15836  45   1.96392  49   -4.4  100   -4.4  0     0     1004.1   NA       0.0000   9999     0     0     0    
2019/07/05  20:26:00  BASE  0.882    44   1.96392  49   -4.4  100   -4.4  0     0     1004.1   NA       0.0000   9999     0     0     0    
2019/07/05  20:27:00  BASE  0.85848  51   1.93452  45   -4.4  100   -4.4  0     0     1004.1   NA       0.0000   9999     0     0     0    
2019/07/05  20:28:00  BASE  1.01136  48   1.84632  45   -4.4  100   -4.4  0     0     1004.2   NA       0.0000   9999     0     0     0    
2019/07/05  20:29:00  BASE  1.1172   43   1.66404  50   -4.3  100   -4.3  0     0     1004.2   NA       0.0000   9999     0     0     0    
2019/07/05  20:30:00  BASE  1.0584   41   1.66404  50   -4.4  100   -4.4  0     0     1004.2   NA       0.0000   9999     0     0     0    
2019/07/05  20:31:00  BASE  1.04076  39   1.66404  50   -4.4  100   -4.4  0     0     1004.2   NA       0.0000   9999     0     0     0    
2019/07/05  20:32:00  BASE  1.07604  42   1.66404  50   -4.4  100   -4.4  0     0     1004.2   NA       0.0000   9999     0     0     0    
2019/07/05  20:33:00  BASE  1.09368  44   1.57584  52   -4.5  100   -4.5  0     0     1004.1   NA       0.0000   9999     0     0     0    
2019/07/05  20:34:00  BASE  1.1466   43   1.48176  44   -4.5  100   -4.5  0     0     1004.1   NA       0.0000   9999     0     0     0    
2019/07/05  20:35:00  BASE  1.19952  46   1.35828  46   -4.6  100   -4.6  0     0     1004.1   NA       0.0000   9999     0     0     0    
2019/07/05  20:36:00  BASE  1.27008  51   1.39356  55   -4.6  100   -4.6  0     0     1004.1   NA       0.0000   9999     0     0     0    
2019/07/05  20:37:00  BASE  1.31124  56   1.51116  59   -4.6  100   -4.6  0     0     1004.1   NA       0.0000   9999     0     0     0    
2019/07/05  20:38:00  BASE  1.31712  59   1.51116  59   -4.6  100   -4.6  0     0     1004.1   NA       0.0000   9999     0     0     0    
2019/07/05  20:39:00  BASE  1.27596  57   1.51116  59   -4.6  100   -4.6  0     0     1004.1   NA       0.0000   9999     0     0     0    
2019/07/05  20:40:00  BASE  1.21716  54   1.51116  59   -4.6  100   -4.6  0     0     1004.1   NA       0.0000   9999     0     0     0    
2019/07/05  20:41:00  BASE  1.176    52   1.51116  59   -4.6  100   -4.6  0     0     1004.1   NA       0.0000   9999     0     0     0    
2019/07/05  20:42:00  BASE  1.24656  59   1.51116  72   -4.5  100   -4.5  0     0     1004.1   NA       0.0000   9999     0     0     0    
2019/07/05  20:43:00  BASE  1.39356  68   1.54056  69   -4.5  100   -4.5  0     0     1004.1   NA       0.0000   9999     0     0     0    
2019/07/05  20:44:00  BASE  1.48764  68   1.60524  65   -4.4  100   -4.4  0     0     1004.1   NA       0.0000   9999     0     0     0    
2019/07/05  20:45:00  BASE  1.47588  64   1.60524  65   -4.4  100   -4.4  0     0     1004.1   NA       0.0000   9999     0     0     0    
2019/07/05  20:46:00  BASE  1.28184  60   1.60524  65   -4.4  100   -4.5  0     0     1004.1   NA       0.0000   9999     0     0     0    
2019/07/05  20:47:00  BASE  1.21716  60   1.60524  65   -4.5  99    -4.5  0     0     1004.1   NA       0.0000   9999     0     0     0    
2019/07/05  20:48:00  BASE  1.35828  60   1.60524  65   -4.5  99    -4.6  0     0     1004.0   NA       0.0000   9999     0     0     0    
2019/07/05  20:49:00  BASE  1.5288   61   1.72284  61   -4.5  99    -4.7  0     0     1004.1   NA       0.0000   9999     0     0     0    
2019/07/05  20:50:00  BASE  1.5876   61   1.75224  66   -4.6  99    -4.7  0     0     1004.1   NA       0.0000   9999     0     0     0    
2019/07/05  20:51:00  BASE  1.6464   65   1.87572  72   -4.6  99    -4.7  0     0     1004.1   NA       0.0000   9999     0     0     0    
2019/07/05  20:52:00  BASE  1.7052   71   1.87572  72   -4.6  99    -4.7  0     0     1004.1   NA       0.0000   9999     0     0     0    
2019/07/05  20:53:00  BASE  1.57584  80   1.87572  72   -4.7  99    -4.8  0     0     1004.1   NA       0.0000   9999     0     0     0    
2019/07/05  20:54:00  BASE  1.48764  90   1.87572  72   -4.7  99    -4.9  0     0     1004.1   NA       0.0000   9999     0     0     0    
2019/07/05  20:55:00  BASE  1.39356  86   1.87572  72   -4.7  99    -4.9  0     0     1004.1   NA       0.0000   9999     0     0     0    
2019/07/05  20:56:00  BASE  1.27008  82   1.87572  72   -4.7  99    -4.9  0     0     1004.1   NA       0.0000   9999     0     0     0    
2019/07/05  20:57:00  BASE  1.24068  78   1.87572  72   -4.7  99    -4.8  0     0     1004.1   NA       0.0000   9999     0     0     0    
2019/07/05  20:58:00  BASE  1.27596  69   1.87572  72   -4.5  99    -4.7  0     0     1004.1   NA       0.0000   9999     0     0     0    
2019/07/05  20:59:00  BASE  0.99372  68   1.87572  72   -4.4  99    -4.6  0     0     1004.1   NA       0.0000   9999     0     0     0    
2019/07/05  21:00:00  BASE  0.7938   74   1.87572  72   -4.3  98    -4.5  0     0     1004.1   NA       0.0000   9999     0     0     0    
2019/07/05  21:01:00  BASE  0.89964  72   1.75224  74   -4.2  98    -4.5  0     0     1004.1   NA       0.0000   9999     0     0     0    
2019/07/05  21:02:00  BASE  0.57624  58   1.63464  99   -4.2  98    -4.4  0     0     1004.1   NA       0.0000   9999     0     0     0    
2019/07/05  21:03:00  BASE  0.21756  43   1.54056  86   -4.1  98    -4.4  0     0     1004.1   NA       0.0000   9999     0     0     0    
2019/07/05  21:04:00  BASE  0.34692  32   1.45236  76   -4.0  98    -4.4  0     0     1004.1   NA       0.0000   9999     0     0     0    
2019/07/05  21:05:00  BASE  0.41748  32   1.42296  73   -4.0  97    -4.4  0     0     1004.1   NA       0.0000   9999     0     0     0    
2019/07/05  21:06:00  BASE  0.29988  29   1.42296  73   -4.1  97    -4.5  0     0     1004.1   NA       0.0000   9999     0     0     0    
2019/07/05  21:07:00  BASE  0.25284  24   1.42296  73   -4.1  96    -4.6  0     0     1004.1   NA       0.0000   9999     0     0     0    
2019/07/05  21:08:00  BASE  0.1176   16   1.21128  97   -4.2  96    -4.7  0     0     1004.1   NA       0.0000   9999     0     0     0    
2019/07/05  21:09:00  BASE  0        7    1.21128  97   -4.2  96    -4.8  0     0     1004.1   NA       0.0000   9999     0     0     0    
2019/07/05  21:10:00  BASE  0        7    1.0878   69   -4.2  96    -4.7  0     0     1004.1   NA       0.0000   9999     0     0     0    
2019/07/05  21:11:00  BASE  0        7    0.84672  37   -4.2  96    -4.7  0     0     1004.1   NA       0.0000   9999     0     0     0    
2019/07/05  21:12:00  BASE  0.0294   360  0.84672  37   -4.1  96    -4.7  0     0     1004.1   NA       0.0000   9999     0     0     0    
2019/07/05  21:13:00  BASE  0.15876  360  0.81732  38   -4.0  95    -4.7  0     0     1004.1   NA       0.0000   9999     0     0     0    
2019/07/05  21:14:00  BASE  0.2646   9    0.81732  38   -4.0  95    -4.7  0     0     1004.1   NA       0.0000   9999     0     0     0    
2019/07/05  21:15:00  BASE  0.15876  7    0.81732  38   -4.0  95    -4.8  0     0     1004.1   NA       0.0000   9999     0     0     0    
2019/07/05  21:16:00  BASE  0.02352  2    0.81732  38   -4.0  94    -4.8  0     0     1004.1   NA       0.0000   9999     0     0     0    
2019/07/05  21:17:00  BASE  0.08232  2    0.69384  360  -4.0  94    -4.8  0     0     1004.1   NA       0.0000   9999     0     0     0    
2019/07/05  21:18:00  BASE  0.34692  7    0.81732  17   -4.1  94    -4.9  0     0     1004.1   NA       0.0000   9999     0     0     0    
2019/07/05  21:19:00  BASE  0.54684  8    0.81732  17   -4.1  94    -4.9  0     0     1004.1   NA       0.0000   9999     0     0     0    
2019/07/05  21:20:00  BASE  0.51156  1    0.81732  17   -4.2  94    -5.0  0     0     1004.1   NA       0.0000   9999     0     0     0    
2019/07/05  21:21:00  BASE  0.4116   358  0.81732  17   -4.3  93    -5.2  0     0     1004.1   NA       0.0000   9999     0     0     0    
2019/07/05  21:22:00  BASE  0.65268  357  1.1466   5    -4.4  93    -5.3  0     0     1004.2   NA       0.0000   9999     0     0     0    
2019/07/05  21:23:00  BASE  1.07016  2    1.42296  10   -4.5  93    -5.5  0     0     1004.2   NA       0.0000   9999     0     0     0    
2019/07/05  21:24:00  BASE  1.34652  9    1.69344  9    -4.6  94    -5.5  0     0     1004.2   NA       0.0000   9999     0     0     0    
2019/07/05  21:25:00  BASE  1.62876  11   1.90512  10   -4.7  94    -5.5  0     0     1004.2   NA       0.0000   9999     0     0     0    
2019/07/05  21:26:00  BASE  1.75224  14   1.90512  18   -4.7  94    -5.5  0     0     1004.2   NA       0.0000   9999     0     0     0    
2019/07/05  21:27:00  BASE  1.8228   11   2.1168   6    -4.7  95    -5.5  0     0     1004.2   NA       0.0000   9999     0     0     0    
2019/07/05  21:28:00  BASE  1.92864  9    2.1756   7    -4.8  95    -5.5  0     0     1004.2   NA       0.0000   9999     0     0     0    
2019/07/05  21:29:00  BASE  1.9404   12   2.1756   7    -4.9  95    -5.5  0     0     1004.2   NA       0.0000   9999     0     0     0    
2019/07/05  21:30:00  BASE  2.01684  16   2.24028  18   -4.9  95    -5.6  0     0     1004.2   NA       0.0000   9999     0     0     0    
2019/07/05  21:31:00  BASE  2.10504  17   2.24028  15   -5.0  96    -5.6  0     0     1004.2   NA       0.0000   9999     0     0     0    
2019/07/05  21:32:00  BASE  2.10504  17   2.32848  18   -5.1  96    -5.6  0     0     1004.3   NA       0.0000   9999     0     0     0    
2019/07/05  21:33:00  BASE  2.14032  24   2.45196  39   -5.1  97    -5.5  0     0     1004.4   NA       0.0000   9999     0     0     0    
2019/07/05  21:34:00  BASE  2.59308  35   3.51036  42   -5.1  97    -5.6  0     0     1004.4   NA       0.0000   9999     0     0     0    
2019/07/05  21:35:00  BASE  2.90472  39   3.51036  42   -5.2  97    -5.6  0     0     1004.4   NA       0.0000   9999     0     0     0    
2019/07/05  21:36:00  BASE  2.75184  44   3.51036  42   -5.3  97    -5.7  0     0     1004.5   NA       0.0000   9999     0     0     0    
2019/07/05  21:37:00  BASE  2.86356  48   3.51036  42   -5.3  97    -5.7  0     0     1004.5   NA       0.0000   9999     0     0     0    
2019/07/05  21:38:00  BASE  2.91648  48   3.51036  42   -5.3  97    -5.7  0     0     1004.5   NA       0.0000   9999     0     0     0    
2019/07/05  21:39:00  BASE  2.59308  50   3.51036  42   -5.3  97    -5.6  0     0     1004.5   NA       0.0000   9999     0     0     0    
2019/07/05  21:40:00  BASE  2.33436  56   3.51036  42   -5.2  98    -5.5  0     0     1004.6   NA       0.0000   9999     0     0     0    
2019/07/05  21:41:00  BASE  2.32848  53   3.51036  42   -5.2  98    -5.5  0     0     1004.6   NA       0.0000   9999     0     0     0    
2019/07/05  21:42:00  BASE  2.36964  48   3.51036  42   -5.1  98    -5.4  0     0     1004.5   NA       0.0000   9999     0     0     0    
2019/07/05  21:43:00  BASE  2.28144  45   3.51036  42   -5.1  98    -5.4  0     0     1004.5   NA       0.0000   9999     0     0     0    
2019/07/05  21:44:00  BASE  2.06976  42   3.29868  38   -5.1  97    -5.4  0     0     1004.5   NA       0.0000   9999     0     0     0    
2019/07/05  21:45:00  BASE  2.12856  42   3.2046   44   -5.1  97    -5.5  0     0     1004.5   NA       0.0000   9999     0     0     0    
2019/07/05  21:46:00  BASE  2.3226   45   3.2046   44   -5.1  97    -5.5  0     0     1004.5   NA       0.0000   9999     0     0     0    
2019/07/05  21:47:00  BASE  2.2344   50   3.1752   49   -5.1  97    -5.5  0     0     1004.5   NA       0.0000   9999     0     0     0    
2019/07/05  21:48:00  BASE  2.19912  55   2.87532  36   -5.1  97    -5.5  0     0     1003.9   NA       0.0000   9999     0     0     0    
2019/07/05  21:49:00  BASE  2.35788  56   2.87532  36   -5.1  97    -5.5  0     0     1004.5   NA       0.0000   9999     0     0     0    
2019/07/05  21:50:00  BASE  2.34612  56   2.87532  36   -5.0  97    -5.4  0     0     1004.8   NA       0.0000   9999     0     0     0    
2019/07/05  21:51:00  BASE  2.09916  61   2.87532  36   -5.0  97    -5.4  0     0     1004.8   NA       0.0000   9999     0     0     0    
2019/07/05  21:52:00  BASE  2.22852  62   2.87532  36   -4.9  97    -5.3  0     0     1004.8   NA       0.0000   9999     0     0     0    
2019/07/05  21:53:00  BASE  2.646    59   2.99292  63   -4.9  97    -5.3  0     0     1004.9   NA       0.0000   9999     0     0     0    
2019/07/05  21:54:00  BASE  2.76948  55   2.99292  63   -4.9  97    -5.3  0     0     1004.9   NA       0.0000   9999     0     0     0    
2019/07/05  21:55:00  BASE  2.58132  52   2.99292  63   -4.9  97    -5.3  0     0     1004.9   NA       0.0000   9999     0     0     0    
2019/07/05  21:56:00  BASE  2.4402   52   2.99292  63   -4.9  97    -5.3  0     0     1004.9   NA       0.0000   9999     0     0     0    
2019/07/05  21:57:00  BASE  2.44608  52   2.99292  63   -4.9  97    -5.3  0     0     1005.0   NA       0.0000   9999     0     0     0    
2019/07/05  21:58:00  BASE  2.45784  55   2.99292  63   -4.9  97    -5.3  0     0     1005.0   NA       0.0000   9999     0     0     0    
2019/07/05  21:59:00  BASE  2.65776  59   2.99292  63   -4.9  97    -5.3  0     0     1005.1   NA       0.0000   9999     0     0     0    
2019/07/05  22:00:00  BASE  2.78124  63   2.99292  63   -4.9  97    -5.3  0     0     1005.1   NA       0.0000   9999     0     0     0    
2019/07/05  22:01:00  BASE  2.62836  65   2.99292  63   -4.9  97    -5.3  0     0     1005.1   NA       0.0000   9999     0     0     0    
2019/07/05  22:02:00  BASE  2.48724  66   2.99292  63   -4.8  97    -5.2  0     0     1005.1   NA       0.0000   9999     0     0     0    
2019/07/05  22:03:00  BASE  2.352    67   2.93412  59   -4.7  97    -5.1  0     0     1005.1   NA       0.0000   9999     0     0     0    
2019/07/05  22:04:00  BASE  2.29908  69   2.93412  59   -4.6  97    -5.1  0     0     1005.0   NA       0.0000   9999     0     0     0    
2019/07/05  22:05:00  BASE  2.25204  71   2.93412  59   -4.6  96    -5.1  0     0     1004.9   NA       0.0000   9999     0     0     0    
2019/07/05  22:06:00  BASE  2.04624  72   2.93412  59   -4.6  96    -5.1  0     0     1004.9   NA       0.0000   9999     0     0     0    
2019/07/05  22:07:00  BASE  1.9698   83   2.93412  59   -4.6  96    -5.1  0     0     1004.9   NA       0.0000   9999     0     0     0    
2019/07/05  22:08:00  BASE  1.81104  88   2.93412  59   -4.6  96    -5.2  0     0     1004.9   NA       0.0000   9999     0     0     0    
2019/07/05  22:09:00  BASE  1.66404  87   2.90472  65   -4.7  96    -5.2  0     0     1004.9   NA       0.0000   9999     0     0     0    
2019/07/05  22:10:00  BASE  1.58172  89   2.69304  70   -4.6  96    -5.2  0     0     1004.9   NA       0.0000   9999     1180  0     0    
2019/07/05  22:11:00  BASE  1.14072  74   2.69304  70   -4.5  96    -5.1  0     0     1004.9   NA       0.0000   9999     0     0     0    
2019/07/05  22:12:00  BASE  0.67032  52   2.54016  73   -4.5  96    -4.9  0     0     1004.9   NA       0.0000   9999     0     0     0    
2019/07/05  22:13:00  BASE  0.67032  61   2.54016  73   -4.4  96    -4.9  0     0     1004.9   NA       0.0000   9999     0     0     0    
2019/07/05  22:14:00  BASE  0.69384  82   2.54016  73   -4.3  96    -4.8  0     0     1005.0   NA       0.0000   9999     0     0     0    
2019/07/05  22:15:00  BASE  0.44688  82   2.35788  90   -4.3  97    -4.7  0     0     1005.0   NA       0.0000   9999     0     0     0    
2019/07/05  22:16:00  BASE  0.16464  84   2.35788  90   -4.3  97    -4.7  0     0     1005.0   NA       0.0000   9999     0     0     0    
2019/07/05  22:17:00  BASE  0        81   1.96392  79   -4.2  97    -4.7  0     0     1005.0   NA       0.0000   9999     0     0     0    
2019/07/05  22:18:00  BASE  0        64   1.87572  79   -4.2  97    -4.6  0     0     1004.9   NA       0.0000   9999     0     0     0    
2019/07/05  22:19:00  BASE  0        56   1.87572  79   -4.1  97    -4.5  0     0     1004.9   NA       0.0000   9999     0     0     0    
2019/07/05  22:20:00  BASE  0.09408  60   1.1466   71   -4.0  97    -4.4  0     0     1004.9   NA       0.0000   9999     0     0     0    
2019/07/05  22:21:00  BASE  0.56448  58   1.45236  52   -4.0  97    -4.4  0     0     1004.9   NA       0.0000   9999     0     0     0    
2019/07/05  22:22:00  BASE  1.22304  53   1.66404  51   -4.1  97    -4.5  0     0     1004.9   NA       0.0000   9999     0     0     0    
2019/07/05  22:23:00  BASE  1.75812  50   2.1462   45   -4.3  97    -4.7  0     0     1004.9   NA       0.0000   9999     0     0     0    
2019/07/05  22:24:00  BASE  1.95216  45   2.1462   45   -4.5  96    -4.9  0     0     1004.9   NA       0.0000   9999     0     0     0    
2019/07/05  22:25:00  BASE  1.78752  44   2.1462   45   -4.6  96    -5.1  0     0     1004.9   NA       0.0000   9999     0     0     0    
2019/07/05  22:26:00  BASE  1.53468  47   2.1462   45   -4.8  96    -5.2  0     0     1004.9   NA       0.0000   9999     0     0     0    
2019/07/05  22:27:00  BASE  1.45236  52   2.1462   45   -4.8  97    -5.2  0     0     1004.9   NA       0.0000   9999     0     0     0    
2019/07/05  22:28:00  BASE  1.51116  54   2.1462   45   -4.8  97    -5.2  0     0     1004.9   NA       0.0000   9999     0     0     0    
2019/07/05  22:29:00  BASE  1.60524  55   2.1462   45   -4.7  97    -5.1  0     0     1004.9   NA       0.0000   9999     0     0     0    
2019/07/05  22:30:00  BASE  1.83456  52   2.29908  53   -4.7  97    -5.1  0     0     1004.9   NA       0.0000   9999     0     0     0    
2019/07/05  22:31:00  BASE  2.00508  50   2.29908  53   -4.7  97    -5.1  0     0     1004.9   NA       0.0000   9999     0     0     0    
2019/07/05  22:32:00  BASE  2.00508  53   2.35788  54   -4.7  97    -5.0  0     0     1004.9   NA       0.0000   9999     0     0     0    
2019/07/05  22:33:00  BASE  2.16384  56   2.48136  55   -4.7  98    -5.0  0     0     1004.9   NA       0.0000   9999     0     0     0    
2019/07/05  22:34:00  BASE  2.34024  56   2.48136  55   -4.7  98    -5.0  0     0     1004.9   NA       0.0000   9999     0     0     0    
2019/07/05  22:35:00  BASE  2.39316  54   2.66364  52   -4.7  98    -4.9  0     0     1004.9   NA       0.0000   9999     0     0     0    
2019/07/05  22:36:00  BASE  2.44608  55   2.66364  52   -4.7  98    -5.0  0     0     1004.9   NA       0.0000   9999     0     0     0    
2019/07/05  22:37:00  BASE  2.32848  56   2.66364  52   -4.7  98    -5.0  0     0     1004.9   NA       0.0000   9999     0     0     0    
2019/07/05  22:38:00  BASE  2.205    56   2.66364  52   -4.7  98    -5.0  0     0     1004.9   NA       0.0000   9999     1310  0     0    
2019/07/05  22:39:00  BASE  2.09916  55   2.66364  52   -4.7  98    -5.0  0     0     1004.9   NA       0.0000   9999     0     0     0    
2019/07/05  22:40:00  BASE  2.03448  55   2.66364  52   -4.7  98    -4.9  0     0     1004.9   NA       0.0000   9999     1310  0     0    
2019/07/05  22:41:00  BASE  2.02272  57   2.66364  52   -4.6  98    -4.9  0     0     1004.9   NA       0.0000   9999     0     0     0    
2019/07/05  22:42:00  BASE  2.03448  58   2.66364  52   -4.6  98    -4.8  0     0     1004.9   NA       0.0000   9999     0     0     0    
2019/07/05  22:43:00  BASE  2.04036  59   2.66364  52   -4.6  98    -4.8  0     0     1004.9   NA       0.0000   9999     0     0     0    
2019/07/05  22:44:00  BASE  1.8816   57   2.66364  52   -4.6  99    -4.7  0     0     1004.8   NA       0.0000   9999     1310  0     0    
2019/07/05  22:45:01  BASE  1.75812  58   2.54016  59   -4.5  99    -4.7  0     0     1004.8   NA       0.0000   9999     0     0     0    
2019/07/05  22:46:00  BASE  1.7934   60   2.35788  61   -4.5  99    -4.7  0     0     1004.8   NA       0.0000   9999     0     0     0    
2019/07/05  22:47:00  BASE  1.7346   59   2.32848  60   -4.5  99    -4.7  0     0     1004.8   NA       0.0000   9999     0     0     0    
2019/07/05  22:48:00  BASE  1.74048  60   2.21088  61   -4.5  99    -4.6  0     0     1004.8   NA       0.0000   9999     0     0     0    
2019/07/05  22:49:00  BASE  1.77576  60   2.21088  61   -4.5  99    -4.6  0     0     1004.8   NA       0.0000   9999     0     0     0    
2019/07/05  22:50:00  BASE  1.69344  61   2.21088  61   -4.5  99    -4.6  0     0     1004.9   NA       0.0000   9999     0     0     0    
2019/07/05  22:51:00  BASE  1.65816  63   2.21088  61   -4.4  99    -4.6  0     0     1004.8   NA       0.0000   9999     0     0     0    
2019/07/05  22:52:00  BASE  1.72872  58   2.21088  61   -4.4  99    -4.6  0     0     1004.8   NA       0.0000   9999     0     0     0    
2019/07/05  22:53:00  BASE  1.71696  54   1.96392  57   -4.4  99    -4.6  0     0     1004.8   NA       0.0000   9999     0     0     0    
2019/07/05  22:54:00  BASE  1.76988  56   2.0286   61   -4.5  99    -4.6  0     0     1004.8   NA       0.0000   9999     0     0     0    
2019/07/05  22:55:00  BASE  1.94628  59   2.21088  61   -4.5  99    -4.6  0     0     1004.8   NA       0.0000   9999     0     0     0    
2019/07/05  22:56:00  BASE  2.09328  61   2.35788  61   -4.6  99    -4.7  0     0     1004.8   NA       0.0000   9999     0     0     0    
2019/07/05  22:57:00  BASE  2.33436  59   2.56956  59   -4.6  99    -4.7  0     0     1004.8   NA       0.0000   9999     0     0     0    
2019/07/05  22:58:00  BASE  2.46372  58   2.56956  59   -4.6  100   -4.6  0     0     1004.8   NA       0.0000   9999     0     0     0    
2019/07/05  22:59:00  BASE  2.5284   58   2.81064  54   -4.6  100   -4.7  0     0     1004.8   NA       0.0000   9999     0     0     0    
2019/07/05  23:00:00  BASE  2.62248  57   2.81064  55   -4.6  100   -4.6  0     0     1004.9   NA       0.0000   9999     0     0     0    
2019/07/05  23:01:00  BASE  2.62836  58   2.81064  55   -4.7  100   -4.7  0     0     1004.9   NA       0.0000   9999     0     0     0    
2019/07/05  23:02:00  BASE  2.58132  56   2.81064  55   -4.7  100   -4.7  0     0     1004.9   NA       0.0000   9999     0     0     0    
2019/07/05  23:03:00  BASE  2.41668  51   2.81064  55   -4.7  100   -4.7  0     0     1004.9   NA       0.0000   9999     0     0     0    
2019/07/05  23:04:00  BASE  2.21088  49   2.81064  55   -4.7  100   -4.7  0     0     1004.9   NA       0.0000   9999     0     0     0    
2019/07/05  23:05:00  BASE  1.9992   48   2.81064  55   -4.8  100   -4.8  0     0     1004.8   NA       0.0000   9999     0     0     0    
2019/07/05  23:06:00  BASE  1.83456  49   2.81064  55   -4.7  100   -4.7  0     0     1004.8   NA       0.0000   9999     0     0     0    
2019/07/05  23:07:00  BASE  1.71108  49   2.81064  55   -4.7  100   -4.7  0     0     1004.8   NA       0.0000   9999     0     0     0    
2019/07/05  23:08:00  BASE  1.58172  41   2.81064  55   -4.6  100   -4.6  0     0     1004.8   NA       0.0000   9999     0     0     0    
2019/07/05  23:09:00  BASE  1.5876   38   2.81064  55   -4.6  100   -4.6  0     0     1004.8   NA       0.0000   9999     0     0     0    
2019/07/05  23:10:00  BASE  1.5876   42   2.69304  58   -4.5  100   -4.5  0     0     1004.8   NA       0.0000   9999     0     0     0    
2019/07/05  23:11:00  BASE  1.5288   46   2.69304  58   -4.5  100   -4.5  0     0     1004.8   NA       0.0000   9999     0     0     0    
2019/07/05  23:12:00  BASE  1.54056  51   2.38728  49   -4.5  100   -4.5  0     0     1004.9   NA       0.0000   9999     0     0     0    
2019/07/05  23:13:00  BASE  1.56408  51   2.26968  50   -4.6  100   -4.6  0     0     1004.9   NA       0.0000   9999     0     0     0    
2019/07/05  23:14:00  BASE  1.72872  50   2.0286   42   -4.6  100   -4.6  0     0     1004.9   NA       0.0000   9999     0     0     0    
2019/07/05  23:15:00  BASE  1.90512  49   2.058    46   -4.6  100   -4.6  0     0     1004.9   NA       0.0000   9999     0     0     0    
2019/07/05  23:16:00  BASE  1.95216  47   2.1168   52   -4.6  100   -4.6  0     0     1004.9   NA       0.0000   9999     0     0     0    
2019/07/05  23:17:00  BASE  2.0286   50   2.21088  50   -4.7  100   -4.7  0     0     1004.9   NA       0.0000   9999     0     0     0    
2019/07/05  23:18:00  BASE  2.09328  51   2.21088  50   -4.7  100   -4.7  0     0     1004.8   NA       0.0000   9999     0     0     0    
2019/07/05  23:19:00  BASE  2.03448  51   2.21088  50   -4.8  100   -4.8  0     0     1004.8   NA       0.0000   9999     0     0     0    
2019/07/05  23:20:00  BASE  2.06388  54   2.24028  55   -4.8  100   -4.8  0     0     1004.8   NA       0.0000   9999     0     0     0    
2019/07/05  23:21:00  BASE  1.86396  59   2.24028  55   -4.8  100   -4.8  0     0     1004.9   NA       0.0000   9999     0     0     0    
2019/07/05  23:22:00  BASE  1.69932  65   2.24028  55   -4.8  100   -4.8  0     0     1004.9   NA       0.0000   9999     0     0     0    
2019/07/05  23:23:00  BASE  1.66404  66   2.24028  55   -4.7  100   -4.7  0     0     1004.9   NA       0.0000   9999     0     0     0    
2019/07/05  23:24:00  BASE  1.54056  63   2.24028  55   -4.6  100   -4.6  0     0     1004.9   NA       0.0000   9999     0     0     0    
2019/07/05  23:25:00  BASE  1.65816  63   2.24028  55   -4.5  100   -4.5  0     0     1004.8   NA       0.0000   9999     0     0     0    
2019/07/05  23:26:00  BASE  1.86984  59   2.24028  58   -4.4  100   -4.4  0     0     1004.8   NA       0.0000   9999     0     0     0    
2019/07/05  23:27:00  BASE  1.81692  53   2.24028  58   -4.3  100   -4.3  0     0     1004.8   NA       0.0000   9999     0     0     0    
2019/07/05  23:28:00  BASE  1.69344  57   2.24028  58   -4.3  100   -4.3  0     0     1004.8   NA       0.0000   9999     0     0     0    
2019/07/05  23:29:00  BASE  1.81692  65   2.24028  58   -4.2  100   -4.2  0     0     1004.8   NA       0.0000   9999     0     0     0    
2019/07/05  23:30:00  BASE  1.98156  66   2.26968  69   -4.2  100   -4.2  0     0     1004.8   NA       0.0000   9999     0     0     0    
2019/07/05  23:31:00  BASE  2.11092  68   2.29908  68   -4.3  100   -4.3  0     0     1004.9   NA       0.0000   9999     0     0     0    
2019/07/05  23:32:00  BASE  2.2344   67   2.42256  67   -4.3  100   -4.3  0     0     1004.8   NA       0.0000   9999     0     0     0    
2019/07/05  23:33:00  BASE  2.27556  65   2.42256  67   -4.3  100   -4.3  0     0     1004.8   NA       0.0000   9999     0     0     0    
2019/07/05  23:34:00  BASE  2.21088  64   2.42256  67   -4.4  100   -4.4  0     0     1004.8   NA       0.0000   9999     0     0     0    
2019/07/05  23:35:00  BASE  2.1168   64   2.42256  67   -4.4  100   -4.4  0     0     1004.8   NA       0.0000   9999     0     0     0    
2019/07/05  23:36:00  BASE  2.06976  61   2.42256  67   -4.4  100   -4.4  0     0     1004.8   NA       0.0000   9999     0     0     0    
2019/07/05  23:37:00  BASE  2.21088  58   2.69304  60   -4.5  100   -4.5  0     0     1004.8   NA       0.0000   9999     0     0     0    
2019/07/05  23:38:00  BASE  2.27556  60   2.69304  60   -4.6  100   -4.6  0     0     1004.8   NA       0.0000   9999     0     0     0    
2019/07/05  23:39:00  BASE  2.25204  63   2.69304  60   -4.6  100   -4.6  0     0     1004.8   NA       0.0000   9999     0     0     0    
2019/07/05  23:40:00  BASE  2.1756   62   2.69304  60   -4.6  100   -4.6  0     0     1004.8   NA       0.0000   9999     0     0     0    
2019/07/05  23:41:00  BASE  1.97568  59   2.69304  60   -4.6  100   -4.6  0     0     1004.8   NA       0.0000   9999     0     0     0    
2019/07/05  23:42:00  BASE  1.72872  62   2.69304  60   -4.5  100   -4.5  0     0     1004.8   NA       0.0000   9999     0     0     0    
2019/07/05  23:43:00  BASE  1.52292  65   2.69304  60   -4.5  100   -4.5  0     0     1004.8   NA       0.0000   9999     0     0     0    
2019/07/05  23:44:00  BASE  1.48764  66   2.69304  60   -4.5  100   -4.5  0     0     1004.8   NA       0.0000   9999     0     0     0    
2019/07/05  23:45:00  BASE  1.45236  68   2.69304  60   -4.4  100   -4.4  0     0     1004.8   NA       0.0000   9999     0     0     0    
2019/07/05  23:46:00  BASE  1.62876  65   2.69304  60   -4.4  100   -4.4  0     0     1004.8   NA       0.0000   9999     0     0     0    
2019/07/05  23:47:00  BASE  1.91688  60   2.42256  67   -4.3  100   -4.3  0     0     1004.8   NA       0.0000   9999     0     0     0    
2019/07/05  23:48:00  BASE  1.8228   59   2.38728  61   -4.3  100   -4.3  0     0     1004.7   NA       0.0000   9999     0     0     0    
2019/07/05  23:49:00  BASE  1.71696  58   2.26968  65   -4.3  100   -4.3  0     0     1004.7   NA       0.0000   9999     0     0     0    
2019/07/05  23:50:00  BASE  1.74636  54   2.1756   60   -4.3  100   -4.3  0     0     1004.7   NA       0.0000   9999     0     0     0    
2019/07/05  23:51:00  BASE  1.75812  49   2.1756   60   -4.4  100   -4.4  0     0     1004.7   NA       0.0000   9999     0     0     0    
2019/07/05  23:52:00  BASE  1.66992  45   2.1756   60   -4.4  100   -4.4  0     0     1004.7   NA       0.0000   9999     0     0     0    
2019/07/05  23:53:00  BASE  1.48764  47   2.1756   60   -4.4  100   -4.4  0     0     1004.7   NA       0.0000   9999     0     0     0    
2019/07/05  23:54:00  BASE  1.49352  52   2.1756   60   -4.4  100   -4.4  0     0     1004.7   NA       0.0000   9999     0     0     0    
2019/07/05  23:55:00  BASE  1.52292  53   2.1756   60   -4.4  100   -4.4  0     0     1004.8   NA       0.0000   9999     0     0     0    
2019/07/05  23:56:00  BASE  1.39944  54   2.1756   60   -4.4  100   -4.4  0     0     1004.8   NA       0.0000   9999     0     0     0    
2019/07/05  23:57:00  BASE  1.31712  55   1.90512  57   -4.5  100   -4.5  0     0     1004.8   NA       0.0000   9999     0     0     0    
2019/07/05  23:58:00  BASE  1.51704  54   2.0874   53   -4.5  100   -4.5  0     0     1004.7   NA       0.0000   9999     0     0     0    
2019/07/05  23:59:00  BASE  1.8522   55   2.1462   60   -4.5  100   -4.5  0     0     1004.7   NA       0.0000   9999     0     0     0